     2              OBSERVATION DATA    GPS                 RINEX VERSION / TYPE
teqc 2000Jul20 Karen Wendt 20030616 22:35:27UTC             PGM / RUN BY / DATE
                                                            COMMENT
L2: 1 -> 1; 150 -> 5; 250 -> 9                              COMMENT
L2: 1 -> 1; 150 -> 5; 250 -> 9                              COMMENT
L2: 1 -> 1; 150 -> 5; 250 -> 9                              COMMENT
L2: 1 -> 1; 150 -> 5; 250 -> 9                              COMMENT
L2: 1 -> 1; 150 -> 5; 250 -> 9                              COMMENT
L2: 1 -> 1; 150 -> 5; 250 -> 9                              COMMENT
L2: 1 -> 1; 150 -> 5; 250 -> 9                              COMMENT
L2: 1 -> 1; 150 -> 5; 250 -> 9                              COMMENT
L2: 1 -> 1; 150 -> 5; 250 -> 9                              COMMENT
L2: 1 -> 1; 150 -> 5; 250 -> 9                              COMMENT
L2: 1 -> 1; 150 -> 5; 250 -> 9                              COMMENT
L2: 1 -> 1; 150 -> 5; 250 -> 9                              COMMENT
L2: 1 -> 1; 150 -> 5; 250 -> 9                              COMMENT
L2: 1 -> 1; 150 -> 5; 250 -> 9                              COMMENT
Original Marker Name: h614                                  COMMENT
Campaign Name: USGS Death Valley 2003                       COMMENT
4-Character Station Name: H614                              COMMENT
6-Character Antenna Code: DMRCHT                            COMMENT
Vertical Measurement Point: BCR                             COMMENT
Vertical Offset to Rinex Ref. Point: 0.0348                 COMMENT
Radial Measurement Point: ECF                               COMMENT
Radial Offset to Rinex Ref. Point: 0.1897                   COMMENT
Antenna Height from Field Measurement: 1.2530 m             COMMENT
Additional Antenna Identification Info.:                    COMMENT
Turborogue and Ashtech Choke Ring                           COMMENT
Original XYZ: -2480360.3313 -4551733.4748 3706124.0403      COMMENT
New XYZ position is based on association with SCEC monument COMMENT
E1F1M1C7+0011. Position of that monument is believed to be  COMMENT
valid to within 1 m horizontally; vertical accuracy         COMMENT
should be no worse than 3-times this value.                 COMMENT
                                                            COMMENT
Revised Rinex header created by UCSD GPS archive for        COMMENT
GSAC on 20-Apr-2005 (2005:110) 16:31:08 GMT                 COMMENT
For assistance contact dagnew@ucsd.edu                      COMMENT
or anderson@python.ucsd.edu                                 COMMENT
                                                            COMMENT
HPGN CALIF STA 0614 1991                                    MARKER NAME
JLS US GEOLOGICAL SURVEY                                    OBSERVER / AGENCY
LP019992809 ASHTECH Z-XII3 CD00                             REC # / TYPE / VERS
CR14333 DORNE-MARGOL. TYPE T                                ANT # / TYPE
 -2480457.0000 -4551799.0000  3706129.0000                  APPROX POSITION XYZ
        1.2038        0.0000        0.0000                  ANTENNA: DELTA H/E/N
     1     1     0                                          WAVELENGTH FACT L1/2
     5    C1    L1    L2    P1    P2                        # / TYPES OF OBSERV
    30                                                      INTERVAL
  2003     6    15     0     0   30.000000                  TIME OF FIRST OBS
  2003     6    15    21     0   30.000000                  TIME OF LAST OBS
                                                            END OF HEADER
 03  6 15  0  0 30.0000000  0  7G20G25G 1G16G 2G11G14
  21653432.445   -16667977.11449 -12971591.28847  21653431.651    21653436.870
  21072977.062   -20759190.30349 -16165375.64847  21072976.792    21072981.587
  22981890.523    -9713888.10749  -7539786.50146  22981889.899    22981897.306
  23780770.990    -5319834.23249  -4131477.71645  23780770.466    23780778.993
  24173571.129    -3460510.62949  -2687546.46745  24173570.176    24173582.370
  21917564.761   -13447913.47049 -10459201.37747  21917564.356    21917569.134
  24240354.850    -5752371.85849  -3639478.28645  24240354.181    24240360.800
 03  6 15  0  1  0.0000000  0  7G20G25G 1G16G 2G11G14
  21639492.474   -16741231.93449 -13028672.92247  21639491.702    21639496.913
  21081955.483   -20712008.38349 -16128610.51347  21081955.236    21081960.023
  22970229.656    -9775165.83249  -7587535.27146  22970229.021    22970236.431
  23764011.020    -5407908.84949  -4200107.10645  23764010.378    23764018.677
  24157468.185    -3545130.38649  -2753483.51345  24157467.145    24157479.342
  21927762.452   -13394324.29449 -10417443.60047  21927762.046    21927766.863
  24254970.955    -5675563.77449  -3579627.87145  24254970.373    24254977.077
 03  6 15  0  1 30.0000000  0  7G20G25G 1G16G 2G11G14
  21625597.689   -16814249.45949 -13085569.65247  21625596.891    21625602.138
  21091008.980   -20664431.91549 -16091537.93847  21091008.719    21091013.481
  22958594.334    -9836309.57049  -7635179.63746  22958593.696    22958601.079
  23747267.665    -5495895.53849  -4268667.98945  23747267.120    23747275.222
  24141364.415    -3629754.34349  -2819423.83445  24141363.543    24141375.485
  21938039.859   -13340316.13549 -10375359.34047  21938039.441    21938044.301
  24269586.876    -5598756.74449  -3519778.29145  24269586.385    24269593.009
 03  6 15  0  2  0.0000000  0  7G20G25G 1G16G 2G11G14
  21611748.441   -16887027.33049 -13142279.64047  21611747.659    21611752.922
  21100137.230   -20616462.45249 -16054159.13447  21100136.989    21100141.769
  22946984.440    -9897319.18549  -7682719.50746  22946983.834    22946991.282
  23730541.401    -5583791.27349  -4337158.01145  23730540.928    23730548.913
  24125260.344    -3714379.66649  -2885365.25345  24125259.491    24125271.364
  21948396.580   -13285890.84949 -10332950.04847  21948396.181    21948401.060
  24284202.611    -5521950.65749  -3459929.44545  24284202.057    24284208.930
 03  6 15  0  2 30.0000000  0  7G20G25G 1G16G 2G11G14
  21597945.225   -16959563.51949 -13198801.30747  21597944.444    21597949.726
  21109339.872   -20568101.94849 -16016475.62947  21109339.628    21109344.434
  22935400.101    -9958195.02249  -7730155.13646  22935399.493    22935406.911
  23713833.248    -5671592.59549  -4405574.46445  23713832.776    23713840.702
  24109156.416    -3799003.95349  -2951305.84645  24109155.560    24109167.478
  21958832.378   -13231050.60649 -10290217.41747  21958831.967    21958836.810
  24298818.184    -5445145.62049  -3400081.41945  24298817.489    24298824.495
 03  6 15  0  3  0.0000000  0  7G20G25G 1G16G 2G11G14
  21584188.398   -17031856.11749 -13255133.16147  21584187.598    21584192.918
  21118616.502   -20519352.88149 -15978489.34647  21118616.246    21118621.069
  22923841.114   -10018937.61449  -7777486.93446  22923840.535    22923847.852
  23697143.594    -5759297.10749  -4473915.49845  23697143.179    23697150.779
  24093053.227    -3883624.92349  -3017243.88845  24093052.428    24093064.266
  21969346.577   -13175798.36049 -10247163.74147  21969346.118    21969350.945
  24313433.430    -5368342.13649  -3340234.60745  24313432.740    24313439.585
 03  6 15  0  3 30.0000000  0  7G20G25G 1G16G 2G11G14
  21570478.393   -17103902.64049 -13311273.27647  21570477.599    21570482.887
  21127966.677   -20470217.02749 -15940201.67147  21127966.433    21127971.270
  22912307.468   -10079547.05749  -7824714.98146  22912306.860    22912314.111
  23680473.121    -5846901.53049  -4542178.53245  23680472.590    23680480.099
  24076951.200    -3968239.79749  -3083177.18545  24076950.344    24076962.224
  21979938.745   -13120135.96949 -10203790.47447  21979938.315    21979943.186
  24328048.368    -5291540.23149  -3280389.06245  24328047.633    24328054.363
 03  6 15  0  4  0.0000000  0  7G20G25G 1G16G 2G11G14
  21556815.607   -17175701.08849 -13367220.08647  21556814.798    21556820.058
  21137390.127   -20420696.70049 -15901614.40047  21137389.879    21137394.708
  22900799.127   -10140023.64649  -7871839.52746  22900798.517    22900805.619
  23663822.079    -5934402.97049  -4610361.33345  23663821.408    23663828.909
  24060851.001    -4052846.10749  -3149103.80045  24060850.031    24060861.747
  21990608.476   -13064066.10149 -10160099.69147  21990608.069    21990612.960
  24342662.902    -5214740.32449  -3220545.03245  24342662.166    24342668.934
 03  6 15  0  4 30.0000000  0  7G20G25G 1G16G 2G11G14
  21543200.494   -17247248.69249 -13422971.43747  21543199.703    21543204.911
  21146886.478   -20370793.40149 -15862728.71847  21146886.215    21146891.014
  22889316.164   -10200367.09549  -7918860.30946  22889315.487    22889322.522
  23647191.149    -6021797.69049  -4678460.95545  23647190.541    23647198.087
  24044752.977    -4137440.88649  -3215021.45745  24044752.065    24044763.628
  22001355.463   -13007590.70949 -10116092.90947  22001355.069    22001359.943
  24357277.189    -5137942.00649  -3160702.27545  24357276.419    24357283.226
 03  6 15  0  5  0.0000000  0  7G20G25G 1G16G 2G11G14
  21529633.385   -17318544.12949 -13478526.28547  21529632.606    21529637.770
  21156455.203   -20320509.63049 -15823546.55747  21156454.931    21156459.689
  22877858.293   -10260578.14849  -7965777.93946  22877857.629    22877864.625
  23630581.035    -6109083.29749  -4746475.55845  23630580.500    23630588.080
  24028657.474    -4222022.16449  -3280928.59845  24028656.597    24028667.971
  22012179.043   -12950712.48249 -10071772.22847  22012178.666    22012183.566
  24371891.215    -5061145.99249  -3100861.28245  24371890.421    24371897.164
 03  6 15  0  5 30.0000000  0  7G20G25G 1G16G 2G11G14
  21516114.797   -17389584.44649 -13533882.34147  21516114.014    21516119.164
  21166096.040   -20269846.68849 -15784068.94547  21166095.777    21166100.520
  22866425.654   -10320656.52649  -8012592.17446  22866425.023    22866431.998
  23613992.461    -6196256.44849  -4814402.54445  23613991.894    23613999.454
  24012565.156    -4306586.82849  -3346822.80345  24012564.208    24012575.541
  22023078.949   -12893433.38149 -10027139.18747  22023078.540    22023083.440
  24386504.746    -4984352.02349  -3041021.87745  24386504.044    24386510.691
 03  6 15  0  6  0.0000000  0  7G20G25G 1G16G 2G11G14
  21502645.042   -17460368.15149 -13589038.44147  21502644.269    21502649.436
  21175808.432   -20218807.50649 -15744298.15247  21175808.183    21175812.985
  22855018.177   -10380603.07749  -8059303.69746  22855017.501    22855024.489
  23597425.708    -6283314.48249  -4882239.82345  23597425.103    23597432.677
  23996476.307    -4391132.73849  -3412702.40145  23996475.406    23996486.619
  22034054.533   -12835756.46949  -9982196.16347  22034054.142    22034059.016
  24401117.630    -4907560.61849  -2981184.50845  24401116.978    24401123.770
 03  6 15  0  6 30.0000000  0  7G20G25G 1G16G 2G11G14
  21489224.714   -17530892.17149 -13643992.19247  21489223.970    21489229.138
  21185592.272   -20167392.97149 -15704234.87847  21185592.030    21185596.871
  22843635.847   -10440417.23149  -8105912.05246  22843635.200    22843642.192
  23580881.679    -6370253.49449  -4949984.37445  23580881.176    23580888.514
  23980391.638    -4475656.62149  -3478564.85845  23980390.742    23980401.915
  22045105.426   -12777683.62249  -9936944.61947  22045105.051    22045109.933
  24415730.071    -4830771.16949  -2921348.64645  24415729.543    24415736.261
 03  6 15  0  7  0.0000000  0  7G20G25G 1G16G 2G11G14
  21475854.230   -17601154.37549 -13698741.92747  21475853.466    21475858.633
  21195447.158   -20115605.28849 -15663880.84047  21195446.907    21195451.745
  22832278.622   -10500099.34949  -8152417.52746  22832278.053    22832284.978
  23564360.757    -6457070.60049  -5017633.91845  23564360.284    23564367.711
  23964311.640    -4560156.08849  -3544408.29545  23964310.723    23964321.879
  22056231.269   -12719216.86049  -9891386.12947  22056230.899    22056235.856
  24430342.140    -4753983.93149  -2861514.48545  24430341.617    24430348.448
 03  6 15  0  7 30.0000000  0  7G20G25G 1G16G 2G11G14
  21462534.058   -17671152.48049 -13753285.86847  21462533.277    21462538.432
  21205372.625   -20063446.84849 -15623237.90047  21205372.366    21205377.163
  22820946.590   -10559649.72549  -8198820.34146  22820945.978    22820952.841
  23547863.554    -6543762.69149  -5085186.05045  23547863.054    23547870.574
  23948236.763    -4644628.47149  -3610230.64245  23948235.972    23948246.868
  22067431.608   -12660358.88149  -9845522.79147  22067431.195    22067436.172
  24444953.851    -4677198.93649  -2801682.11645  24444953.519    24444960.269
 03  6 15  0  8  0.0000000  0  7G20G25G 1G16G 2G11G14
  21449264.330   -17740885.26049 -13807623.06047  21449263.534    21449268.681
  21215368.010   -20010920.59949 -15582308.35847  21215367.747    21215372.546
  22809639.380   -10619069.39749  -8245121.31546  22809638.746    22809645.564
  23531390.551    -6630327.56949  -5152639.06345  23531390.048    23531397.669
  23932167.480    -4729072.07549  -3676030.56945  23932166.746    23932177.406
  22078705.764   -12601112.93149  -9799357.13347  22078705.390    22078710.293
  24459565.036    -4600417.23848  -2741852.29344  24459564.339    24459571.607
 03  6 15  0  8 30.0000000  0  7G20G25G 1G16G 2G11G14
  21436045.594   -17810350.14849 -13861751.51147  21436044.815    21436049.945
  21225433.099   -19958028.18049 -15541093.48447  21225432.849    21225437.620
  22798357.055   -10678358.38449  -8291320.45646  22798356.406    22798363.161
  23514942.563    -6716761.87849  -5219990.32545  23514942.055    23514949.585
  23916104.134    -4813484.16849  -3741805.95245  23916103.347    23916113.882
  22090053.363   -12541481.27449  -9752890.92447  22090052.974    22090057.788
  24474175.583    -4523638.77848  -2682024.96344  24474175.009
 03  6 15  0  9  0.0000000  0  7G20G25G 1G16G 2G11G14
  21422878.179   -17879545.14549 -13915669.65547  21422877.411    21422882.542
  21235567.342   -19904771.98249 -15499595.15347  21235567.093    21235571.902
  22787099.494   -10737517.03949  -8337418.03446  22787098.889    22787105.589
  23498519.990    -6803062.80649  -5287237.66245  23498519.454    23498526.904
  23900047.304    -4897862.12449  -3807554.73045  23900046.593    23900057.030
  22101473.762   -12481466.64849  -9706126.30247  22101473.388    22101478.176
  24488785.482    -4446863.98058  -2622200.43544  24488784.958
 03  6 15  0  9 30.0000000  0  7G20G25G 1G16G 2G11G14
  21409762.709   -17948467.38049 -13969375.25847  21409761.930    21409767.050
  21245770.664   -19851153.19749 -15457814.28047  21245770.409    21245775.209
  22775866.774   -10796544.95749  -8383413.74146  22775866.186    22775872.915
  23482123.529    -6889226.56849  -5354378.13145  23482122.974    23482130.316
  23883997.537    -4982202.91149  -3873274.55445  23883996.784    23884007.250
  22112966.822   -12421070.56849  -9659064.44247  22112966.402    22112971.194
                  -4370091.84158  -2562378.03944
 03  6 15  0 10  0.0000000  0  7G20G25G 1G16G 2G11G14
  21396699.593   -18017114.36949 -14022866.39147  21396698.824    21396703.928
  21256042.711   -19797173.37649 -15415752.08347  21256042.438    21256047.240
  22764658.901   -10855441.85749  -8429307.35746  22764658.355    22764665.130
  23465753.861    -6975249.59049  -5421408.92345  23465753.277    23465760.479
  23867955.353    -5066503.62949  -3938963.16045  23867954.699    23867965.022
  22124531.952   -12360295.44949  -9611707.22547  22124531.506    22124536.333
                  -4293322.37648  -2502557.85543
 03  6 15  0 10 30.0000000  0  7G20G25G 1G16G 2G11G14
  21383689.153   -18085484.72849 -14076141.96347  21383688.361    21383693.406
  21266382.773   -19742835.94049 -15373411.22647  21266382.510    21266387.327
  22753475.743   -10914209.14049  -8475099.96646  22753475.218    22753482.010
  23449411.358    -7061130.02649  -5488328.60946  23449410.751    23449417.882
  23851921.195    -5150762.67249  -4004619.29245  23851920.549    23851930.810
  22136168.366   -12299145.20749  -9564057.70747  22136167.970    22136172.869
                  -4216556.79058   1208047.46443
 03  6 15  0 11  0.0000000  0  6G20G25G 1G16G 2G11
  21370731.120   -18153579.69149 -14129202.94147  21370730.321    21370735.332
  21276789.979   -19688145.87049 -15330795.58847  21276789.715    21276794.526
  22742316.663   -10972850.16149  -8520794.18946  22742316.092    22742322.916
  23433095.862    -7146867.92949  -5555137.23046  23433095.256    23433102.363
  23835894.955    -5234980.43049  -4070243.26145  23835894.154    23835904.375
  22147875.232   -12237625.07749  -9516119.96347  22147874.845    22147879.801
 03  6 15  0 11 30.0000000  0  6G20G25G 1G16G 2G11
  21357826.247   -18221395.09249 -14182046.08047  21357825.445    21357830.416
  21287264.103   -19633103.74449 -15287905.62547  21287263.884    21287268.695
  22731181.899   -11031363.54049  -8566388.95546  22731181.320    22731188.071
  23416808.447    -7232458.44849  -5621831.02346  23416807.901    23416814.902
  23819877.311    -5319152.57049  -4135831.70345  23819876.533    23819886.577
  22159652.428   -12175735.60849  -9467894.43247  22159652.032    22159656.950
 03  6 15  0 12  0.0000000  0  6G20G25G 1G16G 2G11
  21344975.853   -18288924.34549 -14234666.24447  21344975.041    21344980.008
  21297805.674   -19577707.52249 -15244739.74747  21297805.446    21297810.259
  22720072.158   -11089745.27749  -8611881.14746  22720071.582    22720078.281
  23400550.424    -7317894.27849  -5688404.25746  23400549.877    23400556.943
  23803869.595    -5403272.51549  -4201379.46545  23803868.904    23803878.717
  22171500.143   -12113475.55849  -9419380.14247  22171499.760    22171504.644
 03  6 15  0 12 30.0000000  0  6G20G25G 1G16G 2G11
  21332180.443   -18356164.52149 -14287061.14847  21332179.629    21332184.615
  21308414.388   -19521958.47849 -15201298.93447  21308414.142    21308418.917
  22708987.584   -11147994.75649  -8657270.28646  22708987.026    22708993.676
  23384322.648    -7403171.65849  -5754854.02846  23384322.060    23384329.050
  23787872.568    -5487336.83649  -4266883.89545  23787871.789    23787881.564
  22183418.046   -12050846.67649  -9370578.43647  22183417.650    22183422.557
 03  6 15  0 13  0.0000000  0  6G20G25G 1G16G 2G11
  21319439.968   -18423115.97549 -14339231.08547  21319439.179    21319444.169
  21319089.438   -19465861.11349 -15157586.71547  21319089.192    21319093.907
  22697927.680   -11206114.84449  -8702558.61246  22697927.122    22697933.723
  23368125.039    -7488289.96049  -5821179.85646  23368124.524    23368131.433
  23771886.035    -5571345.63149  -4332345.07245  23771885.387    23771894.922
  22195405.144   -11987853.94449  -9321493.21647  22195404.791    22195409.764
 03  6 15  0 13 30.0000000  0  6G20G25G 1G16G 2G11
  21306754.863   -18489776.44249 -14391174.27147  21306754.061    21306759.080
  21329830.330   -19409417.50949 -15113604.68947  21329830.066    21329834.742
  22686892.453   -11264105.38549  -8747745.98046  22686891.892    22686898.443
  23351958.390    -7573246.07749  -5887379.28846  23351957.796    23351964.660
  23755910.669    -5655295.95549  -4397760.67645  23755910.006    23755919.495
  22207461.081   -11924499.88849  -9272126.44047  22207460.705    22207465.703
 03  6 15  0 14  0.0000000  0  6G20G25G 1G16G 2G11
  21294125.565   -18556143.52049 -14442888.84647  21294124.784    21294129.863
  21340636.696   -19352629.63949 -15069354.41147  21340636.455    21340641.127
  22675881.726   -11321966.66149  -8792832.61846  22675881.145    22675887.784
  23335823.081    -7658036.85849  -5953449.89346  23335822.496    23335829.367
  23739947.024    -5739185.10449  -4463128.61645  23739946.228    23739955.653
  22219585.277   -11860786.89749  -9222479.97547  22219584.882    22219589.911
 03  6 15  0 14 30.0000000  0  6G20G25G 1G16G 2G11
  21281552.369   -18622216.16149 -14494373.98947  21281551.568    21281556.652
  21351507.998   -19295500.73149 -15024838.39047  21351507.739    21351512.403
  22664895.295   -11379700.17649  -8837819.70746  22664894.790    22664901.429
  23319719.702    -7742660.14949  -6019389.99646  23319719.144    23319725.970
  23723995.258    -5823011.70449  -4528447.81945  23723994.441    23724003.711
  22231776.938   -11796718.93849  -9172556.91446  22231776.562    22231781.663
 03  6 15  0 15  0.0000000  0  6G20G25G 1G16G 2G11
  21269035.874   -18687990.83349 -14545626.94347  21269035.044    21269040.167
  21362443.947   -19238031.60949 -14980057.26947  21362443.698    21362448.407
  22653933.507   -11437304.74949  -8882706.31246  22653932.969    22653939.575
  23303648.985    -7827112.14349  -6085196.61446  23303648.430    23303655.194
  23708056.087    -5906771.74849  -4593715.16445  23708055.335    23708064.460
  22244035.992   -11732297.30649  -9122358.26946  22244035.605    22244040.680
 03  6 15  0 15 30.0000000  0  6G20G25G 1G16G 2G11
  21256576.280   -18753466.25349 -14596646.71347  21256575.459    21256580.591
  21373444.065   -19180225.74549 -14935013.74947  21373443.803    21373448.514
  22642995.973   -11494781.51949  -8927493.33646  22642995.441    22643002.035
  23287611.363    -7911390.23449  -6150867.72646  23287610.743    23287617.577
  23692129.898    -5990463.76949  -4658929.51345  23692129.160    23692138.291
  22256361.807   -11667525.47549  -9071886.74546  22256361.341    22256366.337
 03  6 15  0 16  0.0000000  0  6G20G25G 1G16G 2G11
  21244174.326   -18818638.86749 -14647430.53347  21244173.485    21244178.603
  21384508.153   -19122083.57549 -14889708.17647  21384507.883    21384512.618
  22632082.997   -11552129.35749  -8972179.89946  22632082.446    22632089.083
  23271607.493    -7995490.15549  -6216400.00946  23271606.942    23271613.813
  23676217.371    -6074083.84349  -4724087.80845  23676216.567    23676225.744
  22268753.893   -11602404.66449  -9021143.28046  22268753.463    22268758.432
 03  6 15  0 16 30.0000000  0  6G20G25G 1G16G 2G11
  21231830.184   -18883507.66949 -14697977.61847  21231829.341    21231834.430
  21395635.586   -19063608.50049 -14844143.19247  21395635.350    21395640.045
  22621194.177   -11609349.94949  -9016767.30046  22621193.624    22621200.297
  23255637.902    -8079410.15449  -6281792.08646  23255637.397    23255644.248
  23660318.792    -6157630.66149  -4789189.02145  23660318.063    23660327.220
  22281211.578   -11536938.83049  -8970130.95646  22281211.228    22281216.185
 03  6 15  0 17  0.0000000  0  6G20G25G 1G16G 2G11
  21219544.336   -18948070.01549 -14748285.90847  21219543.506    21219548.570
  21406825.960   -19004802.65349 -14798320.46247  21406825.723    21406830.422
  22610329.711   -11666443.01949  -9061255.33546  22610329.155    22610335.817
  23239703.184    -8163146.54349  -6347041.10645  23239702.689    23239709.586
  23644434.795    -6241100.99449  -4854230.63045  23644434.029    23644443.111
  22293734.564   -11471130.21749  -8918851.53646  22293734.229    22293739.168
 03  6 15  0 17 30.0000000  0  6G20G25G 1G16G 2G11
  21207317.291   -19012323.44849 -14798353.48647  21207316.470    21207321.495
  21418078.978   -18945667.59849 -14752241.20247  21418078.752    21418083.435
  22599489.420   -11723408.87449  -9105644.25846  22599488.830    22599495.449
  23223804.123    -8246696.03149  -6412144.48946  23223803.684    23223810.489
  23628565.706    -6324492.16249  -4919210.54845  23628565.075    23628574.116
  22306322.302   -11404981.32349  -8867306.97846  22306321.975    22306326.947
 03  6 15  0 18  0.0000000  0  6G20G25G 1G16G 2G11
  21195149.416   -19076265.97849 -14848178.80347  21195148.584    21195153.607
  21429394.230   -18886205.78549 -14705907.32847  21429393.979    21429398.669
  22588673.222   -11780247.89749  -9149934.33346  22588672.637    22588679.234
  23207941.217    -8330056.04549  -6477100.22646  23207940.827    23207947.507
  23612712.220    -6407801.78549  -4984126.91345  23612711.531    23612720.623
  22318974.156   -11338495.39749  -8815499.79046  22318973.796    22318978.839
 03  6 15  0 18 30.0000000  0  6G20G25G 1G16G 2G11
  21183041.272   -19139894.54649 -14897759.47647  21183040.426    21183045.456
  21440771.361   -18826418.68049 -14659319.97847  21440771.113    21440775.845
  22577881.305   -11836959.27449  -9194124.95446  22577880.709    22577887.377
  23192115.035    -8413222.63649  -6541905.24345  23192114.593    23192121.241
  23596874.803    -6491026.43949  -5048977.09245  23596874.094    23596883.253
  22331689.873   -11271673.91349  -8763431.13546  22331689.543    22331694.590
 03  6 15  0 19  0.0000000  0  6G20G25G 1G16G 2G11
  21170993.154   -19203207.61249 -14947094.30347  21170992.327    21170997.346
  21452209.855   -18766308.94149 -14612481.22847  21452209.624    21452214.437
  22567113.565   -11893544.07149  -9238216.93746  22567112.933    22567119.638
  23176325.977    -8496193.39149  -6606557.67145  23176325.494    23176332.268
  23581054.109    -6574164.08849  -5113759.47845  23581053.297    23581062.412
  22344468.833   -11204520.26449  -8711103.65046  22344468.506    22344473.539
 03  6 15  0 19 30.0000000  0  6G20G25G 1G16G 2G11
  21159005.523   -19266202.72249 -14996181.37647  21159004.696    21159009.714
  21463709.304   -18705878.75049 -14565392.77447  21463709.073    21463713.968
  22556369.862   -11950002.30649  -9282210.31146  22556369.230    22556375.923
  23160574.736    -8578965.07949  -6671054.97245  23160574.349    23160581.176
  23565250.246    -6657212.24649  -5178472.13445  23565249.578    23565258.660
  22357310.586   -11137037.14749  -8658519.44446  22357310.196    22357315.159
 03  6 15  0 20  0.0000000  0  6G20G25G 1G16G 2G11
  21147078.936   -19328877.22149 -15045018.62347  21147078.122    21147083.082
  21475269.442   -18645129.88549 -14518055.99747  21475269.200    21475274.115
  22545650.295   -12006333.85949  -9326104.97846  22545649.721    22545656.303
  23144862.290    -8661534.16949  -6735394.42745  23144861.926    23144868.616
  23549464.092    -6740167.64349  -5243112.50345  23549463.426    23549472.492
  22370214.506   -11069226.69949  -8605680.17046  22370214.113    22370219.101
 03  6 15  0 20 30.0000000  0  6G20G25G 1G16G 2G11
  21135213.621   -19391230.02649 -15093605.19947  21135212.797    21135217.701
  21486889.750   -18584064.99549 -14470472.97447  21486889.496    21486894.413
  22534954.641   -12062539.92149  -9369901.85346  22534954.076    22534960.529
  23129188.823    -8743898.68749  -6799574.46246  23129188.366    23129195.060
  23533696.045    -6823028.61649  -5307679.30945  23533695.372    23533704.337
  22383179.983   -11001092.53549  -8552588.64346  22383179.617    22383184.604
 03  6 15  0 21  0.0000000  0  6G20G25G 1G16G 2G11
  21123409.932   -19453258.79749 -15141939.28447  21123409.098    21123413.980
  21498569.590   -18522686.96049 -14422645.93447  21498569.320    21498574.192
  22524282.815   -12118620.79249  -9413601.17346  22524282.234    22524288.619
  23113554.814    -8826055.57049  -6863592.70246  23113554.329    23113561.038
  23517946.480    -6905792.77449  -5372170.67745  23517945.785    23517954.588
  22396206.514   -10932637.70849  -8499247.25046  22396206.149    22396211.072
 03  6 15  0 21 30.0000000  0  6G20G25G 1G16G 2G11
  21111668.427   -19514960.61749 -15190018.59647  21111667.597    21111672.458
  21510308.849   -18460996.74649 -14374575.64347  21510308.613    21510313.385
  22513634.924   -12174575.62449  -9457202.28346  22513634.335    22513640.700
  23097961.120    -8908000.78449  -6927446.00946  23097960.664    23097967.275
  23502215.960    -6988456.59049  -5436583.86545  23502215.226    23502223.987
  22409293.780   -10863863.71449  -8445657.14446  22409293.409    22409298.396
 03  6 15  0 22  0.0000000  0  6G20G25G 1G16G 2G11
  21099989.489   -19576333.61849 -15237841.69347  21099988.682    21099993.550
  21522107.083   -18398996.90149 -14326264.08547  21522106.835    21522111.517
  22503010.879   -12230405.26549  -9500705.84346  22503010.300    22503016.626
  23082408.126    -8989731.77349  -6991132.38246  23082407.692    23082414.242
  23486504.849    -7071017.89849  -5500917.17045  23486504.072    23486512.887
  22422441.020   -10794774.32049  -8391821.28046  22422440.667    22422445.721
 03  6 15  0 22 30.0000000  0  6G20G25G 1G16G 2G11
  21088373.616   -19637375.33549 -15285406.64547  21088372.813    21088377.736
  21533963.807   -18336689.42249 -14277712.80947  21533963.547    21533968.216
  22492410.658   -12286109.73449  -9544111.86246  22492410.029    22492416.320
  23066896.605    -9071245.53049  -7054649.49546  23066896.080    23066902.589
  23470813.759    -7153473.84849  -5565168.40245  23470813.085    23470821.883
  22435647.932   -10725371.65049  -8337741.31746  22435647.554    22435652.665
 03  6 15  0 23  0.0000000  0  6G20G25G 1G16G 2G11
  21076821.319   -19698082.97749 -15332711.27347  21076820.511    21076825.440
  21545878.741   -18274075.84549 -14228923.02647  21545878.489    21545883.221
  22481834.305   -12341688.60349  -9587420.02746  22481833.701    22481839.928
  23051426.927    -9152538.31749  -7117994.41646  23051426.460    23051432.977
  23455143.443    -7235821.45249  -5629335.19245  23455142.673    23455151.487
  22448914.006   -10655657.86249  -8283418.91346  22448913.610    22448918.834
 03  6 15  0 23 30.0000000  0  6G20G25G 1G16G 2G11
  21065332.960   -19758454.71949 -15379754.15747  21065332.144    21065337.060
  21557851.384   -18211158.91849 -14179896.85847  21557851.130    21557855.922
  22471281.734   -12397142.43449  -9630630.74746  22471281.136    22471287.340
  23035999.888    -9233607.32149  -7181164.95746  23035999.460    23036005.979
  23439494.101    -7318058.26649  -5693415.64845  23439493.386    23439502.218
  22462238.685   -10585636.41749  -8228856.78046  22462238.286    22462243.506
 03  6 15  0 24  0.0000000  0  6G20G25G 1G16G 2G11
  21053909.074   -19818487.99649 -15426533.31247  21053908.233    21053913.080
  21569881.423   -18147940.58249 -14130635.82847  21569881.162    21569885.997
  22460753.008   -12452471.25649  -9673744.07046  22460752.414    22460758.617
  23020616.090    -9314449.24149  -7244158.55246  23020615.659    23020622.150
  23423866.565    -7400181.44649  -5757407.57945  23423865.805    23423874.623
  22475621.494   -10515309.58149  -8174056.68746  22475621.071    22475626.263
 03  6 15  0 24 30.0000000  0  6G20G25G 1G16G 2G11
  21042549.888   -19878180.94149 -15473047.27547  21042549.036    21042553.839
  21581968.339   -18084423.29049 -14081141.84447  21581968.095    21581972.949
  22450247.928   -12507675.57249  -9716760.36646  22450247.307    22450253.497
  23005276.098    -9395061.44049  -7306973.14246  23005275.599    23005282.059
  23408261.173    -7482188.83149  -5821309.26946  23408260.279    23408268.989
  22489061.813   -10444680.48049  -8119021.06346  22489061.397    22489066.584
 03  6 15  0 25  0.0000000  0  6G20G25G 1G16G 2G11
  21031255.825   -19937531.45449 -15519294.40947  21031254.975    21031259.791
  21594111.747   -18020609.44549 -14031416.78547  21594111.518    21594116.349
  22439766.477   -12562755.94449  -9759680.08746  22439765.893    22439771.970
  22989980.348    -9475441.04549  -7369606.49846  22989979.908    22989986.268
  23392678.126    -7564078.10849  -5885118.94646  23392677.216    23392685.836
  22502558.997   -10373752.10549  -8063752.23446  22502558.633    22502563.797
 03  6 15  0 25 30.0000000  0  6G20G25G 1G16G 2G11
  21020027.304   -19996537.48249 -15565273.11947  21020026.459    21020031.278
  21606311.157   -17956501.39649 -13981462.47447  21606310.912    21606315.726
  22429308.592   -12617712.37249  -9802503.22546  22429307.974    22429314.048
  22974729.394    -9555585.08049  -7432056.29246  22974728.946    22974735.245
  23377118.049    -7645846.61149  -5948834.50146  23377117.168    23377125.695
  22516112.664   -10302527.13249  -8008252.29446  22516112.340    22516117.495
 03  6 15  0 26  0.0000000  0  6G20G25G 1G16G 2G11
  21008864.948   -20055195.83449 -15610980.90847  21008864.116    21008868.919
  21618566.303   -17892100.12949 -13931279.68347  21618566.068    21618570.872
  22418874.291   -12672544.20549  -9845229.26246  22418873.707    22418879.887
  22959524.084    -9635489.46349  -7494319.35846  22959523.593    22959529.839
  23361581.581    -7727490.61549  -6012453.06046  23361580.705    23361589.211
  22529722.483   -10231007.61249  -7952522.83846  22529722.078    22529727.281
 03  6 15  0 26 30.0000000  0  6G20G25G 1G16G 2G11
  20997769.202   -20113504.36449 -15656416.10847  20997768.387    20997773.155
  21630876.775   -17827407.97649 -13880870.22247  21630876.556    21630881.366
  22408463.750   -12727251.78649  -9887858.49946  22408463.144    22408469.335
  22944364.986    -9715151.42449  -7556393.51446  22944364.447    22944370.530
  23346069.258    -7809007.81449  -6075972.79846  23346068.354    23346076.839
  22543387.740   -10159196.60649  -7896566.24146  22543387.308    22543392.506
 03  6 15  0 27  0.0000000  0  6G20G25G 1G16G 2G11
  20986740.286   -20171461.68449 -15701577.63747  20986739.463    20986744.199
  21643242.108   -17762427.72049 -13830236.26647  21643241.905    21643246.699
  22398076.711   -12781836.06249  -9930391.64646  22398076.085    22398082.322
  22929252.284    -9794568.60849  -7618276.94146  22929251.740    22929257.876
  23330581.411    -7890396.13949  -6139392.11646  23330580.556    23330589.097
  22557107.876   -10087097.24249  -7840384.94046  22557107.420    22557112.596
 03  6 15  0 27 30.0000000  0  6G20G25G 1G16G 2G11
  20975778.943   -20229064.04949 -15746462.57147  20975778.111    20975782.847
  21655662.110   -17697160.25349 -13779378.51147  21655661.907    21655666.704
  22387713.260   -12836295.86749  -9972827.80546  22387712.669    22387718.922
  22914186.921    -9873736.42549  -7679966.06146  22914186.459    22914192.678
  23315118.614    -7971651.64749  -6202707.95146  23315117.900    23315126.582
  22570882.575   -10014710.91449  -7783980.05146  22570882.133    22570887.263
 03  6 15  0 28  0.0000000  0  6G20G25G 1G16G 2G11
  20964885.308   -20286310.32349 -15791070.03847  20964884.483    20964889.216
  21668136.143   -17631608.98749 -13728299.61847  21668135.941    21668140.667
  22377373.325   -12890632.39549 -10015167.91046  22377372.708    22377378.950
  22899169.616    -9952653.07049  -7741459.44546  22899169.125    22899175.301
  23299681.508    -8052772.91449  -6265919.18245  23299680.817    23299689.595
  22584711.049    -9942041.85049  -7727354.86346  22584710.640    22584715.762
 03  6 15  0 28 30.0000000  0  6G20G25G 1G16G 2G11
  20954059.726   -20343198.95049 -15835398.81147  20954058.897    20954063.646
  21680663.703   -17565776.50449 -13677001.59547  21680663.489    21680668.171
  22367056.661   -12944846.47749 -10057412.59246  22367056.059    22367062.314
  22884200.508   -10031316.29349  -7802755.37946  22884199.978    22884206.158
  23284270.544    -8133757.89949  -6329024.21345  23284269.806    23284278.543
  22598592.637    -9869093.61749  -7670512.13846  22598592.240    22598597.368
 03  6 15  0 29  0.0000000  0  6G20G25G 1G16G 2G11
  20943302.626   -20399727.59349 -15879447.08147  20943301.814    20943306.599
  21693244.341   -17499664.93049 -13625486.09447  21693244.130    21693248.810
  22356763.333   -12998938.15149 -10099561.88646  22356762.735    22356768.975
  22869280.091   -10109722.62049  -7863851.11546  22869279.588    22869285.874
  23268886.194    -8214603.69449  -6392020.80146  23268885.357    23268893.951
  22612526.948    -9795868.45649  -7613453.61746  22612526.544    22612531.671
 03  6 15  0 29 30.0000000  0  6G20G25G 1G16G 2G11
  20932614.599   -20455893.48649 -15923212.68447  20932613.773    20932618.574
  21705877.712   -17433276.33749 -13573754.73747  21705877.484    21705882.142
  22346493.377   -13052907.36549 -10141615.76346  22346492.735    22346498.959
  22854409.167   -10187868.90449  -7924744.22746  22854408.752    22854415.090
  23253528.714    -8295307.59749  -6454906.82246  23253527.858    23253536.381
  22626513.425    -9722369.03049  -7556181.38046  22626513.001    22626518.223
 03  6 15  0 30  0.0000000  0  6G20G25G 1G16G 2G11
  20921996.117   -20511693.91849 -15966693.51447  20921995.304    20922000.087
  21718563.568   -17366611.85049 -13521808.39647  21718563.331    21718567.995
  22336246.656   -13106753.57749 -10183573.80146  22336246.069    22336252.253
  22839588.607   -10265751.25349  -7985431.67446  22839588.182    22839594.470
  23238198.827    -8375866.26049  -6517679.68346  23238198.011    23238206.423
  22640551.702    -9648597.58349  -7498697.17146  22640551.322    22640556.585
 03  6 15  0 30 30.0000000  0  6G20G25G 1G16G 2G11
  20911447.787   -20567125.78549 -16009887.14847  20911446.957    20911451.715
  21731301.683   -17299672.78849 -13469648.09747  21731301.433    21731306.104
  22326023.515   -13160476.12449 -10225435.47546  22326022.986    22326029.106
  22824818.927   -10343365.93149  -8045910.55246  22824818.437    22824824.770
  23222897.194    -8456276.13049  -6580336.59446  23222896.464    23222904.748
  22654641.368    -9574556.01849  -7441002.48446  22654641.009    22654646.236
 03  6 15  0 31  0.0000000  0  6G20G25G 1G16G 2G11
  20900969.657   -20622188.62949 -16052793.22947  20900968.840    20900973.597
  21744091.349   -17232462.73149 -13417276.63847  21744091.099    21744095.752
  22315823.600   -13214076.76049 -10267202.14946  22315823.047    22315829.214
  22810100.507   -10420711.45549  -8106179.70946  22810100.026    22810106.272
  23207624.139    -8536536.18649  -6642876.75746  23207623.327    23207631.532
  22668781.583    -9500248.86149  -7383100.85846  22668781.239    22668786.420
 03  6 15  0 31 30.0000000  0  6G20G25G 1G16G 2G11
  20890562.322   -20676879.39649 -16095409.38447  20890561.495    20890566.268
  21756932.202   -17164983.45049 -13364695.40047  21756931.939    21756936.615
  22305646.964   -13267554.94249 -10308873.42146  22305646.402    22305652.595
  22795433.893   -10497784.31949  -8166236.40146  22795433.470    22795439.671
  23192380.177    -8616643.07449  -6705297.59046  23192379.370    23192387.509
  22682971.930    -9425678.03549  -7324993.77046  22682971.585    22682976.780
 03  6 15  0 32  0.0000000  0  6G20G25G 1G16G 2G11
  20880226.142   -20731196.29849 -16137734.21447  20880225.331    20880230.096
  21769823.812   -17097237.40549 -13311906.29047  21769823.575    21769828.233
  22295493.504   -13320911.15849 -10350449.65846  22295493.002    22295499.188
  22780819.927   -10574581.63549  -8226078.37946  22780819.447    22780825.494
  23177165.695    -8696594.58849  -6767597.34246  23177164.903    23177173.121
  22697211.927    -9350846.75249  -7266683.72346  22697211.577    22697216.731
 03  6 15  0 32 30.0000000  0  6G20G25G 1G16G 2G11
  20869961.714   -20785136.24949 -16179765.32347  20869960.897    20869965.632
  21782765.965   -17029226.07049 -13258910.45447  21782765.725    21782770.366
  22285363.425   -13374145.02249 -10391930.54146  22285362.924    22285369.061
  22766258.969   -10651099.77749  -8285702.82646  22766258.477    22766264.436
  23161981.338    -8776387.44849  -6829773.45746  23161980.585    23161988.871
  22711501.096    -9275757.38749  -7208172.58046  22711500.666    22711505.862
 03  6 15  0 33  0.0000000  0  6G20G25G 1G16G 2G11
  20859769.077   -20838698.73549 -16221502.30647  20859768.283    20859773.012
  21795757.965   -16960952.79049 -13205710.51547  21795757.721    21795762.408
  22275256.367   -13427257.97949 -10433317.21346  22275255.781    22275261.967
  22751751.385   -10727337.01449  -8345108.39346  22751750.871    22751756.845
  23146827.490    -8856020.47749  -6891825.03846  23146826.775    23146835.096
  22725838.419    -9200413.96949  -7149463.46546  22725838.030    22725843.340
 03  6 15  0 33 30.0000000  0  6G20G25G 1G16G 2G11
  20849648.764   -20891880.96549 -16262942.98247  20849647.999    20849652.742
  21808799.446   -16892419.60449 -13152308.05247  21808799.182    21808803.897
  22265172.283   -13480249.73549 -10474609.45146  22265171.772    22265177.948
  22737297.856   -10803290.20549  -8404292.61946  22737297.386    22737303.363
  23131704.694    -8935490.79049  -6953749.83646  23131703.985    23131712.232
  22740223.628    -9124818.99749  -7090558.34546  22740223.271    22740228.622
 03  6 15  0 34  0.0000000  0  6G20G25G 1G16G 2G11
  20839601.298   -20944680.63749 -16304085.56447  20839600.535    20839605.257
  21821890.044   -16823628.09749 -13098704.29047  21821889.790    21821894.538
  22255111.400   -13533120.08949 -10515807.08847  22255110.887    22255117.065
  22722899.126   -10878955.86749  -8463252.80046  22722898.625    22722904.535
  23116613.469    -9014795.43049  -7015545.53546  23116612.722    23116620.771
  22754656.277    -9048975.08649  -7031459.23846  22754655.909    22754661.245
 03  6 15  0 34 30.0000000  0  6G20G25G 1G16G 2G11
  20829627.169   -20997095.20149 -16344928.06047  20829626.390    20829631.064
  21835029.383   -16754580.36449 -13044900.87447  21835029.144    21835033.891
  22245073.605   -13585869.18049 -10556910.24947  22245073.086    22245079.228
  22708555.746   -10954330.72949  -8521986.38646  22708555.275    22708560.986
  23101554.260    -9093931.55049  -7077209.93246  23101553.508    23101561.461
  22769135.859    -8972884.73849  -6972168.10546  22769135.426    22769140.811
 03  6 15  0 35  0.0000000  0  6G20G25G 1G16G 2G11
  20819726.705   -21049122.45949 -16385468.75947  20819725.904    20819730.575
  21848217.074   -16685278.55549 -12990899.48347  21848216.824    21848221.590
  22235058.826   -13638497.10749 -10597918.99247  22235058.290    22235064.426
  22694268.121   -11029412.00449  -8580491.20046  22694267.686    22694273.362
  23086527.752    -9172896.40349  -7138740.87146  23086526.940    23086534.790
  22783661.684    -8896551.03249  -6912687.36146  22783661.339    22783666.712
 03  6 15  0 35 30.0000000  0  6G20G25G 1G16G 2G11
  20809900.251   -21100760.48949 -16425706.16947  20809899.476    20809904.168
  21861452.641   -16615725.06549 -12936701.97847  21861452.402    21861457.201
  22225067.084   -13691003.97749 -10638833.39447  22225066.567    22225072.677
  22680036.988   -11104196.68949  -8638764.90546  22680036.577    22680042.297
  23071534.392    -9251687.51449  -7200136.41246  23071533.510    23071541.301
  22798233.333    -8819976.86549  -6853019.23046  22798232.971    22798238.316
 03  6 15  0 36  0.0000000  0  6G20G25G 1G16G 2G11
  20800148.367   -21152006.91949 -16465638.44347  20800147.597    20800152.294
  21874735.763   -16545921.85049 -12882309.88047  21874735.516    21874740.280
  22215098.346   -13743390.01849 -10679653.64947  22215097.798    22215103.840
  22665862.944   -11178681.80449  -8696805.17446  22665862.500    22665868.243
  23056574.356    -9330302.36349  -7261394.63446  23056573.516    23056581.328
  22812850.262    -8743165.01649  -6793165.90146  22812849.902    22812855.137
 03  6 15  0 36 30.0000000  0  6G20G25G 1G16G 2G11
  20790471.410   -21202859.69049 -16505263.96847  20790470.607    20790475.299
  21888065.998   -16475871.20049 -12827724.97747  21888065.747    21888070.453
  22205152.587   -13795655.39449 -10720379.88247  22205152.013    22205157.989
  22651746.394   -11252864.50149  -8754609.81146  22651745.963    22651751.694
  23041648.463    -9408738.29949  -7322513.43246  23041647.570    23041655.329
  22827511.767    -8666118.51149  -6733129.72346  22827511.412    22827516.590
 03  6 15  0 37  0.0000000  0  6G20G25G 1G16G 2G11
  20780869.858   -21253316.15549 -16544580.67947  20780869.034    20780873.722
  21901443.019   -16405574.59349 -12772948.41947  21901442.757    21901447.501
  22195229.797   -13847799.73149 -10761011.79647  22195229.263    22195235.194
  22637688.005   -11326741.20749  -8812176.00346  22637687.586    22637693.324
  23026757.081    -9486992.25449  -7383490.44246  23026756.218    23026763.919
  22842217.445    -8588839.53049  -6672912.39746  22842217.122    22842222.330
 03  6 15  0 37 30.0000000  0  6G20G25G 1G16G 2G11
  20771344.034   -21303374.45149 -16583587.12447  20771343.208    20771347.925
  21914866.371   -16335034.39649 -12717982.05247  21914866.124    21914870.884
  22185330.003   -13899823.53849 -10801549.79147  22185329.416    22185335.348
  22623688.360   -11400309.52549  -8869501.88546  22623687.947    22623693.646
  23011900.806    -9565062.04649  -7444323.93646  23011899.944    23011907.598
  22856966.732    -8511331.54549  -6612516.61846  22856966.372    22856971.706
 03  6 15  0 38  0.0000000  0  6G20G25G 1G16G 2G11
  20761894.488   -21353031.98749 -16622281.29048  20761893.680    20761898.397
  21928335.710   -16264252.56849 -12662827.40647  21928335.419    21928340.267
  22175453.134   -13951726.49449 -10841993.61247  22175452.564    22175458.568
  22609748.048   -11473565.93249  -8926584.72946  22609747.707    22609753.417
  22997080.148    -9642944.76149  -7505011.67346  22997079.303    22997086.837
  22871759.204    -8433596.88049  -6551944.20246  22871758.801    22871764.225
 03  6 15  0 38 30.0000000  0  6G20G25G 1G16G 2G11
  20752521.521   -21402287.24749 -16660661.99248  20752520.719    20752525.438
  21941850.481   -16193231.71949 -12607486.50147  21941850.223    21941855.126
  22165599.146   -14003509.32249 -10882343.82447  22165598.595    22165604.552
  22595867.646   -11546508.37449  -8983422.93046  22595867.217    22595872.932
  22982295.513    -9720638.28449  -7565551.98546  22982294.689    22982302.102
  22886594.141    -8355638.98349  -6491197.85046  22886593.751    22886599.215
 03  6 15  0 39  0.0000000  0  6G20G25G 1G16G 2G11
  20743225.566   -21451137.71249 -16698727.27048  20743224.774    20743229.493
  21955410.514   -16121973.49349 -12551960.62947  21955410.246    21955415.152
  22155768.134   -14055171.60649 -10922600.11547  22155767.541    22155773.470
  22582047.623   -11619133.17049  -9040013.61446  22582047.124    22582052.893
  22967547.518    -9798139.43749  -7625942.39746  22967546.679    22967554.007
  22901471.000    -8277460.53949  -6430279.64046  22901470.682    22901476.169
 03  6 15  0 39 30.0000000  0  6G20G25G 1G16G 2G11
  20734007.087   -21499581.17949 -16736475.41748  20734006.296    20734010.997
  21969015.237   -16050480.21949 -12496251.60547  21969014.987    21969019.866
  22145960.060   -14106713.49649 -10962762.59547  22145959.461    22145965.328
  22568288.586   -11691437.24849  -9096354.39046  22568288.109    22568293.847
  22952836.597    -9875445.77249  -7686181.00246  22952835.673    22952842.921
  22916389.532    -8199063.85449  -6369191.37346  22916389.154    22916394.576
 03  6 15  0 40  0.0000000  0  6G20G25G 1G16G 2G11
  20724866.332   -21547616.21849 -16773905.30348  20724865.534    20724870.227
  21982664.150   -15978754.67049 -12440361.59047  21982663.878    21982668.772
  22136174.656   -14158135.99049 -11002832.02647  22136174.026    22136179.937
  22554590.982   -11763418.64749  -9152443.72546  22554590.462    22554596.163
  22938163.031    -9952555.41149  -7746266.33446  22938162.141    22938169.334
  22931348.815    -8120453.09449  -6307936.30246  22931348.418    22931353.711
 03  6 15  0 40 30.0000000  0  6G20G25G 1G16G 2G11
  20715803.864   -21595239.79649 -16811014.56748  20715803.048    20715807.751
  21996357.041   -15906798.07949 -12384291.54147  21996356.799    21996361.668
  22126412.125   -14209437.94449 -11042807.54747  22126411.554    22126417.537
  22540955.536   -11835073.40549  -9208278.54446  22540955.002    22540960.596
  22923527.445   -10029464.95049  -7806195.76446  22923526.613    22923533.866
  22946348.416    -8041629.93049  -6246515.71746  22946348.004    22946353.333
 03  6 15  0 41  0.0000000  0  6G20G25G 1G16G 2G11
  20706820.076   -21642449.75649 -16847801.53648  20706819.277    20706823.952
  22010093.556   -15834612.07649 -12328042.72947  22010093.349    22010098.243
  22116672.530   -14260619.47649 -11082689.22547  22116672.007    22116677.998
  22527382.770   -11906398.55149  -9263856.52146  22527382.208    22527387.738
  22908930.595   -10106171.59149  -7865967.07146  22908929.758    22908937.015
  22961387.790    -7962597.26049  -6184931.88346  22961387.363    22961392.772
 03  6 15  0 41 30.0000000  0  6G20G25G 1G16G 2G11
  20697915.297   -21689244.78049 -16884265.17248  20697914.492    20697919.158
  22023873.149   -15762199.95949 -12271617.72647  22023872.940    22023877.867
  22106955.738   -14311681.65849 -11122477.91147  22106955.163    22106961.150
  22513873.100   -11977391.93349  -9319175.98246  22513872.551    22513878.070
  22894372.718   -10182673.69649  -7925579.00946  22894371.847    22894379.066
  22976466.319    -7883359.05249  -6123187.89946  22976465.914    22976471.348
 03  6 15  0 42  0.0000000  0  6G20G25G 1G16G 2G11
  20689089.870   -21735622.78049 -16920403.85548  20689089.042    20689093.739
  22037695.459   -15689563.40349 -12215017.83347  22037695.201    22037700.168
  22097261.699   -14362624.44449 -11162173.56547  22097261.115    22097267.027
  22500427.136   -12048050.85649  -9374234.82646  22500426.599    22500432.037
  22879854.172   -10258968.78749  -7985029.65046  22879853.337    22879860.531
  22991583.516    -7803917.77849  -6061285.69046  22991583.107    22991588.587
 03  6 15  0 42 30.0000000  0  6G20G25G 1G16G 2G11
  20680344.191   -21781581.46649 -16956215.80348  20680343.366    20680348.053
  22051560.018   -15616704.71349 -12158244.85147  22051559.753    22051564.764
  22087590.261   -14413448.01049 -11201776.30647  22087589.640    22087595.572
  22487045.488   -12118372.37549  -9429030.76546  22487044.903    22487050.272
  22865375.561   -10335054.13249  -8044316.84346  22865374.730    22865381.975
  23006738.928    -7724276.33049  -5999227.47046  23006738.516    23006743.919
 03  6 15  0 43  0.0000000  0  6G20G25G 1G16G 2G11
  20671678.793   -21827118.41949 -16991699.12848  20671677.965    20671682.635
  22065466.504   -15543625.66449 -12101300.15847  22065466.246    22065471.285
  22077941.529   -14464151.83749 -11241285.75747  22077940.930    22077946.903
  22473728.681   -12188352.89949  -9483560.98746  22473728.042    22473733.349
  22850937.347   -10410926.58749  -8103438.15946  22850936.516    22850943.880
  23021931.912    -7644437.10149  -5937015.14346  23021931.538    23021936.866
 03  6 15  0 43 30.0000000  0  6G20G25G 1G16G 2G11
  20663094.091   -21872231.20449 -17026851.93548  20663093.238    20663097.880
  22079414.521   -15470328.48849 -12044185.49947  22079414.249    22079419.315
  22068315.711   -14514735.89049 -11280701.87347  22068315.093    22068321.090
  22460477.199   -12257989.46649  -9537823.18846  22460476.576    22460481.895
  22836540.202   -10486583.59049  -8162391.58046  22836539.393    22836546.760
  23037162.016    -7564402.92249  -5874650.91646  23037161.565    23037166.995
 03  6 15  0 44  0.0000000  0  6G20G25G 1G16G 2G11
  20654590.385   -21916918.52349 -17061673.21548  20654589.525    20654594.135
  22093403.653   -15396815.40149 -11986902.59947  22093403.345    22093408.458
  22058712.544   -14565200.77049 -11320025.12447  22058711.892    22058717.881
  22447291.591   -12327279.92749  -9591815.69146  22447290.954    22447296.273
  22822184.607   -10562023.07349  -8221175.52546  22822183.741    22822191.043
  23052428.450    -7484177.21849  -5812137.45146  23052427.957    23052433.421
 03  6 15  0 44 30.0000000  0  6G20G25G 1G16G 2G11
  20646168.239   -21961177.15949 -17096160.45648  20646167.396    20646171.985
  22107433.564   -15323087.40849 -11929452.23847  22107433.293    22107438.446
  22049132.127   -14615545.66149 -11359254.88047  22049131.554    22049137.564
  22434172.615   -12396220.42249  -9645535.49846  22434171.966    22434177.262
  22807871.001   -10637241.64149  -8279787.31046  22807870.110    22807877.377
  23067730.847    -7403761.94749  -5749476.28346  23067730.403    23067735.900
 03  6 15  0 45  0.0000000  0  7G20G25G 1G16G 2G11G13
  20637828.048   -22005005.13849 -17130312.11148  20637827.190    20637831.818
  22121503.969   -15249146.78749 -11871836.19147  22121503.722    22121508.901
  22039574.659   -14665770.54449 -11398391.12747  22039574.060    22039580.040
  22421120.781   -12464808.04349  -9698980.33146  22421120.142    22421125.443
  22793599.812   -10712236.59549  -8338224.86646  22793598.930    22793606.308
  23083068.794    -7323160.13449  -5686669.74846  23083068.404    23083073.954
                  -1575184.34649  -1218393.88244                  24592468.630
 03  6 15  0 45 30.0000000  0  7G20G25G 1G16G 2G11G13
  20629569.702   -22048403.06049 -17164128.66148  20629568.877    20629573.458
  22135614.000   -15174998.25649 -11814058.14047  22135613.773    22135618.910
  22030039.535   -14715878.07349 -11437435.92747  22030038.951    22030044.831
  22408136.081   -12533042.51749  -9752149.98946  22408135.491    22408140.821
  22779371.149   -10787008.11049  -8396488.30246  22779370.320    22779377.693
  23098441.411    -7242377.06349  -5623721.95546  23098440.962    23098446.565
  24578036.892    -1650997.95649  -1277469.30744  24578035.370    24578045.292
 03  6 15  0 46  0.0000000  0  7G20G25G 1G16G 2G11G13
  20621393.481   -22091369.25649 -17197608.80748  20621392.667    20621397.222
  22149763.186   -15100644.41349 -11756120.10547  22149762.918    22149767.981
  22020526.583   -14765868.85049 -11476389.74847  22020525.987    22020531.884
  22395219.008   -12600921.68949  -9805042.79946  22395218.403    22395223.738
  22765185.456   -10861553.99349  -8454575.92046  22765184.631    22765192.021
  23113847.840    -7161416.45049  -5560635.84646  23113847.376    23113852.941
  24563616.438    -1726776.68749  -1336517.57644  24563616.102    24563623.422
 03  6 15  0 46 30.0000000  0  7G20G25G 1G16G 2G11G13
  20613300.244   -22133899.43949 -17230749.19748  20613299.420    20613303.952
  22163951.523   -15026084.87549 -11698021.78947  22163951.216    22163956.198
  22011036.308   -14815740.48849 -11515250.73747  22011035.707    22011041.653
  22382370.598   -12668440.28249  -9857654.63046  22382369.968    22382375.318
  22751043.620   -10935869.33249  -8512483.90046  22751042.811    22751050.194
  23129287.921    -7080278.56549  -5497411.59646  23129287.448    23129293.076
  24549203.235    -1802518.00049  -1395536.65244  24549201.831    24549209.797
 03  6 15  0 47  0.0000000  0  7G20G25G 1G16G 2G11G13
  20605290.381   -22175991.31049 -17263548.04648  20605289.565    20605294.097
  22178178.665   -14951320.81249 -11639764.10047  22178178.366    22178183.319
  22001568.674   -14865492.84549 -11554018.78247  22001568.111    22001574.046
  22369591.460   -12735595.01949  -9909982.93646  22369590.825    22369596.099
  22736946.167   -11009951.33349  -8570210.06346  22736945.350    22736952.775
  23144761.199    -6998965.82649  -5434051.09246  23144760.756    23144766.479
  24534797.245    -1878221.74149  -1454526.46545  24534796.473    24534804.024
 03  6 15  0 47 30.0000000  0  7G20G25G 1G16G 2G11G13
  20597364.635   -22217641.45049 -17296002.69048  20597363.812    20597368.339
  22192444.361   -14876353.82149 -11581348.29347  22192444.110    22192449.049
  21992123.964   -14915124.67849 -11592692.91147  21992123.420    21992129.354
  22356882.308   -12802382.16549  -9962024.81246  22356881.633    22356886.906
  22722893.793   -11083796.53349  -8627751.70946  22722892.959    22722900.454
  23160267.364    -6917480.33749  -5370555.98546  23160266.971    23160272.698
  24520398.793    -1953886.89049  -1513486.18344  24520398.651    24520405.306
 03  6 15  0 48  0.0000000  0  7G20G25G 1G16G 2G11G13
  20589523.183   -22258848.64249 -17328112.18448  20589522.350    20589526.903
  22206748.261   -14801186.68149 -11522776.51847  22206747.988    22206752.881
  21982702.067   -14964636.69549 -11631273.67847  21982701.562    21982707.456
  22344243.435   -12868799.34649 -10013778.41046  22344242.813    22344248.063
  22708886.835   -11157402.93249  -8685107.26746  22708886.006    22708893.541
  23175805.836    -6835825.35049  -5306928.79746  23175805.414    23175811.226
  24506007.454    -2029513.95549  -1572416.26745  24506007.295    24506013.740
 03  6 15  0 48 30.0000000  0  7G20G25G 1G16G 2G11G13
  20581766.398   -22299610.71949 -17359874.83348  20581765.560    20581770.144
  22221089.848   -14725821.11849 -11464050.12847  22221089.580    22221094.426
  21973303.054   -15014028.78749 -11669761.00447  21973302.539    21973308.440
  22331675.558   -12934844.00249 -10065241.71946  22331674.933    22331680.165
  22694925.960   -11230767.83049  -8742274.65146  22694925.131    22694932.595
  23191375.931    -6754003.74349  -5243171.77645  23191375.574    23191381.420
  24491623.312    -2105103.08949  -1631316.76745  24491623.242    24491629.657
 03  6 15  0 49  0.0000000  0  7G20G25G 1G16G 2G11G13
  20574094.481   -22339926.66749 -17391289.85248  20574093.651    20574098.277
  22235468.636   -14650260.16349 -11405171.48047  22235468.366    22235473.195
  21963926.641   -15063302.08949 -11708155.75547  21963926.090    21963932.030
  22319178.991   -13000513.87649 -10116412.98546  22319178.334    22319183.556
  22681011.301   -11303889.62349  -8799252.58946  22681010.533    22681017.920
  23206977.134    -6672019.04849  -5179287.68245  23206976.803    23206982.627
  24477246.205    -2180655.06349  -1690188.30745  24477246.166    24477252.651
 03  6 15  0 49 30.0000000  0  7G20G25G 1G16G 2G11G13
  20566507.962   -22379794.00449 -17422355.30048  20566507.143    20566511.787
  22249884.326   -14574505.26449 -11346141.71247  22249884.076    22249888.929
  21954573.010   -15112456.09149 -11746457.54747  21954572.396    21954578.342
  22306754.118   -13065806.08649 -10167289.97946  22306753.576    22306758.784
  22667143.471   -11376765.47549  -8856038.88846  22667142.723    22667149.990
  23222608.996    -6589873.86149  -5115278.55146  23222608.712    23222614.361
  24462876.258    -2256169.38349  -1749030.51245  24462876.093    24462882.451
 03  6 15  0 50  0.0000000  0  7G20G25G 1G16G 2G11G13
  20559007.131   -22419211.37749 -17453070.12948  20559006.306    20559010.934
  22264336.364   -14498559.01449 -11286962.84047  22264336.141    22264341.059
  21945241.883   -15161491.47949 -11784666.92047  21945241.266    21945247.224
  22294401.657   -13130718.28649 -10217870.86546  22294401.147    22294406.329
  22653322.816   -11449393.63249  -8912632.18146  22653322.081    22653329.263
  23238270.732    -6507571.97749  -5051147.28646  23238270.390    23238275.933
  24448513.356    -2331646.94749  -1807844.05145  24448513.346    24448519.483
 03  6 15  0 50 30.0000000  0  7G20G25G 1G16G 2G11G13
  20551592.390   -22458176.14149 -17483432.27348  20551591.559    20551596.193
  22278824.577   -14422422.78449 -11227635.93847  22278824.381    22278829.358
  21935933.522   -15210407.54249 -11822783.31347  21935932.889    21935938.755
  22282122.192   -13195247.20049 -10268153.08646  22282121.678    22282126.846
  22639549.897   -11521770.95349  -8969030.02046  22639549.137    22639556.251
  23253961.788    -6425115.76249  -4986895.77246  23253961.337    23253966.939
  24434157.411    -2407086.89049  -1866628.30645  24434157.534    24434163.827
 03  6 15  0 51  0.0000000  0  7G20G25G 1G16G 2G11G13
  20544264.017   -22496686.84749 -17513440.60548  20544263.213    20544267.864
  22293348.504   -14346099.28249 -11168163.10647  22293348.286    22293353.332
  21926647.697   -15259204.66949 -11860807.02847  21926647.078    21926652.906
  22269916.127   -13259390.41449 -10318134.75946  22269915.609    22269920.775
  22625825.029   -11593895.34049  -9025230.77246  22625824.298    22625831.343
  23269681.496    -6342508.14349  -4922526.27546  23269681.095    23269686.711
  24419808.574    -2482490.19949  -1925384.00445  24419808.708    24419814.961
 03  6 15  0 51 30.0000000  0  7G20G25G 1G16G 2G11G13
  20537022.418   -22534741.57849 -17543093.63548  20537021.626    20537026.261
  22307907.643   -14269590.64149 -11108546.01247  22307907.427    22307912.517
  21917384.515   -15307882.79049 -11898738.00747  21917383.921    21917389.720
  22257783.962   -13323145.29249 -10367813.83746  22257783.398    22257788.572
  22612148.733   -11665764.11349  -9081232.33646  22612147.986    22612154.989
  23285429.425    -6259752.27249  -4858041.27345  23285429.023    23285434.781
  24405466.700    -2557856.69449  -1984110.98845  24405466.737    24405473.092
 03  6 15  0 52  0.0000000  0  7G20G25G 1G16G 2G11G13
  20529868.123   -22572337.79649 -17572389.38248  20529867.309    20529871.926
  22322501.824   -14192898.16649 -11048785.67447  22322501.574    22322506.662
  21908144.051   -15356441.52849 -11936575.96047  21908143.468    21908149.258
  22245726.233   -13386508.56049 -10417187.76846  22245725.685    22245730.881
  22598521.617   -11737374.28049  -9137032.39246  22598520.930    22598527.920
  23301205.106    -6176850.34249  -4793442.46046  23301204.702    23301210.517
  24391131.941    -2633185.82449  -2042808.88345  24391132.001    24391138.309
 03  6 15  0 52 30.0000000  0  7G20G25G 1G16G 2G11G13
  20522801.291   -22609474.24749 -17601326.87048  20522800.461    20522805.087
  22337130.473   -14116024.18349 -10988883.89747  22337130.236    22337135.266
  21898926.213   -15404881.54049 -11974321.40547  21898925.629    21898931.369
  22233743.454   -13449478.37149 -10466255.11346  22233742.930    22233748.056
  22584944.154   -11808724.14449  -9192629.62446  22584943.469    22584950.376
  23317008.002    -6093805.79749  -4728732.50846  23317007.581    23317013.544
  24376804.290    -2708478.11449  -2101478.07845  24376804.370    24376810.623
 03  6 15  0 53  0.0000000  0  7G20G25G 1G16G 2G11G13
  20515822.256   -22646149.25349 -17629904.78648  20515821.452    20515826.083
  22351793.143   -14038971.42249 -10928842.81447  22351792.896    22351797.913
  21889730.989   -15453203.09549 -12011974.54247  21889730.405    21889736.054
  22221836.139   -13512052.23649 -10515013.91446  22221835.513    22221840.553
  22571416.631   -11879811.68849  -9248022.43346  22571415.864    22571422.760
  23332837.446    -6010622.12449  -4663914.14846  23332837.033    23332843.041
  24362483.459    -2783734.05949  -2160118.99545  24362483.514    24362489.663
 03  6 15  0 53 30.0000000  0  7G20G25G 1G16G 2G11G13
  20508931.623   -22682359.81249 -17658120.80148  20508930.803    20508935.420
  22366489.722   -13961740.56049 -10868662.95747  22366489.472    22366494.440
  21880558.468   -15501404.89049 -12049534.36247  21880557.865    21880563.548
  22210004.745   -13574226.15049 -10563461.07346  22210004.154    22210009.182
  22557939.707   -11950633.01449  -9303207.81946  22557938.914    22557945.814
  23348693.061    -5927300.88349  -4598988.59246  23348692.646    23348698.710
  24348169.645    -2858952.42649  -2218730.59845  24348169.514    24348175.792
 03  6 15  0 54  0.0000000  0  7G20G25G 1G16G 2G11G13
  20502129.548   -22718105.14549 -17685974.30448  20502128.742    20502133.335
  22381219.594   -13884334.53649 -10808346.60947  22381219.334    22381224.306
  21871408.469   -15549487.95949 -12087001.65647  21871407.939    21871413.664
  22198249.756   -13635998.69849 -10611595.48346  22198249.192    22198254.211
  22544513.723   -12021186.84749  -9358184.75946  22544512.909    22544519.735
  23364574.215    -5843845.84449  -4533958.77846  23364573.752    23364579.766
  24333862.713    -2934134.35549  -2277313.82145  24333862.767    24333869.084
 03  6 15  0 54 30.0000000  0  7G20G25G 1G16G 2G11G13
  20495416.524   -22753382.31649 -17713463.00348  20495415.679    20495420.269
  22395982.627   -13806754.39949 -10747894.59647  22395982.414    22395987.396
  21862281.307   -15597451.50249 -12124375.82347  21862280.778    21862286.437
  22186571.879   -13697366.32849 -10659414.37346  22186571.276    22186576.288
  22531139.251   -12091469.81949  -9412950.64646  22531138.427    22531145.233
  23380480.301    -5760259.33349  -4468826.54446  23380479.880    23380485.840
  24319563.008    -3009278.98549  -2335867.97145  24319563.037    24319569.351
 03  6 15  0 55  0.0000000  0  7G20G25G 1G16G 2G11G13
  20488792.641   -22788190.79449 -17740586.48848  20488791.815    20488796.394
  22410778.088   -13729003.67849 -10687309.64546  22410777.891    22410782.922
  21853176.713   -15645296.72149 -12161657.79047  21853176.121    21853181.772
  22174971.292   -13758327.46449 -10706916.51746  22174970.687    22174975.682
  22517816.563   -12161480.69649  -9467504.51446  22517815.761    22517822.511
  23396410.717    -5676545.16149  -4403594.79446  23396410.262    23396416.209
  24305270.330    -3084387.53049  -2394394.01545  24305270.401    24305276.750
 03  6 15  0 55 30.0000000  0  7G20G25G 1G16G 2G11G13
  20482258.458   -22822527.98749 -17767342.73948  20482257.638    20482262.193
  22425605.841   -13651083.58349 -10626592.71947  22425605.616    22425610.668
  21844094.723   -15693022.83849 -12198846.94647  21844094.148    21844099.794
  22163448.669   -13818878.89949 -10754099.41446  22163448.104    22163453.055
  22504546.239   -12231216.48149  -9521844.01546  22504545.418    22504552.144
  23412364.905    -5592705.52849  -4338265.31546  23412364.496    23412370.446
  24290984.544    -3159459.19449  -2452891.31345  24290984.641    24290990.922
 03  6 15  0 56  0.0000000  0  7G20G25G 1G16G 2G11G13
  20475814.361   -22856391.92649 -17793730.21548  20475813.539    20475818.094
  22440465.547   -13572995.90949 -10565745.21646  22440465.289    22440470.306
  21835035.458   -15740629.67049 -12235943.15347  21835034.840    21835040.507
  22152004.633   -13879017.69749 -10800960.76946  22152004.047    22152008.981
  22491328.746   -12300674.51849  -9575967.10546  22491327.898    22491334.628
  23428342.465    -5508743.44749  -4272840.42446  23428341.996    23428348.001
  24276705.746    -3234494.04549  -2511359.92645  24276705.836    24276712.138
 03  6 15  0 56 30.0000000  0  7G20G25G 1G16G 2G11G13
  20469460.602   -22889781.34949 -17819747.94348  20469459.768    20469464.314
  22455356.599   -13494743.03149 -10504768.98346  22455356.360    22455361.332
  21825998.720   -15788117.80349 -12272946.87147  21825998.116    21826003.757
  22140639.348   -13938742.14749 -10847499.26346  22140638.805    22140643.773
  22478164.362   -12369853.17449  -9629872.48546  22478163.561    22478170.308
  23444342.647    -5424662.15849  -4207322.63546  23444342.159    23444348.223
  24262434.079    -3309492.61149  -2569800.27045  24262433.987    24262440.109
 03  6 15  0 57  0.0000000  0  7G20G25G 1G16G 2G11G13
  20463197.602   -22922693.78449 -17845393.99248  20463196.744    20463201.265
  22470278.775   -13416326.47849 -10443665.21646  22470278.510    22470283.558
  21816984.697   -15835486.56849 -12309857.57147  21816984.086    21816989.727
  22129353.594   -13998048.94549 -10893712.30546  22129353.078    22129358.069
  22465053.811   -12438749.48249  -9683557.86546  22465053.037    22465059.775
  23460365.137    -5340463.89249  -4141713.69946  23460364.707    23460370.744
  24248169.305    -3384454.35949  -2628211.92645  24248169.291    24248175.348
 03  6 15  0 57 30.0000000  0  7G20G25G 1G16G 2G11G13
  20457025.740   -22955126.98549 -17870666.61648  20457024.896    20457029.419
  22485231.771   -13337747.93049 -10382435.21746  22485231.518    22485236.587
  21807993.483   -15882735.54549 -12346674.92747  21807992.881    21807998.484
  22118147.851   -14056935.11649 -10939597.59446  22118147.365    22118152.361
  22451997.617   -12507360.50449  -9737020.93046  22451996.776    22452003.494
  23476409.452    -5256151.00049  -4076015.43146  23476409.030    23476414.984
  24233911.538    -3459378.87549  -2686594.55945  24233911.602    24233917.633
 03  6 15  0 58  0.0000000  0  7G20G25G 1G16G 2G11G13
  20450945.223   -22987080.23649 -17895565.24848  20450944.406    20450948.908
  22500215.122   -13259009.87849 -10321080.93846  22500214.845    22500219.945
  21799024.894   -15929865.75049 -12383399.73447  21799024.270    21799029.924
  22107022.439   -14115399.13049 -10985153.91946  22107021.987    22107026.960
  22438995.944   -12575684.77349  -9790260.56846  22438995.127    22439001.746
  23492474.786    -5171727.75049  -4010231.19546  23492474.368    23492480.353
  24219660.874    -3534267.06849  -2744948.90845  24219660.868    24219666.906
 03  6 15  0 58 30.0000000  0  7G20G25G 1G16G 2G11G13
  20444956.419   -23018551.55349 -17920088.34748  20444955.592    20444960.103
  22515228.530   -13180114.21949 -10259603.83446  22515228.262    22515233.348
  21790078.914   -15976876.76149 -12420031.67247  21790078.313    21790084.018
  22095977.960   -14173438.19249 -11030379.11946  22095977.463    22095982.439
  22426049.295   -12643719.61249  -9843274.67746  22426048.490    22426055.062
  23508560.553    -5087196.53849  -3944362.80545  23508560.113    23508566.198
  24205417.043    -3609118.71549  -2803274.77545  24205416.829    24205423.181
 03  6 15  0 59  0.0000000  0  7G20G25G 1G16G 2G11G13
  20439059.789   -23049538.48749 -17944234.00648  20439058.954    20439063.477
  22530271.743   -13101062.22449 -10198004.91446  22530271.467    22530276.455
  21781155.844   -16023767.82949 -12456570.14647  21781155.240    21781160.991
  22085014.849   -14231049.04549 -11075270.65746  22085014.383    22085019.346
  22413158.332   -12711462.02949  -9896060.92046  22413157.524    22413164.102
  23524666.355    -5002559.57549  -3878412.04045  23524666.003    23524672.200
  24191180.179    -3683932.88049  -2861571.44345  24191180.035    24191186.302
 03  6 15  0 59 30.0000000  0  7G20G25G 1G16G 2G11G13
  20433255.626   -23080039.53549 -17968001.05148  20433254.792    20433259.314
  22545344.166   -13021856.19849 -10136285.96346  22545343.903    22545348.878
  21772255.499   -16070539.17849 -12493015.33647  21772254.902    21772260.636
  22074133.750   -14288229.48649 -11119826.80146  22074133.296    22074138.226
  22400323.431   -12778910.05849  -9948617.76346  22400322.569    22400329.188
  23540791.684    -4917820.08949  -3812381.34845  23540791.409    23540797.661
  24176950.443    -3758710.07549  -2919839.31345  24176950.276    24176956.440
 03  6 15  1  0  0.0000000  0  7G20G25G 1G16G 2G11G13
  20427544.094   -23110054.00449 -17991388.94448  20427543.256    20427547.748
  22560445.350   -12942499.04349 -10074449.26246  22560445.049    22560450.073
  21763377.827   -16117191.63449 -12529367.88547  21763377.208    21763382.941
  22063334.854   -14344977.81249 -11164046.23446  22063334.381    22063339.337
  22387544.736   -12846062.36049 -10000944.17746  22387543.846    22387550.600
  23556936.072    -4832981.82649  -3746273.73145  23556935.813    23556941.916
  24162727.658    -3833451.34849  -2978079.16745  24162727.541    24162733.535
 03  6 15  1  0 30.0000000  0  7G20G25G 1G16G 2G11G13
  20421925.850   -23139578.08449 -18014394.72048  20421925.015    20421929.455
  22575575.231   -12862990.89749 -10012494.89546  22575574.975    22575579.971
  21754523.132   -16163723.20849 -12565626.23847  21754522.528    21754528.277
  22052618.992   -14401289.96849 -11207925.79746  22052618.540    22052623.441
  22374823.026   -12912914.72249 -10053036.87346  22374822.173    22374829.022
  23573099.075    -4748045.51949  -3680089.70845  23573098.793    23573104.815
  24148511.831    -3908154.83349  -3036289.57545  24148511.724    24148517.780
 03  6 15  1  1  0.0000000  0  7G20G25G 1G16G 2G11G13
  20416401.065   -23168611.18549 -18037017.90948  20416400.220    20416404.660
  22590733.262   -12783334.64449  -9950425.12546  22590733.031    22590738.079
  21745691.310   -16210134.89249 -12601791.16147  21745690.692    21745696.441
  22041986.433   -14457164.43049 -11251464.29846  22041985.950    22041990.801
  22362158.694   -12979465.68549 -10104894.71546  22362157.880    22362164.784
  23589279.773    -4663015.44749  -3613832.61145  23589279.511    23589285.545
  24134303.078    -3982821.44649  -3094471.26945  24134303.029    24134309.016
 03  6 15  1  1 30.0000000  0  7G20G25G 1G16G 2G11G13
  20410969.746   -23197152.85349 -18059258.16748  20410968.910    20410973.383
  22605919.038   -12703533.38349  -9888242.35646  22605918.738    22605923.790
  21736882.053   -16256427.91449 -12637863.64047  21736881.450    21736887.116
  22031437.396   -14512600.03149 -11294660.83547  22031436.884    22031441.752
  22349551.980   -13045714.21249 -10156516.89146  22349551.158    22349558.099
  23605477.522    -4577895.77749  -3547505.69945  23605477.278    23605483.434
  24120101.332    -4057452.41049  -3152625.18245  24120101.222    24120107.170
 03  6 15  1  2  0.0000000  0  7G20G25G 1G16G 2G11G13
  20405632.587   -23225199.63149 -18081112.79648  20405631.755    20405636.216
  22621132.340   -12623587.19549  -9825946.66346  22621132.056    22621137.061
  21728095.773   -16302600.35749 -12673842.15247  21728095.173    21728100.738
  22020972.680   -14567592.44949 -11337512.03147  22020972.208    22020977.114
  22337003.545   -13111656.28749 -10207900.27446  22337002.745    22337009.682
  23621692.170    -4492687.37049  -3481109.65545  23621691.833    23621698.118
  24105906.725    -4132046.00549  -3210749.96945  24105906.619    24105912.418
 03  6 15  1  2 30.0000000  0  7G20G25G 1G16G 2G11G13
  20400389.782   -23252750.69149 -18102581.14948  20400388.955    20400393.405
  22636372.752   -12543498.54349  -9763539.95646  22636372.475    22636377.430
  21719332.276   -16348652.87249 -12709727.21047  21719331.660    21719337.250
  22010592.615   -14622139.93549 -11380016.53247  22010592.144    22010597.089
  22324513.821   -13177290.24149 -10259043.56046  22324513.002    22324519.900
  23637923.049    -4407393.80649  -3414647.24545  23637922.687    23637929.065
  24091719.020    -4206602.96949  -3268846.19845  24091718.810    24091724.536
 03  6 15  1  3  0.0000000  0  7G20G25G 1G16G 2G11G13
  20395241.727   -23279804.17549 -18123661.78248  20395240.879    20395245.336
  22651639.762   -12463269.57649  -9701023.91346  22651639.536    22651644.549
  21710591.577   -16394585.27649 -12745518.67847  21710590.991    21710596.585
  22000297.681   -14676240.29149 -11422172.61247  22000297.201    22000302.117
  22312083.165   -13242613.85649 -10309945.02146  22312082.317    22312089.140
  23654169.699    -4322018.03149  -3348120.79045  23654169.229    23654175.546
  24077538.223    -4281123.10549  -3326913.75345  24077538.098    24077543.854
 03  6 15  1  3 30.0000000  0  7G20G25G 1G16G 2G11G13
  20390188.616   -23306358.47349 -18144353.43848  20390187.777    20390192.202
  22666933.143   -12382902.00649  -9638399.86046  22666932.949    22666937.950
  21701873.811   -16440397.35749 -12781216.38347  21701873.236    21701878.838
  21990088.324   -14729890.74949 -11463978.12647  21990087.809    21990092.719
  22299711.989   -13307624.78249 -10360602.83346  22299711.161    22299717.937
  23670431.416    -4236562.62949  -3281532.30045  23670430.931    23670437.140
  24063364.425    -4355606.43249  -3384952.61145  24063364.319    24063370.139
 03  6 15  1  4  0.0000000  0  7G20G25G 1G16G 2G11G13
  20385230.945   -23332411.21549 -18164654.26848  20385230.089    20385234.512
  22682252.755   -12302397.09849  -9575668.80446  22682252.543    22682257.546
  21693179.110   -16486088.31649 -12816819.71147  21693178.505    21693184.123
  21979965.215   -14783088.23149 -11505430.67147  21979964.677    21979969.552
  22287400.885   -13372319.90349 -10411014.56746  22287400.034    22287406.801
  23686707.798    -4151029.84649  -3214883.51345  23686707.384    23686713.553
  24049197.767    -4430052.21049  -3442962.21545  24049197.747    24049203.468
 03  6 15  1  4 30.0000000  0  7G20G25G 1G16G 2G11G13
  20380368.919   -23357961.37249 -18184563.47948  20380368.075    20380372.477
  22697598.055   -12221757.29049  -9512832.62246  22697597.820    22697602.817
  21684507.327   -16531658.66749 -12852329.06447  21684506.738    21684512.358
  21969928.524   -14835831.17549 -11546529.03747  21969927.976    21969932.864
  22275150.256   -13436697.64449 -10461178.99646  22275149.385    22275156.070
  23702998.173    -4065423.24049  -3148177.18845  23702997.776    23703004.066
  24035038.098    -4504460.84049  -3500942.87145  24035038.150    24035043.862
 03  6 15  1  5  0.0000000  0  7G20G25G 1G16G 2G11G13
  20375602.767   -23383007.44049 -18204079.89048  20375601.914    20375606.357
  22712968.704   -12140984.32849  -9449892.68746  22712968.489    22712973.490
  21675858.556   -16577108.25849 -12887744.31347  21675857.966    21675863.561
  21959978.731   -14888117.21249 -11587271.36747  21959978.184    21959983.106
  22262960.341   -13500755.73349 -10511094.34646  22262959.464    22262966.147
  23719302.252    -3979745.46549  -3081415.41245  23719301.908    23719308.265
  24020885.661    -4578832.52149  -3558894.74845  24020885.607    24020891.278
 03  6 15  1  5 30.0000000  0  7G20G25G 1G16G 2G11G13
  20370932.784   -23407548.14149 -18223202.51348  20370931.957    20370936.448
  22728364.264   -12060080.64749  -9386850.89846  22728364.001    22728369.021
  21667232.686   -16622437.45449 -12923065.75247  21667232.078    21667237.695
  21950116.299   -14939944.33849 -11627656.10547  21950115.731    21950120.693
  22250831.575   -13564492.34449 -10560759.18746  22250830.721    22250837.407
  23735619.353    -3893999.76149  -3014600.70845  23735618.943    23735625.296
  24006740.154    -4653167.34449  -3616817.89845  24006740.080    24006745.651
 03  6 15  1  6  0.0000000  0  7G20G25G 1G16G 2G11G13
  20366359.357   -23431581.81749 -18241930.05048  20366358.533    20366363.019
  22743784.279   -11979047.97749  -9323708.59746  22743784.036    22743789.108
  21658629.781   -16667645.91849 -12958293.10547  21658629.183    21658634.832
  21940341.702   -14991310.19049 -11667681.40847  21940341.108    21940346.083
  22238764.504   -13627904.99849 -10610171.59946  22238763.644    22238770.285
  23751948.728    -3808188.81049  -2947735.15745  23751948.349    23751954.769
  23992601.708    -4727464.88549  -3674711.98845  23992601.697    23992607.294
 03  6 15  1  6 30.0000000  0  7G20G25G 1G16G 2G11G13
  20361882.819   -23455106.22049 -18260260.75148  20361882.002    20361886.459
  22759228.706   -11897887.14949  -9260466.42846  22759228.444    22759233.538
  21650050.032   -16712732.82749 -12993425.74347  21650049.423    21650055.062
  21930655.392   -15042211.59449 -11707344.80047  21930654.814    21930659.840
  22226759.613   -13690990.81549 -10659329.32647  22226758.765    22226765.387
  23768290.086    -3722314.83349  -2880820.48345  23768289.665    23768296.104
  23978470.374    -4801725.23749  -3732577.10745  23978470.311    23978475.959
 03  6 15  1  7  0.0000000  0  7G20G25G 1G16G 2G11G13
  20357503.374   -23478120.66949 -18278194.08748  20357502.534    20357506.934
  22774697.027   -11816601.08449  -9197126.67646  22774696.736    22774701.816
  21641493.299   -16757698.75849 -13028464.11947  21641492.686    21641498.302
  21921057.636   -15092647.31249 -11746645.32747  21921057.148    21921062.222
  22214817.132   -13753748.46649 -10708231.35047  22214816.303    22214822.947
  23784642.763    -3636381.33149  -2813859.46045  23784642.445    23784648.811
  23964346.092    -4875948.69649  -3790413.47645  23964345.929    23964351.463
 03  6 15  1  7 30.0000000  0  7G20G25G 1G16G 2G11G13
  20353221.438   -23500622.25849 -18295727.79348  20353220.599    20353225.003
  22790189.009   -11735190.12149  -9133689.60346  22790188.790    22790193.837
  21632959.802   -16802542.21849 -13063407.05947  21632959.244    21632964.870
  21911549.290   -15142613.80249 -11785580.21847  21911548.791    21911553.902
  22202937.833   -13816174.49149 -10756874.94747  22202937.027    22202943.656
  23801006.589    -3550390.22249  -2746853.53145  23801006.166    23801012.398
  23950228.946    -4950133.83849  -3848219.98745  23950228.792    23950234.500
 03  6 15  1  8  0.0000000  0  7G20G25G 1G16G 2G11G13
  20349037.214   -23522610.35249 -18312861.37148  20349036.375    20349040.817
  22805704.245   -11653657.31849  -9070157.59346  22805703.989    22805709.097
  21624449.568   -16847263.99049 -13098255.17347  21624448.966    21624454.586
  21902130.517   -15192109.52249 -11824148.27447  21902130.011    21902135.170
  22191121.936   -13878267.52949 -10805259.08747  22191121.077    22191127.687
  23817380.675    -3464344.75749  -2679805.26745  23817380.230    23817386.503
  23936118.917    -5024281.36649  -3905997.16345  23936118.769    23936124.676
 03  6 15  1  8 30.0000000  0  7G20G25G 1G16G 2G11G13
  20344950.741   -23544084.86749 -18329594.75648  20344949.894    20344954.373
  22821242.102   -11572005.49149  -9006532.83246  22821241.883    22821246.963
  21615962.216   -16891865.25849 -13133009.39347  21615961.611    21615967.254
  21892801.531   -15241133.60249 -11862348.82847  21892801.029    21892806.140
  22179369.490   -13940026.76549 -10853383.12147  22179368.603    22179375.258
  23833764.207    -3378249.09549  -2612717.87645  23833763.749    23833770.213
  23922016.023    -5098392.59749  -3963746.09245  23922015.804    23922021.604
 03  6 15  1  9  0.0000000  0  7G20G25G 1G16G 2G11G13
  20340962.899   -23565041.27149 -18345924.42148  20340962.055    20340966.489
  22836802.869   -11490233.64249  -8942814.55646  22836802.631    22836807.686
  21607498.385   -16936342.72649 -13167667.13747  21607497.781    21607503.471
  21883563.340   -15289680.70049 -11900177.70147  21883562.835    21883567.877
  22167681.477   -14001446.88049 -10901242.90447  22167680.634    22167687.340
  23850157.266    -3292102.97549  -2545591.16345  23850156.880    23850163.430
  23907920.379    -5172464.72149  -4021464.55245  23907920.181    23907926.037
 03  6 15  1  9 30.0000000  0  7G20G25G 1G16G 2G11G13
  20337073.489   -23585480.30449 -18361850.93948  20337072.648    20337077.062
  22852385.672   -11408345.78549  -8879005.87446  22852385.423    22852390.412
  21599057.726   -16980698.54349 -13202230.09647  21599057.144    21599062.804
  21874415.884   -15337750.94549 -11937635.00447  21874415.387    21874420.358
  22156058.110   -14062527.96149 -10948838.50747  22156057.260    22156063.900
  23866559.079    -3205911.59749  -2478429.20445  23866558.655    23866565.373
  23893831.945    -5246499.75149  -4079154.10145  23893831.725    23893837.605
 03  6 15  1 10  0.0000000  0  7G20G25G 1G16G 2G11G13
  20333282.709   -23605400.88149 -18377373.46448  20333281.872    20333286.312
  22867990.139   -11326343.78349  -8815108.26146  22867989.870    22867994.847
  21590640.206   -17024932.84749 -13236698.37047  21590639.611    21590645.233
  21865359.494   -15385342.55649 -11974719.34547  21865358.987    21865363.896
  22144499.654   -14123268.21749 -10996168.52947  22144498.792    22144505.374
  23882968.905    -3119678.10349  -2411234.42345  23882968.415    23882975.198
  23879750.474    -5320497.73549  -4136814.78345  23879750.343    23879756.246
 03  6 15  1 10 30.0000000  0  7G20G25G 1G16G 2G11G13
  20329591.009   -23624800.60149 -18392490.12448  20329590.178    20329594.649
  22883616.093   -11244228.45649  -8751122.33746  22883615.893    22883620.893
  21582246.073   -17069044.32849 -13271070.93147  21582245.502    21582251.092
  21856394.918   -15432452.31449 -12011428.20347  21856394.353    21856399.169
  22133006.599   -14183664.45949 -11043230.49647  22133005.759    22133012.295
  23899386.482    -3033404.12649  -2344008.08645  23899386.000    23899392.724
  23865676.322    -5394457.73249  -4194445.88845  23865676.126    23865681.854
 03  6 15  1 11  0.0000000  0  7G20G25G 1G16G 2G11G13
  20325998.914   -23643677.33749 -18407199.27448  20325998.084    20326002.542
  22899263.338   -11162001.23949  -8687049.24146  22899263.190    22899268.194
  21573875.462   -17113032.30849 -13305347.26647  21573874.877    21573880.440
  21847522.506   -15479077.47649 -12047759.46847  21847521.895    21847526.656
  22121579.604   -14243713.78449 -11090022.13847  22121578.760    22121585.284
  23915811.268    -2947091.98749  -2276752.02945  23915810.739    23915817.492
  23851609.532    -5468379.13849  -4252046.91345  23851609.405    23851615.075
 03  6 15  1 11 30.0000000  0  7G20G25G 1G16G 2G11G13
  20322506.271   -23662031.27549 -18421501.04148  20322505.442    20322509.885
  22914931.483   -11079665.13849  -8622891.28246  22914931.243    22914936.232
  21565528.137   -17156897.86249 -13339528.19647  21565527.556    21565533.042
  21838742.337   -15525217.34349 -12083712.57147  21838741.734    21838746.519
  22110218.689   -14303415.69349 -11136543.06547  22110217.845    22110224.364
  23932242.422    -2860745.94149  -2209469.56745  23932241.854    23932248.692
  23837549.921    -5542263.18349  -4309618.83245  23837549.708    23837555.394
 03  6 15  1 12  0.0000000  0  7G20G25G 1G16G 2G11G13
  20319113.508   -23679860.17249 -18435393.68648  20319112.671    20319117.151
  22930620.120   -10997221.15449  -8558649.26446  22930619.822    22930624.849
  21557204.288   -17200640.06349 -13373613.01747  21557203.688    21557209.109
  21830055.043   -15570869.07149 -12119285.31447  21830054.438    21830059.290
  22098924.427   -14362767.21649 -11182790.96447  22098923.564    22098930.097
  23948679.688    -2774367.72849  -2142162.02845  23948679.124    23948685.965
  23823497.448    -5616109.04149  -4367160.98745  23823497.316    23823502.870
 03  6 15  1 12 30.0000000  0  7G20G25G 1G16G 2G11G13
  20315821.005   -23697162.26749 -18448875.83848  20315820.180    20315824.649
  22946328.935   -10914670.42549  -8494324.07446  22946328.687    22946333.833
  21548904.051   -17244257.99549 -13407601.00347  21548903.435    21548908.866
  21821461.187   -15616029.88849 -12154475.52947  21821460.597    21821465.448
  22087697.358   -14421765.67849 -11228763.75047  22087696.516    22087703.035
  23965122.626    -2687959.74649  -2074831.30545  23965122.111    23965129.026
  23809452.388    -5689915.88249  -4424672.76245  23809452.290    23809457.898
 03  6 15  1 13  0.0000000  0  7G20G25G 1G16G 2G11G13
  20312628.709   -23713937.91549 -18461947.77048  20312627.860    20312632.374
  22962057.470   -10832016.58149  -8429918.51946  22962057.229    22962062.438
  21540627.121   -17287753.32049 -13441493.44447  21540626.485    21540631.995
  21812960.756   -15660699.72349 -12189283.15947  21812960.192    21812965.004
  22076537.511   -14480410.89749 -11274461.27647  22076536.662    22076543.170
  23981570.431    -2601526.52449  -2007480.91545  23981569.995    23981576.846
  23795414.481    -5763685.42449  -4482155.45145  23795414.308    23795419.946
 03  6 15  1 13 30.0000000  0  7G20G25G 1G16G 2G11G13
  20309537.153   -23730184.10349 -18474607.13648  20309536.321    20309540.824
  22977805.609   -10749259.74849  -8365432.72346  22977805.367    22977810.625
  21532373.862   -17331124.25049 -13475288.95347  21532373.268    21532378.767
  21804554.627   -15704874.55049 -12223705.07347  21804554.011    21804558.757
  22065445.583   -14538699.07349 -11319880.59547  22065444.751    22065451.252
  23998022.949    -2515069.08049  -1940111.64345  23998022.564    23998029.290
  23781384.061    -5837416.28049  -4539607.99445  23781383.811    23781389.332
 03  6 15  1 14  0.0000000  0  7G20G25G 1G16G 2G11G13
  20306546.610   -23745899.46949 -18486852.87748  20306545.791    20306550.255
  22993572.955   -10666401.73049  -8300868.08246  22993572.770    22993578.065
  21524144.358   -17374370.58749 -13508987.38747  21524143.745    21524149.215
  21796242.891   -15748552.72049 -12257739.98547  21796242.295    21796247.013
  22054421.967   -14596628.16449 -11365020.10947  22054421.162    22054427.670
  24014479.398    -2428590.45149  -1872725.86645  24014478.992    24014485.779
  23767360.921    -5911108.03649  -4597030.10745  23767360.719    23767366.106
 03  6 15  1 14 30.0000000  0  7G20G25G 1G16G 2G11G13
  20303657.354   -23761082.91749 -18498684.13648  20303656.501    20303660.966
  23009359.322   -10583444.20349  -8236225.89146  23009359.122    23009364.389
  21515938.629   -17417492.07649 -13542588.53247  21515937.986    21515943.464
  21788026.082   -15791732.12349 -12291386.24147  21788025.504    21788030.198
  22043467.138   -14654196.18449 -11409878.26347  22043466.326    22043472.831
  24030939.264    -2342093.22649  -1805325.60545  24030938.927    24030945.828
  23753345.177    -5984760.63449  -4654421.68145  23753344.942    23753350.338
 03  6 15  1 15  0.0000000  0  7G20G25G 1G16G 2G11G13
  20300869.298   -23775734.09349 -18510100.64048  20300868.461    20300872.911
  23025164.113   -10500389.81149  -8171508.23646  23025163.831    23025169.126
  21507756.387   -17460489.42749 -13576092.95147  21507755.761    21507761.291
  21779904.414   -15834411.66549 -12324642.99647  21779903.846    21779908.482
  22032581.218   -14711402.01249 -11454454.19347  22032580.382    22032586.862
  24047401.982    -2255581.13649  -1737913.76645  24047401.800    24047408.553
  23739336.766    -6058374.82949  -4711783.31545  23739336.649    23739342.007
 03  6 15  1 15 30.0000000  0  7G20G25G 1G16G 2G11G13
  20298182.888   -23789851.17949 -18521100.97048  20298182.051    20298186.481
  23040987.054   -10417239.70849  -8106715.99146  23040986.757    23040992.071
  21499597.934   -17503362.09649 -13609500.21347  21499597.348    21499602.865
  21771878.369   -15876588.81049 -12357508.28647  21771877.803    21771882.380
  22021764.636   -14768243.23149 -11498746.01147  22021763.810    22021770.273
  24063867.199    -2169056.67249  -1670492.28945  24063866.992    24063873.835
  23725335.787    -6131950.16149  -4769114.68345  23725335.712    23725341.012
 03  6 15  1 16  0.0000000  0  7G20G25G 1G16G 2G11G13
  20295598.428   -23803432.67949 -18531683.95948  20295597.590    20295602.007
  23056827.895   -10333995.17149  -8041850.17546  23056827.650    23056833.041
  21491463.521   -17546109.09449 -13642809.55747  21491462.920    21491468.357
  21763948.375   -15918261.47249 -12389980.46247  21763947.763    21763952.293
  22011017.896   -14824717.32149 -11542751.74947  22011017.080    22011023.579
  24080334.412    -2082521.78949  -1603062.69245  24080334.131    24080341.071
  23711342.375    -6205486.00349  -4826415.27545  23711342.259    23711347.522
 03  6 15  1 16 30.0000000  0  7G20G25G 1G16G 2G11G13
  20293115.892   -23816478.65649 -18541849.65648  20293115.039    20293119.468
  23072686.161   -10250659.35949  -7976913.20546  23072685.912    23072691.356
  21483352.745   -17588731.52949 -13676021.82747  21483352.125    21483357.599
  21756114.313   -15959428.84449 -12422058.90847  21756113.756    21756118.376
  22000341.181   -14880823.51049 -11586470.81747  22000340.391    22000346.913
  24096802.848    -1995980.32049  -1535627.96745  24096802.461    24096809.572
  23697356.344    -6278983.37349  -4883685.88945  23697356.272    23697361.433
 03  6 15  1 17  0.0000000  0  7G20G25G 1G16G 2G11G13
  20290735.830   -23828985.87549 -18551595.54648  20290735.006    20290739.421
  23088562.031   -10167231.55149  -7911904.58246  23088561.741    23088567.266
  21475266.077   -17631227.05649 -13709135.20447  21475265.473    21475270.949
  21748377.310   -16000086.62149 -12453740.26847  21748376.772    21748381.403
  21989735.303   -14936557.74249 -11629900.05147  21989734.494    21989741.034
  24113272.356    -1909433.29249  -1468188.91145  24113271.939    24113279.188
  23683377.974    -6352440.02849  -4940924.76745  23683377.918    23683383.116
 03  6 15  1 17 30.0000000  0  7G20G25G 1G16G 2G11G13
  20288458.169   -23840955.37549 -18560922.43048  20288457.323    20288461.687
  23104454.522   -10083715.89349  -7846827.48846  23104454.268    23104459.872
  21467203.223   -17673597.82449 -13742151.37647  21467202.615    21467208.069
  21740737.193   -16040235.46849 -12485025.06047  21740736.671    21740741.296
  21979200.106   -14991920.36049 -11673039.71447  21979199.277    21979205.804
  24129742.021    -1822885.89749  -1400749.58645  24129741.637    24129748.864
  23669406.828    -6425858.36449  -4998133.79345  23669406.800    23669412.081
 03  6 15  1 18  0.0000000  0  7G20G25G 1G16G 2G11G13
  20286283.420   -23852384.17049 -18569827.98748  20286282.549    20286286.925
  23120363.807   -10000112.66349  -7781682.15646  23120363.525    23120369.191
  21459164.477   -17715841.80849 -13775068.75747  21459163.840    21459169.291
  21733194.566   -16079871.90349 -12515910.56847  21733194.083    21733198.706
  21968736.313   -15046907.71849 -11715886.96047  21968735.481    21968741.963
  24146211.638    -1736338.62849  -1333310.35745  24146211.295    24146218.441
  23655443.509    -6499236.55049  -5055311.53445  23655443.417    23655448.573
 03  6 15  1 18 30.0000000  0  7G20G25G 1G16G 2G11G13
  20284211.468   -23863272.25149 -18578312.20948  20284210.603    20284214.974
  23136289.205    -9916424.31349  -7716470.50846  23136288.960    23136294.594
  21451149.703   -17757959.65649 -13807887.84547  21451149.039    21451154.542
  21725749.649   -16118995.12949 -12546396.18547  21725749.127    21725753.805
  21958344.188   -15101518.77749 -11758440.99447  21958343.355    21958349.733
  24162680.470    -1649795.69849  -1265874.53145  24162680.184    24162687.302
  23641487.587    -6572575.20449  -5112458.48045  23641487.449    23641492.549
 03  6 15  1 19  0.0000000  0  7G20G25G 1G16G 2G11G13
  20282242.764   -23873618.00249 -18586373.83248  20282241.906    20282246.261
  23152230.685    -9832651.85849  -7651193.31046  23152230.374    23152235.928
  21443159.134   -17799950.32249 -13840607.83647  21443158.490    21443163.978
  21718402.792   -16157602.58449 -12576479.90047  21718402.313    21718406.996
  21948024.126   -15155751.00449 -11800699.83547  21948023.310    21948029.593
  24179148.028    -1563258.79349  -1198443.40645  24179147.704    24179154.967
  23627539.076    -6645873.76649  -5169574.19245  23627539.105    23627544.296
 03  6 15  1 19 30.0000000  0  7G20G25G 1G16G 2G11G13
  20280377.431   -23883420.09749 -18594011.83348  20280376.577    20280380.935
  23168187.795    -9748796.98149  -7585851.91046  23168187.497    23168192.955
  21435192.833   -17841813.45649 -13873228.45447  21435192.215    21435197.668
  21711154.588   -16195692.41749 -12606160.26547  21711154.061    21711158.700
  21937776.576   -15209602.38049 -11842661.91147  21937775.694    21937781.964
  24195613.777    -1476730.68249  -1131019.11945  24195613.505    24195620.861
  23613598.439    -6719131.75549  -5226658.28045  23613598.426    23613603.770
 03  6 15  1 20  0.0000000  0  7G20G25G 1G16G 2G11G13
  20278615.673   -23892678.17049 -18601225.91948  20278614.797    20278619.164
  23184160.136    -9664861.94249  -7520448.01546  23184159.840    23184165.231
  21427250.735   -17883549.29849 -13905749.87747  21427250.113    21427255.608
  21704005.089   -16233263.15749 -12635436.13947  21704004.580    21704009.187
  21927601.671   -15263071.58449 -11884326.18447  21927600.808    21927607.091
  24212077.055    -1390214.65149  -1063604.26145  24212076.858    24212084.425
  23599665.553    -6792349.71549  -5283711.17445  23599665.462    23599670.725
 03  6 15  1 20 30.0000000  0  7G20G25G 1G16G 2G11G13
  20276957.930   -23901389.38849 -18608013.89248  20276957.075    20276961.465
  23200147.734    -9580846.62649  -7454981.59546  23200147.482    23200152.851
  21419333.260   -17925155.85649 -13938170.56447  21419332.625    21419338.174
  21696954.946   -16270311.77849 -12664305.17347  21696954.451    21696959.063
  21917500.158   -15316155.17749 -11925689.99147  21917499.291    21917505.557
  24228537.922    -1303711.60749   -996199.53845  24228537.832    24228545.695
  23585740.625    -6865525.82049  -5340731.45545  23585740.552    23585745.626
 03  6 15  1 21  0.0000000  0  7G20G25G 1G16G 2G11G13
  20275404.043   -23909555.11749 -18614376.80348  20275403.200    20275407.598
  23216149.883    -9496754.86349  -7389455.58646  23216149.644    23216155.123
  21411439.960   -17966635.26049 -13970492.15947  21411439.329    21411444.889
  21690004.068   -16306838.70249 -12692767.69447  21690003.563    21690008.229
  21907471.927   -15368853.71949 -11966753.75647  21907471.064    21907477.317
  24244995.581    -1217226.70349   -928808.93145  24244995.380    24245003.544
  23571823.167    -6938661.95649  -5397720.59945  23571823.136    23571828.215
 03  6 15  1 21 30.0000000  0  7G20G25G 1G16G 2G11G13
  20273954.474   -23917172.74749 -18620312.62448  20273953.614    20273957.990
  23232166.553    -9412587.13149  -7323870.39146  23232166.206    23232171.770
  21403571.240   -18007985.58549 -14002713.17747  21403570.616    21403576.147
  21683153.170   -16342840.49149 -12720821.01747  21683152.646    21683157.304
  21897517.589   -15421163.84449 -12007514.85147  21897516.715    21897522.950
  24261449.688    -1130761.18149   -861433.44945  24261449.447    24261457.621
  23557913.656    -7011756.86849  -5454677.62645  23557913.606    23557918.669
 03  6 15  1 22  0.0000000  0  7G20G25G 1G16G 2G11G13
  20272609.164   -23924242.58149 -18625821.59548  20272608.295    20272612.674
  23248197.089    -9328345.85949  -7258227.89946  23248196.768    23248202.421
  21395726.945   -18049207.62049 -14034834.23447  21395726.317    21395731.772
  21676402.248   -16378316.82549 -12748464.88647  21676401.749    21676406.350
  21887637.393   -15473084.56849 -12047972.52047  21887636.515    21887642.732
  24277899.429    -1044318.73749   -794075.94945  24277899.019    24277907.338
  23544011.815    -7084811.19549  -5511603.02245  23544011.731    23544016.921
 03  6 15  1 22 30.0000000  0  7G20G25G 1G16G 2G11G13
  20271368.455   -23930762.56749 -18630902.11048  20271367.594    20271371.969
  23264241.517    -9244031.54149  -7192528.48646  23264241.211    23264246.906
  21387907.363   -18090299.91549 -14066854.18447  21387906.720    21387912.191
  21669751.921   -16413264.93549 -12775697.15547  21669751.393    21669755.946
  21877831.758   -15524612.95949 -12088124.47247  21877830.903    21877837.181
  24294344.373     -957900.92349   -726737.65245  24294343.865    24294352.248
  23530117.806    -7157823.81149  -5568495.91145  23530117.809    23530123.063
 03  6 15  1 23  0.0000000  0  7G20G25G 1G16G 2G11G13
  20270232.530   -23936731.76949 -18635553.44448  20270231.661    20270236.071
  23280299.561    -9159645.99349  -7126773.56246  23280299.264    23280304.936
  21380112.389   -18131262.50749 -14098773.07447  21380111.767    21380117.239
  21663202.305   -16447683.34049 -12802516.67447  21663201.798    21663206.330
  21868101.090   -15575747.55949 -12127969.57747  21868100.259    21868106.593
  24310784.043     -871510.66749   -659420.84045  24310783.584    24310791.822
  23516231.758    -7230794.83349  -5625356.38645  23516231.752    23516237.063
 03  6 15  1 23 30.0000000  0  7G20G25G 1G16G 2G11G13
  20269201.445   -23942150.07149 -18639775.50548  20269200.584    20269205.027
  23296370.922    -9075191.41549  -7060964.85046  23296370.538    23296376.091
  21372342.066   -18172095.48449 -14130590.97947  21372341.456    21372346.932
  21656753.706   -16481570.88249 -12828922.52347  21656753.182    21656757.701
  21858445.692   -15626486.87749 -12167506.67147  21858444.864    21858451.147
  24327217.977     -785151.09149   -592127.92445  24327217.616    24327225.751
  23502353.652    -7303724.33149  -5682184.48245  23502353.779    23502358.992
 03  6 15  1 24  0.0000000  0  7G20G25G 1G16G 2G11G13
  20268275.462   -23947016.02149 -18643567.15748  20268274.615    20268279.039
  23312454.936    -8990669.13949  -6995103.39546  23312454.604    23312460.103
  21364596.657   -18212798.04849 -14162307.24447  21364596.018    21364601.446
  21650406.607   -16514925.39849 -12854913.03747  21650406.066    21650410.516
  21848865.974   -15676828.73649 -12206734.05347  21848865.116    21848871.365
  24343645.602     -698824.63849   -524860.82445  24343645.235    24343653.460
  23488483.614    -7376611.65249  -5738979.73445  23488483.712    23488488.996
 03  6 15  1 24 30.0000000  0  7G20G25G 1G16G 2G11G13
  20267454.845   -23951328.26949 -18646927.36248  20267454.024    20267458.444
  23328551.752    -8906080.00049  -6929189.83146  23328551.450    23328556.894
  21356876.125   -18253369.61149 -14193921.44247  21356875.503    21356880.934
  21644161.255   -16547745.23249 -12880486.90947  21644160.679    21644165.098
  21839362.184   -15726771.33949 -12245650.33547  21839361.325    21839367.554
  24360066.487     -612533.57249   -457621.31545  24360066.157    24360074.296
  23474621.683    -7449456.34649  -5795741.77445  23474621.777    23474627.036
 03  6 15  1 25  0.0000000  0  7G20G25G 1G16G 2G11G13
  20266739.522   -23955087.46349 -18649856.61648  20266738.689    20266743.099
  23344660.644    -8821427.54749  -6863226.93846  23344660.278    23344665.814
  21349180.326   -18293811.22949 -14225434.37747  21349179.721    21349185.151
  21638017.565   -16580030.09249 -12905643.92147  21638017.013    21638021.495
  21829934.396   -15776314.26349 -12284255.17747  21829933.552    21829939.805
  24376479.955     -526281.68149   -390412.32745  24376479.554    24376487.424
  23460767.695    -7522259.78449  -5852471.68745  23460767.678    23460772.855
 03  6 15  1 25 30.0000000  0  7G20G25G 1G16G 2G11G13
  20266130.030   -23958290.67949 -18652352.63748  20266129.171    20266133.590
  23360781.624    -8736710.74749  -6797213.89746  23360781.388    23360787.033
  21341509.778   -18334120.33149 -14256844.06047  21341509.151    21341514.556
  21631976.443   -16611776.28149 -12930381.19047  21631975.875    21631980.355
  21820583.480   -15825453.61649 -12322545.54947  21820582.645    21820588.852
  24392885.892     -440069.63949   -323234.38345  24392885.455    24392893.212
  23446921.955    -7595019.33749  -5909167.37845  23446921.914    23446927.117
 03  6 15  1 26  0.0000000  0  7G20G25G 1G16G 2G11G13
  20265625.986   -23960939.43049 -18654416.60348  20265625.120    20265629.563
  23376914.233    -8651933.78649  -6731153.98946  23376913.969    23376919.717
  21333864.060   -18374298.75849 -14288151.90847  21333863.454    21333868.835
  21626037.666   -16642984.69249 -12954699.41247  21626037.076    21626041.565
  21811309.266   -15874189.84249 -12360521.79347  21811308.415    21811314.576
  24409283.358     -353902.32049   -256091.32145  24409282.885    24409290.532
  23433084.167    -7667737.29149  -5965830.65245  23433084.124    23433089.288
 03  6 15  1 26 30.0000000  0  7G20G25G 1G16G 2G11G13
  20265228.139   -23963030.18149 -18656045.76748  20265227.265    20265231.705
  23393058.540    -8567095.66849  -6665046.42946  23393058.213    23393063.953
  21326243.799   -18414343.67949 -14319355.72647  21326243.189    21326248.564
  21620201.909   -16673651.25449 -12978595.41747  21620201.356    21620205.893
  21802112.565   -15922518.68249 -12398180.60147  21802111.702    21802117.813
  24425672.192     -267780.03249   -188983.32345  24425671.420    24425679.406
  23419254.775    -7740410.99449  -6022459.45745  23419254.658    23419259.815
 03  6 15  1 27  0.0000000  0  7G20G25G 1G16G 2G11G13
  20264936.358   -23964563.61249 -18657240.65648  20264935.487    20264939.913
  23409214.101    -8482198.75649  -6598893.04846  23409213.679    23409219.386
  21318648.732   -18454256.07949 -14350456.28747  21318648.097    21318653.462
  21614469.422   -16703775.81449 -13002069.08347  21614468.884    21614473.397
  21792993.487   -15970439.63949 -12435521.57347  21792992.635    21792998.739
  24442051.565     -181706.54449   -121913.36845  24442050.870    24442058.901
  23405433.623    -7813041.35349  -6079054.49645  23405433.585    23405438.667
 03  6 15  1 27 30.0000000  0  7G20G25G 1G16G 2G11G13
  20264750.578   -23965539.90849 -18658001.41348  20264749.716    20264754.097
  23425380.145    -8397245.93749  -6532696.11546  23425379.768    23425385.436
  21311078.785   -18494036.44349 -14381453.96147  21311078.138    21311083.525
  21608840.120   -16733357.74549 -13025119.92447  21608839.572    21608844.140
  21783952.138   -16017952.15449 -12472544.27347  21783951.255    21783957.400
  24458421.102      -95685.36649    -54884.16645  24458420.306    24458428.425
  23391620.731    -7885628.90249  -6135616.17545  23391620.598    23391625.653
 03  6 15  1 28  0.0000000  0  7G20G25G 1G16G 2G11G13
  20264671.398   -23965956.38649 -18658325.94748  20264670.511    20264674.868
  23441556.938    -8312236.68149  -6466455.21046  23441556.567    23441562.191
  21303534.369   -18533682.37149 -14412346.88647  21303533.711    21303539.113
  21603314.738   -16762393.94249 -13047745.50947  21603314.187    21603318.752
  21774989.109   -16065052.73049 -12509245.99347  21774988.279    21774994.423
  24474780.627       -9716.99849     12103.86045  24474779.980    24474788.041
  23377816.217    -7958171.67649  -6192142.97545  23377816.115    23377821.152
 03  6 15  1 28 30.0000000  0  7G20G25G 1G16G 2G11G13
  20264698.713   -23965812.97049 -18658214.20148  20264697.842    20264702.153
  23457744.029    -8227173.30949  -6400172.12746  23457743.731    23457749.316
  21296015.493   -18573194.34449 -14443135.43247  21296014.826    21296020.228
  21597893.389   -16790883.50749 -13069945.16047  21597892.830    21597897.376
  21766104.745   -16111740.31549 -12545625.90447  21766103.930    21766110.015
  24491129.271       76194.85849     79047.84045  24491128.823    24491136.945
  23364020.169    -8030670.12349  -6248635.24945  23364020.095    23364025.112
 03  6 15  1 29  0.0000000  0  7G20G25G 1G16G 2G11G13
  20264832.699   -23965108.83049 -18657665.52448  20264831.829    20264836.141
  23473941.148    -8142057.23549  -6333847.98246  23473940.919    23473946.446
  21288522.248   -18612571.60849 -14473819.00447  21288521.573    21288527.036
  21592576.307   -16818824.83749 -13091717.60547  21592575.721    21592580.273
  21757299.335   -16158013.02149 -12581682.52147  21757298.506    21757304.551
  24507466.773      162048.28649    145946.27545  24507466.274    24507474.644
  23350232.677    -8103123.68149  -6305092.50345  23350232.600    23350237.587
 03  6 15  1 29 30.0000000  0  7G20G25G 1G16G 2G11G13
  20265073.432   -23963843.97249 -18656679.93048  20265072.552    20265076.851
  23490147.881    -8056890.21049  -6267484.13446  23490147.719    23490153.242
  21281054.523   -18651814.33149 -14504397.73547  21281053.873    21281059.382
  21587363.733   -16846217.22449 -13113062.30447  21587363.130    21587367.709
  21748573.069   -16203869.65649 -12617414.93547  21748572.257    21748578.242
  24523792.556      247839.90049    212796.52945  24523792.141    24523800.435
  23336453.796    -8175532.72349  -6361515.08145  23336453.649    23336458.496
 03  6 15  1 30  0.0000000  0  7G20G25G 1G16G 2G11G13
  20265421.034   -23962017.17649 -18655256.45648  20265420.142    20265424.495
  23506364.228    -7971673.25249  -6201081.37946  23506364.053    23506369.656
  21273612.670   -18690921.59049 -14534870.91347  21273612.035    21273617.538
  21582255.864   -16873058.96249 -13133977.93247  21582255.296    21582259.880
  21739926.413   -16249308.33449 -12652821.66547  21739925.583    21739931.510
  24540106.199      333567.51049    279596.96445  24540105.917    24540114.143
  23322683.354    -8247896.46749  -6417902.37645  23322683.212    23322688.158
 03  6 15  1 30 30.0000000  0  7G20G25G 1G16G 2G11G13
  20265875.598   -23959628.43449 -18653395.10448  20265874.717    20265879.087
  23522589.573    -7886408.48249  -6134641.36246  23522589.360    23522595.036
  21266196.596   -18729893.33049 -14565238.49547  21266195.959    21266201.427
  21577252.994   -16899348.88149 -13154463.56747  21577252.459    21577257.053
  21731359.473   -16294327.81849 -12687901.75347  21731358.643    21731364.512
  24556407.217      419228.31449    346345.32945  24556406.933    24556415.287
  23308921.428    -8320215.29349  -6474254.66645  23308921.310    23308926.387
 03  6 15  1 31  0.0000000  0  7G20G25G 1G16G 2G11G13
  20266437.114   -23956677.55549 -18651095.72148  20266436.238    20266440.637
  23538823.712    -7801097.81849  -6068165.58646  23538823.422    23538829.120
  21258806.317   -18768729.68349 -14595500.58247  21258805.675    21258811.122
  21572355.243   -16925086.39749 -13174518.75547  21572354.730    21572359.319
  21722872.512   -16338927.11149 -12722654.41647  21722871.669    21722877.559
  24572694.902      504818.76849    413038.84345  24572694.558    24572703.086
  23295168.209    -8392488.96849  -6530571.78045  23295168.021    23295173.112
 03  6 15  1 31 30.0000000  0  7G20G25G 1G16G 2G11G13
  20267106.028   -23953162.18849 -18648356.48148  20267105.155    20267109.592
  23555066.463    -7715741.26149  -6001654.05446  23555066.267    23555071.965
  21251442.199   -18807428.46849 -14625655.47947  21251441.553    21251446.964
  21567563.223   -16950268.40749 -13194141.09047  21567562.747    21567567.334
  21714466.166   -16383102.80049 -12757077.00147  21714465.319    21714471.258
  24588969.019      590338.35549    479677.12245  24588968.700    24588977.346
  23281423.862    -8464715.86449  -6586852.42745  23281423.666    23281428.680
 03  6 15  1 32  0.0000000  0  7G20G25G 1G16G 2G11G13
  20267882.396   -23949082.63349 -18645177.61548  20267881.518    20267885.900
  23571317.700    -7630341.09449  -5935108.55046  23571317.486    23571323.184
  21244104.177   -18845990.17449 -14655703.55447  21244103.493    21244108.859
  21562877.010   -16974894.83749 -13213330.49947  21562876.491    21562881.041
  21706140.450   -16426854.41249 -12791169.13447  21706139.602    21706145.646
  24605229.098      675783.82549    546257.62745  24605228.724    24605237.359
  23267688.325    -8536896.49049  -6643097.03345  23267688.165    23267693.162
 03  6 15  1 32 30.0000000  0  7G20G25G 1G16G 2G11G13
  20268766.047   -23944439.12449 -18641559.30248  20268765.146    20268769.530
  23587576.820    -7544899.10149  -5868530.44946  23587576.631    23587582.284
  21236792.198   -18884415.00649 -14685644.97847  21236791.505    21236796.855
  21558296.633   -16998964.83749 -13232086.32747  21558296.102    21558300.622
  21697895.610   -16470181.21349 -12824930.24947  21697894.760    21697900.866
  24621474.360      761151.81049    612777.75045  24621473.907    24621482.913
  23253961.508    -8609031.24549  -6699305.88946  23253961.377    23253966.388
 03  6 15  1 33  0.0000000  0  7G20G25G 1G16G 2G11G13
  20269757.368   -23939229.65249 -18637499.98648  20269756.490    20269760.876
  23603843.982    -7459415.22249  -5801919.71446  23603843.759    23603849.406
  21229506.556   -18922700.99249 -14715478.21147  21229505.859    21229511.268
  21553822.627   -17022475.77149 -13250406.52147  21553822.089    21553826.578
  21689732.312   -16513079.97849 -12858357.83047  21689731.451    21689737.513
  24637704.621      846441.21249    679236.63745  24637704.271    24637713.332
  23240243.806    -8681118.17949  -6755477.49446  23240243.604    23240248.710
 03  6 15  1 33 30.0000000  0  7G20G25G 1G16G 2G11G13
  20270856.279   -23933455.00349 -18633000.27048  20270855.399    20270859.765
  23620118.554    -7373892.45549  -5735278.65846  23620118.252    23620123.853
  21222247.191   -18960848.90149 -14745203.85247  21222246.544    21222251.973
  21549454.973   -17045427.94849 -13268291.32147  21549454.423    21549458.895
  21681650.436   -16555550.45749 -12891451.67747  21681649.546    21681655.621
  24653919.154      931648.04849    745631.19045  24653918.787    24653927.955
  23226535.019    -8753158.41549  -6811612.69646  23226534.775    23226539.882
 03  6 15  1 34  0.0000000  0  7G20G25G 1G16G 2G11G13
  20272062.858   -23927114.45449 -18628059.59348  20272061.974    20272066.355
  23636400.209    -7288332.02549  -5668608.25746  23636399.941    23636405.461
  21215014.248   -18998858.15849 -14774821.44947  21215013.631    21215019.032
  21545193.930   -17067819.99149 -13285739.65447  21545193.353    21545197.781
  21673650.347   -16597590.85649 -12924210.39847  21673649.485    21673655.571
  24670117.657     1016770.11949    811959.67645  24670117.293    24670126.547
  23212835.093    -8825151.51149  -6867711.17345  23212834.898    23212839.891
 03  6 15  1 34 30.0000000  0  7G20G25G 1G16G 2G11G13
  20273377.441   -23920206.23449 -18622676.56848  20273376.554    20273380.954
  23652688.861    -7202733.98049  -5601908.54346  23652688.675    23652694.277
  21207808.086   -19036726.87249 -14804329.53847  21207807.460    21207812.804
  21541039.899   -17089649.45649 -13302749.60647  21541039.349    21541043.732
  21665732.629   -16639198.67149 -12956632.04047  21665731.786    21665737.824
  24686299.847     1101806.51649    878221.40445  24686299.449    24686308.748
  23199144.518    -8897095.87749  -6923771.66946  23199144.218    23199149.270
 03  6 15  1 35  0.0000000  0  7G20G25G 1G16G 2G11G13
  20274799.884   -23912731.08349 -18616851.78248  20274799.019    20274803.457
  23668984.233    -7117100.65749  -5535181.35546  23668984.084    23668989.841
  21200628.591   -19074455.59849 -14833728.54047  21200627.951    21200633.270
  21536993.021   -17110916.14049 -13319321.03747  21536992.441    21536996.801
  21657897.319   -16680373.54449 -12988716.33147  21657896.450    21657902.447
  24702464.936     1186753.36549    944413.33845  24702464.700    24702473.873
  23185463.005    -8968991.95149  -6979794.54646  23185462.798    23185467.879
 03  6 15  1 35 30.0000000  0  7G20G25G 1G16G 2G11G13
  20276330.423   -23904688.13649 -18610584.55948  20276329.549    20276334.007
  23685286.222    -7031433.33749  -5468427.66945  23685285.968    23685291.838
  21193475.808   -19112043.57549 -14863017.86947  21193475.183    21193480.522
  21533053.475   -17131618.75149 -13335452.92947  21533052.898    21533057.238
  21650144.680   -16721113.68349 -13020461.86347  21650143.797    21650149.812
  24718612.584     1271608.61649   1010533.87045  24718612.301    24718621.777
  23171790.907    -9040839.12349  -7035779.31046  23171790.723    23171795.663
 03  6 15  1 36  0.0000000  0  6G20G25G 1G16G 2G13
  20277971.049   -23896066.40349 -18603866.34148  20277970.173    20277974.647
  23701596.667    -6945722.54849  -5401640.11045  23701596.286    23701602.080
  21186352.037   -19149479.40049 -14892188.63547  21186351.374    21186356.741
  21529223.446   -17151745.39849 -13351136.01747  21529222.899    21529227.254
  21642477.111   -16761406.63349 -13051858.93747  21642476.275    21642482.287
  23158130.245    -9112626.48549  -7091717.47746  23158130.020    23158134.910
 03  6 15  1 36 30.0000000  0  6G20G25G 1G16G 2G13
  20279719.326   -23886879.14049 -18596707.44648  20279718.453    20279722.921
  23717912.377    -6859983.34449  -5334830.40645  23717912.051    23717917.825
  21179254.659   -19186776.33449 -14921251.17747  21179253.988    21179259.347
  21525500.647   -17171308.80649 -13366380.22247  21525500.066    21525504.458
  21634892.296   -16801264.95149 -13082917.34147  21634891.486    21634897.437
  23144478.406    -9184367.09149  -7147619.21046  23144478.211    23144483.168
 03  6 15  1 37  0.0000000  0  6G20G25G 1G16G 2G13
  20281575.026   -23877127.41649 -18589108.71048  20281574.148    20281578.631
  23734233.049    -6774218.49049  -5268000.72545  23734232.633    23734238.369
  21172183.534   -19223935.27949 -14950206.19447  21172182.873    21172188.217
  21521884.914   -17190309.54449 -13381185.97847  21521884.350    21521888.731
  21627390.199   -16840688.68449 -13113637.10747  21627389.370    21627395.273
  23130835.232    -9256062.31149  -7203485.58046  23130835.056    23130840.033
 03  6 15  1 37 30.0000000  0  6G20G25G 1G16G 2G13
  20283538.608   -23866808.96949 -18581068.37548  20283537.739    20283542.190
  23750558.578    -6688427.30449  -5201150.52345  23750558.141    23750563.915
  21165139.234   -19260953.59149 -14979051.63047  21165138.559    21165143.849
  21518376.872   -17208744.42449 -13395550.80947  21518376.308    21518380.623
  21619971.507   -16879674.27349 -13144015.46247  21619970.666    21619976.582
  23117201.211    -9327709.54849  -7259314.55846  23117201.104    23117205.984
 03  6 15  1 38  0.0000000  0  6G20G25G 1G16G 2G13
  20285610.453   -23855921.39049 -18572584.56048  20285609.565    20285613.986
  23766889.225    -6602609.01549  -5134279.20045  23766888.795    23766894.637
  21158122.110   -19297828.73649 -15007785.50847  21158121.437    21158126.734
  21514977.081   -17226610.37949 -13409472.32447  21514976.512    21514980.857
  21612636.737   -16918218.43649 -13174049.84947  21612635.904    21612641.863
  23103576.821    -9399306.52549  -7315104.37646  23103576.717    23103581.527
 03  6 15  1 38 30.0000000  0  6G20G25G 1G16G 2G13
  20287790.454   -23844465.41349 -18563657.83648  20287789.576    20287794.002
  23783224.616    -6516766.14349  -5067388.71845  23783224.186    23783230.049
  21151132.105   -19334561.11349 -15036408.12947  21151131.447    21151136.799
  21511685.597   -17243907.50549 -13422950.59447  21511685.010    21511689.329
  21605386.106   -16956320.67649 -13203739.88447  21605385.283    21605391.228
  23089961.871    -9470853.64549  -7370855.34846  23089961.722    23089966.521
 03  6 15  1 39  0.0000000  0  6G20G25G 1G16G 2G13
  20290078.778   -23832440.16949 -18554287.52948  20290077.901    20290082.337
  23799564.606    -6430899.44249  -5000479.66345  23799564.195    23799570.006
  21144169.504   -19371149.59049 -15064918.62747  21144168.866    21144174.216
  21508502.593   -17260634.47549 -13435984.58847  21508501.984    21508506.259
  21598219.904   -16993979.24249 -13233084.19447  21598219.044    21598224.974
  23076356.584    -9542349.88249  -7426566.66146  23076356.451    23076361.207
 03  6 15  1 39 30.0000000  0  6G20G25G 1G16G 2G13
  20292475.683   -23819844.58249 -18544472.79448  20292474.792    20292479.202
  23815908.937    -6345009.24349  -4933552.30345  23815908.589    23815914.427
  21137234.595   -19407592.80449 -15093315.93147  21137233.967    21137239.265
  21505428.348   -17276789.51849 -13448572.92647  21505427.752    21505432.004
  21591138.521   -17031192.02749 -13262081.14147  21591137.656    21591143.582
  23062761.081    -9613794.34549  -7482237.63346  23062760.983    23062765.762
 03  6 15  1 40  0.0000000  0  6G20G25G 1G16G 2G13
  20294981.133   -23806678.41749 -18534213.45248  20294980.228    20294984.649
  23832257.565    -6259096.73749  -4866607.57545  23832257.172    23832262.967
  21130327.505   -19443889.98149 -15121599.44047  21130326.859    21130332.159
  21502463.241   -17292371.49749 -13460714.71747  21502462.665    21502466.882
  21584142.277   -17067957.46749 -13290729.50947  21584141.410    21584147.301
  23049175.582    -9685186.25649  -7537867.64246  23049175.468    23049180.305
 03  6 15  1 40 30.0000000  0  6G20G25G 1G16G 2G13
  20297595.077   -23792941.94049 -18523509.71348  20297594.168    20297598.614
  23848610.153    -6173163.94649  -4799647.02245  23848609.691    23848615.499
  21123448.169   -19480041.08449 -15149769.12347  21123447.522    21123452.860
  21499607.217   -17307380.14749 -13472409.76547  21499606.622    21499610.847
  21577231.233   -17104274.87549 -13319028.75847  21577230.364    21577236.280
  23035600.039    -9756525.92849  -7593456.96346  23035599.946    23035604.794
 03  6 15  1 41  0.0000000  0  6G20G25G 1G16G 2G13
  20300317.700   -23778634.36549 -18512360.96548  20300316.803    20300321.234
  23864966.364    -6087211.70149  -4732671.33145  23864965.967    23864971.690
  21116596.808   -19516044.92249 -15177824.05247  21116596.204    21116601.551
  21496860.526   -17321814.10949 -13483656.99947  21496859.904    21496864.137
  21570405.780   -17140142.41749 -13346977.46847  21570404.919    21570410.861
  23022034.633    -9827812.22449  -7649004.69546  23022034.597    23022039.444
 03  6 15  1 41 30.0000000  0  7G20G25G 1G16G 2G 4G13
  20303148.903   -23763756.12849 -18500767.54448  20303148.013    20303152.481
  23881325.880    -6001241.39149  -4665681.53345  23881325.632    23881331.438
  21109773.562   -19551901.54949 -15205764.27447  21109772.938    21109778.261
  21494223.209   -17335673.17149 -13494456.26147  21494222.600    21494226.853
  21563666.152   -17175559.27849 -13374574.99747  21563665.305    21563671.243
  24443520.679     -881733.29249   -681270.79445  24443519.873    24443527.355
  23008479.465    -9899045.21449  -7704510.89146  23008479.392    23008484.136
 03  6 15  1 42  0.0000000  0  7G20G25G 1G16G 2G 4G13
  20306088.726   -23748307.28549 -18488729.49548  20306087.838    20306092.313
  23897688.686    -5915254.36349  -4598678.72245  23897688.465    23897694.259
  21102978.439   -19587610.46149 -15233589.39647  21102977.782    21102983.065
  21491695.367   -17348956.64449 -13504807.00747  21491694.779    21491699.085
  21557012.490   -17210524.38349 -13401820.50647  21557011.662    21557017.579
  24439729.333     -901657.12349   -696795.83345  24439729.267    24439734.339
  22994934.466    -9970224.44449  -7759975.19246  22994934.438    22994939.076
 03  6 15  1 42 30.0000000  0  8G20G25G 1G16G 2G 4G13G27
  20309134.438   -23732301.97549 -18476257.83448  20309133.540    20309138.043
  23914051.627    -5829266.42049  -4531675.19945  23914051.427    23914057.274
  21096208.759   -19623185.25449 -15261310.00947  21096208.109    21096213.406
  21489274.577   -17361678.10049 -13514719.82747  21489273.945    21489278.272
  21550442.352   -17245050.88749 -13428724.25447  21550441.500    21550447.359
  24436032.330     -921084.76049   -711934.22145  24436031.947    24436038.128
  22981396.995   -10041364.02449  -7815408.59846  22981397.010    22981401.704
  24832195.251    -2814866.73549  -1962243.20845  24832194.790    24832205.095
 03  6 15  1 43  0.0000000  0  8G20G25G 1G16G 2G 4G13G27
  20312289.439   -23715722.24949 -18463338.57448  20312288.545    20312293.046
  23930418.065    -5743260.94249  -4464658.00145  23930417.756    23930423.721
  21089468.127   -19658607.34349 -15288911.62947  21089467.495    21089472.810
  21486964.233   -17373818.65849 -13524179.99747  21486963.625    21486967.958
  21543959.249   -17279119.61549 -13455271.28847  21543958.398    21543964.236
  24432433.027     -939998.36449   -726672.07345  24432432.679    24432439.134
  22967870.668   -10112445.35249  -7870796.60646  22967870.674    22967875.411
  24816820.939    -2895657.99349  -2025197.12045  24816820.443    24816830.653
 03  6 15  1 43 30.0000000  0  8G20G25G 1G16G 2G 4G13G27
  20315554.023   -23698566.91349 -18449970.79348  20315553.145    20315557.612
  23946787.863    -5657238.28849  -4397627.42345  23946787.523    23946793.587
  21082756.914   -19693875.29449 -15316393.14347  21082756.261    21082761.525
  21484764.806   -17385376.74649 -13533186.28247  21484764.197    21484768.537
  21537563.704   -17312728.48849 -13481460.00047  21537562.865    21537568.667
  24428931.999     -958396.53749   -741008.28445  24428931.682    24428938.181
  22954355.694   -10183467.03549  -7926138.13946  22954355.660    22954360.381
  24801474.379    -2976303.27249  -2088037.32145  24801473.997    24801484.037
 03  6 15  1 44  0.0000000  0  8G20G25G 1G16G 2G 4G13G27
  20318927.763   -23680837.94049 -18436156.01948  20318926.860    20318931.356
  23963160.365    -5571201.07049  -4330585.51345  23963159.980    23963165.992
  21076074.781   -19728990.25749 -15343755.44747  21076074.088    21076079.338
  21482675.918   -17396353.59549 -13541739.66647  21482675.334    21482679.739
  21531255.559   -17345878.21949 -13507290.93347  21531254.693    21531260.464
  24425528.757     -976281.09449   -754944.31645  24425528.428    24425534.939
  22940851.839   -10254430.32549  -7981434.17446  22940851.779    22940856.482
  24786155.324    -3056803.99749  -2150764.87745  24786154.933    24786164.875
 03  6 15  1 44 30.0000000  0  8G20G25G 1G16G 2G 4G13G27
  20322410.468   -23662536.06949 -18421894.83348  20322409.589    20322414.124
  23979535.022    -5485151.36049  -4263533.84445  23979534.733    23979540.740
  21069421.660   -19763952.36049 -15370998.63447  21069420.973    21069426.311
  21480697.646   -17406749.37949 -13549840.26647  21480697.073    21480701.479
  21525034.781   -17378568.47849 -13532763.84347  21525033.909    21525039.711
  24422222.903     -993652.75249   -768480.69845  24422222.587    24422229.274
  22927358.972   -10325335.87749  -8036685.20946  22927358.860    22927363.531
  24770863.833    -3137160.18949  -2213379.83545  24770863.380    24770873.229
 03  6 15  1 45  0.0000000  0  8G20G25G 1G16G 2G 4G13G27
  20326002.100   -23643662.02449 -18407187.80148  20326001.212    20326005.753
  23995911.804    -5399091.15549  -4196474.01745  23995911.496    23995917.527
  21062797.671   -19798761.48949 -15398122.62447  21062797.009    21062802.328
  21478829.931   -17416564.15849 -13557488.13147  21478829.356    21478833.791
  21518901.550   -17410798.58149 -13557878.18747  21518900.685    21518906.502
  24419014.622    -1010511.95249   -781617.71545  24419014.418    24419021.167
  22913877.106   -10396183.37849  -8091891.02246  22913877.013    22913881.644
  24755599.696    -3217372.00149  -2275882.26745  24755599.126    24755609.066
 03  6 15  1 45 30.0000000  0  8G20G25G 1G16G 2G 4G13G27
  20329702.452   -23624216.43549 -18392035.41048  20329701.570    20329706.126
  24012290.222    -5313022.20449  -4129407.36945  24012289.938    24012295.912
  21056202.853   -19833417.71449 -15425127.47047  21056202.185    21056207.451
  21477072.769   -17425797.94249 -13564683.27947  21477072.192    21477076.700
  21512856.000   -17442568.22549 -13582633.73047  21512855.140    21512860.923
  24415903.835    -1026859.51749   -794356.06645  24415903.622    24415910.263
  22900406.176   -10466973.48949  -8147052.12846  22900406.059    22900410.675
  24740363.205    -3297439.45449  -2338272.24145  24740362.624    24740372.501
 03  6 15  1 46  0.0000000  0  8G20G25G 1G16G 2G 4G13G27
  20333511.527   -23604199.74849 -18376438.00348  20333510.624    20333515.204
  24028670.010    -5226946.02049  -4062335.10945  24028669.669    24028675.696
  21049637.155   -19867920.76849 -15452012.95647  21049636.460    21049641.753
  21475426.222   -17434450.52049 -13571425.53347  21475425.642    21475430.175
  21506898.208   -17473876.71149 -13607029.92847  21506897.335    21506903.091
  24412890.376    -1042695.75749   -806696.00545  24412889.998    24412896.463
  22886946.210   -10537705.93649  -8202168.28246  22886946.157    22886950.659
  24725154.122    -3377362.61749  -2400549.77845  24725153.602    24725163.260
 03  6 15  1 46 30.0000000  0  8G20G25G 1G16G 2G 4G13G27
  20337429.238   -23583611.93049 -18360395.56048  20337428.341    20337432.936
  24045050.910    -5140863.87749  -3995258.18245  24045050.617    24045056.689
  21043100.762   -19902269.61849 -15478778.28847  21043100.085    21043105.359
  21473890.442   -17442521.31949 -13577714.46047  21473889.845    21473894.340
  21501028.376   -17504722.88349 -13631065.88547  21501027.478    21501033.234
  24409974.164    -1058020.49549   -818637.36145  24409973.907    24409980.332
  22873497.366   -10608379.95049  -8257238.93046  22873497.348    22873501.785
  24709972.718    -3457140.54649  -2462714.13545  24709972.264    24709981.671
 03  6 15  1 47  0.0000000  0  8G20G25G 1G16G 2G 4G13G27
  20341455.663   -23562453.10149 -18343908.17348  20341454.754    20341459.344
  24061432.717    -5054777.11949  -3928177.67645  24061432.437    24061438.594
  21036593.826   -19936463.87449 -15505423.15547  21036593.120    21036598.408
  21472465.392   -17450009.88549 -13583549.69247  21472464.812    21472469.271
  21495246.638   -17535105.69349 -13654740.78547  21495245.771    21495251.555
  24407155.333    -1072833.76349   -830180.16445  24407155.078    24407161.524
  22860059.656   -10678995.31349  -8312263.86146  22860059.600    22860064.109
  24694818.958    -3536773.04049  -2524765.19645  24694818.403    24694827.911
 03  6 15  1 47 30.0000000  0  8G20G25G 1G16G 2G 4G13G27
  20345590.651   -23540723.81349 -18326976.27548  20345589.711    20345594.291
  24077815.124    -4968687.18049  -3861094.69445  24077814.875    24077821.116
  21030116.323   -19970503.04449 -15531947.17547  21030115.644    21030120.945
  21471151.228   -17456915.81449 -13588930.92247  21471150.642    21471155.091
  21489553.307   -17565024.34649 -13678054.00247  21489552.432    21489558.202
  24404433.708    -1087135.84749   -841324.65245  24404433.442    24404439.868
  22846633.259   -10749551.54849  -8367242.72546  22846633.205    22846637.656
  24679692.968    -3616259.60449  -2586702.55345  24679692.335    24679701.986
 03  6 15  1 48  0.0000000  0  8G20G25G 1G16G 2G 4G13G27
  20349834.198   -23518423.77549 -18309599.63548  20349833.274    20349837.838
  24094198.119    -4882594.92449  -3794009.89645  24094197.804    24094203.992
  21023668.547   -20004386.12849 -15558349.57247  21023667.878    21023673.186
  21469948.092   -17463238.47049 -13593857.66147  21469947.505    21469951.894
  21483948.574   -17594477.49349 -13701004.48847  21483947.673    21483953.442
  24401809.506    -1100926.40249   -852070.53845  24401809.169    24401815.656
  22833218.240   -10820047.74749  -8422174.78046  22833218.193    22833222.626
  24664594.888    -3695599.35849  -2648525.53345  24664594.357    24664603.838
 03  6 15  1 48 30.0000000  0  8G20G25G 1G16G 2G 4G13G27
  20354186.161   -23495554.05749 -18291779.09248  20354185.251    20354189.770
  24110581.257    -4796502.14249  -3726924.70445  24110580.872    24110587.019
  21017250.499   -20038113.30149 -15584630.48047  21017249.841    21017255.090
  21468855.820   -17468978.27649 -13598330.22747  21468855.231    21468859.607
  21478432.395   -17623464.99049 -13723592.12847  21478431.491    21478437.286
  24399282.391    -1114206.57149   -862418.70745  24399282.119    24399288.549
  22819814.583   -10890484.35549  -8477060.41846  22819814.481    22819818.921
  24649524.640    -3774792.90349  -2710234.59645  24649524.180    24649533.636
 03  6 15  1 49  0.0000000  0  8G20G25G 1G16G 2G 4G13G27
  20358646.688   -23472114.07349 -18273514.19048  20358645.773    20358650.270
  24126964.238    -4710409.18749  -3659839.38245  24126963.860    24126969.940
  21010862.406   -20071683.13049 -15610788.77847  21010861.703    21010866.944
  21467874.695   -17474133.98749 -13602347.66147  21467874.120    21467878.477
  21473005.194   -17651985.11949 -13745815.58547  21473004.298    21473010.047
  24396852.546    -1126975.53649   -872368.54245  24396852.241    24396858.621
  22806422.527   -10960859.91949  -8531898.50046  22806422.422    22806426.816
  24634482.611    -3853838.58049  -2771828.45445  24634482.133    24634491.384
 03  6 15  1 49 30.0000000  0  8G20G25G 1G16G 2G 4G13G27
  20363215.723   -23448103.71449 -18254804.83448  20363214.780    20363219.317
  24143347.019    -4624316.90749  -3592754.58145  24143346.699    24143352.730
  21004504.347   -20105094.60249 -15636823.68347  21004503.675    21004508.913
  21467004.877   -17478704.78649 -13605909.31647  21467004.302    21467008.657
  21467667.170   -17680036.54849 -13767673.82447  21467666.264    21467671.997
  24394519.922    -1139233.12749   -881919.90445  24394519.695    24394526.030
  22793042.251   -11031173.79249  -8586688.50746  22793042.145    22793046.457
  24619468.877    -3932735.66649  -2833306.50345  24619468.426    24619477.558
 03  6 15  1 50  0.0000000  0  8G20G25G 1G16G 2G 4G13G27
  20367893.001   -23423524.43749 -18235652.16348  20367892.062    20367896.612
  24159729.212    -4538227.71349  -3525672.17645  24159728.928    24159735.011
  20998176.469   -20138347.89349 -15662735.33347  20998175.805    20998180.994
  21466246.251   -17482691.41249 -13609015.76847  21466245.677    21466249.994
  21462418.267   -17707619.47149 -13789166.99447  21462417.388    21462423.152
  24392284.312    -1150980.62549   -891073.78145  24392284.073    24392290.567
  22779673.627   -11101426.44449  -8641430.81046  22779673.480    22779677.850
  24604483.325    -4011484.84449  -2894669.29145  24604482.821    24604491.815
 03  6 15  1 50 30.0000000  0  8G20G25G 1G16G 2G 4G13G27
  20372678.650   -23398375.67449 -18216055.73948  20372677.729    20372682.257
  24176110.964    -4452141.68849  -3458592.22645  24176110.627    24176116.566
  20991878.971   -20171441.73849 -15688522.73747  20991878.285    20991883.441
  21465598.958   -17486092.88849 -13611666.26247  21465598.385    21465602.701
  21457258.899   -17734732.21849 -13810293.78947  21457257.999    21457263.753
  24390146.047    -1162217.27649   -899829.62045  24390145.723    24390152.337
  22766316.779   -11171616.33749  -8696124.20146  22766316.687    22766321.190
  24589525.997    -4090084.86749  -2955915.85645  24589525.616    24589534.434
 03  6 15  1 51  0.0000000  0  8G20G25G 1G16G 2G 4G13G27
  20377572.585   -23372658.08949 -18196016.08248  20377571.671    20377576.152
  24192491.851    -4366060.21149  -3391515.84245  24192491.466    24192497.497
  20985611.849   -20204375.72949 -15714185.57947  20985611.164    20985616.318
  21465063.089   -17488909.16649 -13613860.75947  21465062.486    21465066.803
  21452189.109   -17761374.28049 -13831053.82047  21452188.199    21452193.929
  24388104.872    -1172943.89249   -908188.00545  24388104.627    24388111.103
  22752971.902   -11241743.45649  -8750768.68846  22752971.896    22752976.508
  24574596.998    -4168535.52649  -3017046.00945  24574596.582    24574605.477
 03  6 15  1 51 30.0000000  0  8G20G25G 1G16G 2G 4G13G27
  20382574.761   -23346371.59149 -18175533.11348  20382573.838    20382578.360
  24208871.635    -4279984.65449  -3324444.05645  24208871.277    24208877.266
  20979375.276   -20237148.73649 -15739722.97847  20979374.611    20979379.773
  21464638.628   -17491139.86949 -13615598.96747  21464638.010    21464642.339
  21447209.058   -17787544.45649 -13851446.14547  21447208.197    21447213.890
  24386160.805    -1183160.14649   -916148.74145  24386160.603    24386166.911
  22739639.304   -11311806.93449  -8805363.57846  22739639.275    22739643.896
  24559696.780    -4246836.10949  -3078059.24145  24559696.326    24559705.125
 03  6 15  1 52  0.0000000  0  8G20G25G 1G16G 2G 4G13G27
  20387684.929   -23319517.38349 -18154607.77548  20387684.020    20387688.561
  24225250.018    -4193916.36849  -3257377.92745  24225249.549    24225255.581
  20973169.417   -20269760.68549 -15765134.88247  20973168.727    20973173.878
  21464325.527   -17492785.14549 -13616880.99847  21464324.927    21464329.242
  21442318.862   -17813242.62149 -13871470.67247  21442317.972    21442323.673
  24384313.578    -1192867.05149   -923712.55745  24384313.352    24384319.828
  22726318.771   -11381806.72849  -8859908.84546  22726318.667    22726323.339
  24544825.066    -4324986.84249  -3138955.70345  24544824.592    24544833.078
 03  6 15  1 52 30.0000000  0  8G20G25G 1G16G 2G 4G13G27
  20392903.282   -23292094.92149 -18133239.63948  20392902.367    20392906.910
  24241626.801    -4107855.57949  -3190317.65045  24241626.391    24241632.544
  20966994.525   -20302209.94149 -15790420.01447  20966993.832    20966998.979
  21464124.113   -17493844.07649 -13617706.13947  21464123.486    21464127.752
  21437518.762   -17838467.22949 -13891126.19647  21437517.855    21437523.573
  24382563.499    -1202064.16349   -930879.11245  24382563.273    24382569.633
  22713010.560   -11451741.70849  -8914403.60246  22713010.450    22713015.146
  24529982.148    -4402986.36349  -3199734.34545  24529981.618    24529990.327
 03  6 15  1 53  0.0000000  0  8G20G25G 1G16G 2G 4G13G27
  20398229.530   -23264105.21249 -18111429.49048  20398228.620    20398233.166
  24258002.013    -4021803.87049  -3123264.45545  24258001.475    24258007.793
  20960850.605   -20334496.35749 -15815578.25147  20960849.936    20960855.112
  21464034.177   -17494316.92349 -13618074.58547  21464033.529    21464037.747
  21432808.873   -17863217.83449 -13910412.36347  21432807.956    21432813.688
  24380910.310    -1210751.96649   -937648.82345  24380910.107    24380916.350
  22699714.808   -11521611.24949  -8968847.37646  22699714.714    22699719.429
  24515167.909    -4480834.74149  -3260395.23045  24515167.414    24515176.093
 03  6 15  1 53 30.0000000  0  8G20G25G 1G16G 2G 4G13G27
  20403663.763   -23235548.32249 -18089177.38848  20403662.848    20403667.366
  24274375.336    -3935762.15449  -3056219.06845  24274374.680    24274381.027
  20954737.882   -20366618.72949 -15840608.66347  20954737.207    20954742.382
  21464055.836   -17494203.21149 -13617985.98147  21464055.194    21464059.376
  21428189.388   -17887493.23249 -13929328.24547  21428188.494    21428194.240
  24379353.940    -1218930.69649   -944021.83645  24379353.745    24379360.067
  22686431.642   -11591414.76749  -9023239.70546  22686431.511    22686436.247
  24500382.534    -4558531.17649  -3320937.73645  24500382.059    24500390.744
 03  6 15  1 54  0.0000000  0  8G20G25G 1G16G 2G 4G13G27
  20409205.841   -23206424.70049 -18066483.67048  20409204.912    20409209.431
  24290746.559    -3849731.61549  -2989182.39345  24290745.767    24290752.145
  20948656.515   -20398576.61849 -15865510.90647  20948655.827    20948660.968
  21464189.092   -17493503.05649 -13617440.40047  21464188.422    21464192.600
  21423660.461   -17911293.07049 -13947873.55047  21423659.529    21423665.268
  24377894.274    -1226600.85549   -949998.57545  24377894.105    24377900.624
  22673161.101   -11661151.83649  -9077580.24546  22673160.947    22673165.683
  24485626.197    -4636075.46349  -3381361.68345  24485625.695    24485634.480
 03  6 15  1 54 30.0000000  0  8G20G25G 1G16G 2G 4G13G27
  20414855.628   -23176734.83749 -18043348.73248  20414854.710    20414859.235
  24307115.595    -3763712.70949  -2922154.77745  24307114.855    24307121.038
  20942606.628   -20430369.07149 -15890284.24147  20942605.946    20942611.046
  21464433.982   -17492216.13149 -13616437.60147  21464433.312    21464437.468
  21419222.177   -17934616.29549 -13966047.47947  21419221.252    21419226.999
  24376531.453    -1233762.60049   -955579.14045  24376531.329    24376537.900
  22659903.349   -11730822.01649  -9131868.65846  22659903.166    22659907.831
  24470898.888    -4713467.14649  -3441666.73545  24470898.350    24470907.221
 03  6 15  1 55  0.0000000  0  8G20G25G 1G16G 2G 4G13G27
  20420613.129   -23146479.21649 -18019772.94148  20420612.194    20420616.758
  24323482.073    -3677706.96049  -2855137.39145  24323481.355    24323487.469
  20936588.322   -20461995.40749 -15914928.12847  20936587.632    20936592.737
  21464790.497   -17490342.30849 -13614977.47947  21464789.835    21464794.037
  21414874.702   -17957462.12249 -13983849.40847  21414873.801    21414879.559
  24375265.236    -1240416.52449   -960763.99445  24375265.185    24375271.667
  22646658.423   -11800424.32049  -9186104.19646  22646658.225    22646662.903
  24456200.793    -4790705.57349  -3501852.35545  24456200.176    24456209.118
 03  6 15  1 55 30.0000000  0  8G20G25G 1G16G 2G 4G13G27
  20426478.114   -23115658.46849 -17995756.79248  20426477.184    20426481.787
  24339845.730    -3591715.75149  -2788131.32545  24339844.927    24339851.039
  20930601.795   -20493454.91149 -15939442.02047  20930601.106    20930606.193
  21465258.730   -17487881.52149 -13613059.98347  21465258.091    21465262.322
  21410618.224   -17979829.94349 -14001278.86247  21410617.328    21410623.137
  24374095.570    -1246562.79249   -965553.30345  24374095.515    24374101.994
  22633426.526   -11869958.17349  -9240286.37746  22633426.315    22633431.053
  24441531.873    -4867790.55349  -3561918.40745  24441531.151    24441540.113
 03  6 15  1 56  0.0000000  0  8G20G25G 1G16G 2G 4G13G27
  20432450.614   -23084272.69749 -17971300.36348  20432449.679    20432454.285
  24356206.280    -3505739.38049  -2721136.82845  24356205.649    24356211.960
  20924647.192   -20524746.33449 -15963824.94047  20924646.519    20924651.608
  21465838.738   -17484833.46449 -13610684.87347  21465838.110    21465842.310
  21406452.889   -18001718.57249 -14018334.92447  21406452.002    21406457.894
  24373022.450    -1252201.51749   -969947.11645  24373022.338    24373028.724
  22620207.825   -11939422.63849  -9294414.50046  22620207.636    22620212.429
  24426892.263    -4944721.31149  -3621864.27845  24426891.674    24426900.320
 03  6 15  1 56 30.0000000  0  8G20G25G 1G16G 2G 4G13G27
  20438530.418   -23052323.00749 -17946404.51948  20438529.500    20438534.090
  24372563.871    -3419779.03749  -2654154.82145  24372563.336    24372569.912
  20918724.688   -20555869.43249 -15988076.69647  20918723.989    20918729.120
  21466530.446   -17481198.45949 -13607852.40147  21466529.811    21466534.055
  21402378.832   -18023127.97549 -14035017.56147  21402377.952    21402383.825
  24372045.925    -1257333.65049   -973946.17845  24372045.774    24372052.115
  22607002.574   -12008817.25949  -9348488.19346  22607002.328    22607007.030
  24412282.164    -5021497.80849  -3681689.95545  24412281.598    24412290.048
 03  6 15  1 57  0.0000000  0  8G20G25G 1G16G 2G 4G13G27
  20444717.428   -23019810.22049 -17921069.90148  20444716.517    20444721.102
  24388918.122    -3333836.59249  -2587186.75245  24388917.644    24388924.314
  20912834.322   -20586823.63349 -16012196.84347  20912833.607    20912838.771
  21467333.774   -17476976.87249 -13604562.85247  21467333.144    21467337.389
  21398396.013   -18044057.73549 -14051326.45047  21398395.119    21398400.980
  24371165.640    -1261960.11249   -977551.20945  24371165.384    24371171.735
  22593810.564   -12078141.98249  -9402507.42646  22593810.281    22593814.900
  24397701.509    -5098119.97849  -3741395.38845  24397700.913    24397709.132
 03  6 15  1 57 30.0000000  0  8G20G25G 1G16G 2G 4G13G27
  20451011.526   -22986734.62049 -17895296.72448  20451010.610    20451015.195
  24405268.877    -3247912.64449  -2520233.11945  24405268.574    24405275.144
  20906976.306   -20617607.70749 -16036184.42647  20906975.592    20906980.785
  21468248.834   -17472168.30849 -13600815.92347  21468248.191    21468252.403
  21394504.671   -18064506.74149 -14067260.72647  21394503.793    21394509.622
  24370381.540    -1266080.83249   -980762.14445  24370381.237    24370387.726
  22580631.855   -12147395.78749  -9456471.41346  22580631.664    22580636.264
  24383150.207    -5174587.20749  -3800980.07945  24383149.497    24383157.969
 03  6 15  1 58  0.0000000  0  8G20G25G 1G16G 2G 4G13G27
  20457412.681   -22953096.48249 -17869085.21048  20457411.758    20457416.334
  24421616.121    -3162007.55949  -2453294.15945  24421615.847    24421622.329
  20901150.777   -20648220.74849 -16060038.74147  20901150.095    20901155.309
  21469275.600   -17466772.76549 -13596611.60647  21469274.940    21469279.178
  21390705.021   -18084474.21449 -14082819.78347  21390704.134    21390709.923
  24369693.620    -1269696.06249   -983579.22645  24369693.193    24369699.668
  22567466.913   -12216577.55249  -9510379.24846  22567466.798    22567471.371
  24368628.397    -5250898.69649  -3860443.44545  24368627.681    24368636.312
 03  6 15  1 58 30.0000000  0  8G20G25G 1G16G 2G 4G13G27
  20463920.596   -22918897.00449 -17842436.28448  20463919.673    20463924.295
  24437959.518    -3076122.67749  -2386370.95945  24437959.352    24437965.678
  20895357.939   -20678662.24149 -16083759.37747  20895357.245    20895362.463
  21470413.948   -17460790.50849 -13591950.10647  21470413.302    21470417.548
  21386997.076   -18103959.86749 -14098003.39347  21386996.141    21387001.911
  24369101.811    -1272806.63049   -986003.04245  24369101.363    24369107.702
  22554315.840   -12285687.15649  -9564230.85346  22554315.672    22554320.238
  24354136.214    -5327054.32149  -3919785.35945  24354135.573    24354144.297
 03  6 15  1 59  0.0000000  0  8G20G25G 1G16G 2G 4G13G27
  20470535.255   -22884136.76949 -17815350.40648  20470534.334    20470538.958
  24454298.863    -2990259.16149  -2319464.40045  24454298.641    24454304.989
  20889597.917   -20708931.35749 -16107345.68847  20889597.253    20889602.430
  21471663.952   -17454221.58949 -13586831.46747  21471663.317    21471667.611
  21383380.839   -18122963.12449 -14112811.11147  21383379.914    21383385.664
  24368605.781    -1275413.22049   -988034.14845  24368605.416    24368611.723
  22541178.589   -12354723.77949  -9618025.58746  22541178.397    22541182.979
  24339673.665    -5403053.91849  -3979005.68445  24339673.155    24339681.893
 03  6 15  1 59 30.0000000  0  8G20G25G 1G16G 2G 4G13G27
  20477256.589   -22848815.98649 -17787827.74048  20477255.671    20477260.286
  24470634.076    -2904417.65749  -2252574.99545  24470633.892    24470640.136
  20883870.967   -20739026.92249 -16130796.77347  20883870.277    20883875.391
  21473025.634   -17447065.79349 -13581255.52247  21473024.984    21473029.289
  21379856.617   -18141483.09449 -14127242.24547  21379855.684    21379861.409
  24368205.537    -1277516.09849   -989672.75645  24368205.252    24368211.619
  22528055.289   -12423686.53149  -9671762.76446  22528055.142    22528059.820
  24325241.026    -5478896.69049  -4038103.81245  24325240.557    24325249.285
 03  6 15  2  0  0.0000000  0  8G20G25G 1G16G 2G 4G13G27
  20484084.382   -22812935.85149 -17759869.21448  20484083.454    20484088.060
  24486964.934    -2818599.34149  -2185703.67845  24486964.747    24486970.935
  20878177.113   -20768948.42349 -16154112.22247  20878176.399    20878181.471
  21474498.897   -17439323.77449 -13575222.77947  21474498.244    21474502.550
  21376424.369   -18159519.59349 -14141296.64947  21376423.440    21376429.155
  24367901.025    -1279116.05349   -990919.46745  24367900.873    24367907.197
  22514946.304   -12492574.73949  -9725441.85946  22514946.157    22514950.767
  24310838.400    -5554582.55249  -4097079.67045  24310837.818    24310846.511
 03  6 15  2  0 30.0000000  0  8G20G25G 1G16G 2G 4G13G27
  20491018.405   -22776497.28949 -17731475.54648  20491017.484    20491022.095
  24503291.166    -2732805.53149  -2118851.45745  24503290.855    24503297.210
  20872516.469   -20798695.21549 -16177291.53547  20872515.748    20872520.807
  21476083.623   -17430995.86749 -13568733.50647  21476082.957    21476087.355
  21373084.143   -18177072.38749 -14154974.13647  21373083.222    21373088.950
  24367692.060    -1280213.91849   -991774.96245  24367691.908    24367698.370
  22501851.534   -12561388.13849  -9779062.66946  22501851.402    22501855.926
  24296465.594    -5630111.47949  -4155933.24345  24296465.048    24296473.745
 03  6 15  2  1  0.0000000  0  8G20G25G 1G16G 2G 4G13G27
  20498058.558   -22739501.31549 -17702647.53648  20498057.620    20498062.232
  24519612.438    -2647037.28849  -2052019.14645  24519612.166    24519618.450
  20866889.234   -20828266.59549 -16200334.16247  20866888.524    20866893.607
  21477779.769   -17422082.47049 -13561788.00147  21477779.143    21477783.490
  21369836.090   -18194141.12749 -14168274.44247  21369835.171    21369840.884
  24367578.374    -1280810.76549   -992240.05745  24367578.097    24367584.864
  22488771.082   -12630126.25549  -9832624.81046  22488770.938    22488775.416
  24282122.757    -5705483.26149  -4214664.37345  24282122.147    24282130.670
 03  6 15  2  1 30.0000000  0  8G20G25G 1G16G 2G 4G13G27
  20505204.663   -22701948.14749 -17673385.34448  20505203.733    20505208.341
  24535928.719    -2561294.66749  -1985206.81245  24535928.381    24535934.867
  20861295.662   -20857661.00649 -16223238.89248  20861294.956    20861300.051
  21479587.425   -17412582.97849 -13554385.80147  21479586.802    21479591.175
  21366680.414   -18210724.43149 -14181196.47947  21366679.466    21366685.157
  24367560.134    -1280905.99349   -992314.25845  24367559.959    24367566.657
  22475705.253   -12698787.29249  -9886126.88246  22475705.103    22475709.600
  24267810.085    -5780696.72449  -4273272.14545  24267809.476    24267817.983
 03  6 15  2  2  0.0000000  0  8G20G25G 1G16G 2G 4G13G27
  20512456.684   -22663838.50649 -17643689.54148  20512455.752    20512460.371
  24552239.904    -2475578.93449  -1918415.43845  24552239.638    24552246.083
  20855735.885   -20886877.81649 -16246005.23947  20855735.175    20855740.264
  21481506.541   -17402497.95649 -13546527.34347  21481505.953    21481510.303
  21363617.123   -18226822.01249 -14193740.03947  21363616.176    21363621.845
  24367637.199    -1280501.04649   -991998.74045  24367637.026    24367643.608
  22462654.187   -12767371.08149  -9939568.77846  22462654.108    22462658.509
  24253527.499    -5855751.79149  -4331756.49345  24253526.892    24253535.236
 03  6 15  2  2 30.0000000  0  8G20G25G 1G16G 2G 4G13G27
  20519814.400   -22625173.53749 -17613561.01248  20519813.469    20519818.113
  24568545.875    -2389890.89449  -1851645.63845  24568545.500    24568552.059
  20850210.012   -20915916.45149 -16268632.73747  20850209.310    20850214.386
  21483537.049   -17391827.74249 -13538212.88947  21483536.427    21483540.793
  21360646.325   -18242433.66649 -14205904.95247  21360645.373    21360650.998
  24367809.325    -1279596.61349   -991293.99445  24367809.087    24367815.854
  22449618.064   -12835876.85349  -9992949.88046  22449617.913    22449622.214
  24239275.068    -5930648.56249  -4390117.48345  24239274.419    24239282.747
 03  6 15  2  3  0.0000000  0  8G20G25G 1G16G 2G 4G13G27
  20527277.612   -22585954.06549 -17583000.40348  20527276.662    20527281.333
  24584846.228    -2304231.95149  -1784898.51045  24584845.865    24584852.592
  20844718.224   -20944775.98949 -16291120.68447  20844717.512    20844722.591
  21485678.850   -17380572.74549 -13529442.76247  21485678.214    21485682.562
  21357768.139   -18257558.92449 -14217690.85347  21357767.185    21357772.777
  24368076.367    -1278193.36649   -990200.55145  24368076.152    24368082.927
  22436596.807   -12904304.09049 -10046269.76846  22436596.637    22436600.927
  24225052.935    -6005386.41549  -4448354.64745  24225052.235    24225060.626
 03  6 15  2  3 30.0000000  0  8G20G25G 1G16G 2G 4G13G27
  20534846.232   -22546180.79449 -17552008.26648  20534845.282    20534849.952
  24601140.901    -2218602.49949  -1718174.32945  24601140.614    24601147.377
  20839260.717   -20973455.28549 -16313468.18547  20839260.001    20839265.071
  21487931.836   -17368733.17949 -13520217.12547  21487931.205    21487935.525
  21354982.521   -18272197.33049 -14229097.39647  21354981.554    21354987.140
  24368438.203    -1276291.74849   -988718.78245  24368437.981    24368444.740
  22423590.662   -12972651.73149 -10099527.65646  22423590.501    22423594.712
  24210861.047    -6079964.94049  -4506467.66545  24210860.330    24210868.765
 03  6 15  2  4  0.0000000  0  8G20G25G 1G16G 2G 4G13G27
  20542520.106   -22505854.44349 -17520585.15348  20542519.150    20542523.829
  24617429.873    -2133003.33949  -1651473.78845  24617429.508    24617436.439
  20833837.750   -21001953.18549 -16335674.32947  20833837.015    20833842.087
  21490296.080   -17356309.18349 -13510536.08947  21490295.468    21490299.711
  21352289.654   -18286348.25549 -14240124.07647  21352288.708    21352294.298
  24368894.840    -1273892.55349   -986849.28545  24368894.506    24368901.299
  22410599.812   -13040918.96449 -10152722.86746  22410599.615    22410603.893
  24196699.538    -6154383.69949  -4564456.19245  24196698.854    24196707.175
 03  6 15  2  4 30.0000000  0  8G20G25G 1G16G 2G 4G13G27
  20550298.963   -22464976.36149 -17488732.12648  20550298.005    20550302.701
  24633712.811    -2047435.83449  -1584797.87845  24633712.406    24633719.471
  20828449.402   -21030269.14849 -16357738.71748  20828448.685    20828453.750
  21492771.386   -17343301.30949 -13500400.09247  21492770.804    21492774.984
  21349689.604   -18300011.59249 -14250770.82347  21349688.658    21349694.255
  24369445.982    -1270996.93149   -984592.97245  24369445.664    24369452.397
  22397624.403   -13109104.89749 -10205854.75246  22397624.237    22397628.567
  24182568.487    -6228642.67049  -4622320.21245  24182567.846    24182575.993
 03  6 15  2  5  0.0000000  0  8G20G25G 1G16G 2G 4G13G27
  20558182.744   -22423546.82049 -17456449.38748  20558181.787    20558186.477
  24649989.826    -1961900.03449  -1518146.70445  24649989.336    24649996.672
  20823095.944   -21058401.68449 -16379660.17348  20823095.211    20823100.294
  21495357.880   -17329709.43949 -13489809.02847  21495357.274    21495361.451
  21347182.573   -18313186.31049 -14261036.82947  21347181.604    21347187.191
  24370091.514    -1267604.89549   -981949.84245  24370091.207    24370097.761
  22384664.748   -13177208.23949 -10258922.26746  22384664.589    22384668.925
  24168468.105    -6302740.83749  -4680058.91445  24168467.318    24168475.422
 03  6 15  2  5 30.0000000  0  8G20G25G 1G16G 2G 4G13G27
  20566171.142   -22381567.77749 -17423738.47048  20566170.157    20566174.826
  24666260.456    -1876397.59249  -1451521.51145  24666260.003    24666267.280
  20817777.355   -21086350.97749 -16401438.84148  20817776.633    20817781.684
  21498055.187   -17315534.93749 -13478763.96947  21498054.567    21498058.761
  21344768.355   -18325873.14949 -14270922.66847  21344767.385    21344772.935
  24370831.072    -1263718.31649   -978921.34745  24370830.845    24370837.431
  22371720.735   -13245229.29549 -10311925.66946  22371720.590    22371724.918
  24154398.039    -6376679.11849  -4737673.05745  24154397.299    24154405.258
 03  6 15  2  6  0.0000000  0  8G20G25G 1G16G 2G 4G13G27
  20574264.000   -22339039.66449 -17390599.70148  20574263.024    20574267.631
  24682524.422    -1790929.23849  -1384922.88745  24682524.124    24682531.336
  20812493.982   -21114115.48349 -16423073.52248  20812493.241    20812498.253
  21500863.339   -17300777.79849 -13467264.89947  21500862.732    21500866.901
  21342447.117   -18338071.27649 -14280427.68947  21342446.162    21342451.685
  24371664.759    -1259337.54349   -975507.78145  24371664.468    24371671.078
  22358792.622   -13313166.84949 -10364864.01346  22358792.450    22358796.808
  24140358.593    -6450456.53549  -4795161.83645  24140357.908    24140365.675
 03  6 15  2  6 30.0000000  0  8G20G25G 1G16G 2G 4G13G27
  20582461.092   -22295963.98849 -17357034.26448  20582460.109    20582464.658
  24698781.769    -1705496.06349  -1318351.67245  24698781.529    24698788.767
  20807245.828   -21141694.65649 -16444563.78648  20807245.074    20807250.108
  21503782.361   -17285438.69749 -13455312.36047  21503781.682    21503785.870
  21340218.839   -18349780.78849 -14289551.97347  21340217.885    21340223.390
  24372592.362    -1254463.90849   -971710.17945  24372592.026    24372598.446
  22345880.536   -13381020.25849 -10417736.77746  22345880.349    22345884.758
  24126349.767    -6524073.25949  -4852525.40645  24126349.046    24126356.736
 03  6 15  2  7  0.0000000  0  8G20G25G 1G16G 2G 4G13G27
  20590762.144   -22252341.80749 -17323042.97748  20590761.163    20590765.697
  24715032.498    -1620098.82549  -1251808.45945  24715032.130    24715039.522
  20802033.055   -21169087.82249 -16465909.10848  20802032.303    20802037.366
  21506811.859   -17269518.64449 -13442907.13047  21506811.174    21506815.303
  21338083.585   -18361001.51249 -14298295.38647  21338082.623    21338088.104
  24373613.444    -1249098.27149   -967529.16745  24373613.179    24373619.492
  22332984.572   -13448789.01649 -10470543.58046  22332984.396    22332988.844
  24112371.529    -6597529.16549  -4909763.68945  24112370.883    24112378.337
 03  6 15  2  7 30.0000000  0  8G20G25G 1G16G 2G 4G13G27
  20599166.968   -22208174.11749 -17288626.62048  20599166.014    20599170.563
  24731276.258    -1534738.36549  -1185293.90245  24731275.943    24731283.138
  20796855.896   -21196293.78649 -16487108.55648  20796855.157    20796860.265
  21509951.881   -17253017.68449 -13430049.24347  21509951.210    21509955.285
  21336041.486   -18371732.91649 -14306657.50947  21336040.516    21336045.951
  24374727.892    -1243241.49949   -962965.46345  24374727.717    24374733.901
  22320104.820   -13516472.11749 -10523283.63446  22320104.683    22320109.161
  24098423.985    -6670823.77749  -4966876.26245  24098423.299    24098430.679
 03  6 15  2  8  0.0000000  0  8G20G25G 1G16G 2G 4G13G27
  20607675.460   -22163461.62449 -17253785.73748  20607674.504    20607679.076
  24747513.010    -1449415.36249  -1118808.54545  24747512.633    24747519.524
  20791714.620   -21223311.40649 -16508161.24848  20791713.876    20791718.983
  21513202.405   -17235936.32349 -13416739.09747  21513201.730    21513205.794
  21334092.548   -18381974.58649 -14314638.02047  21334091.576    21334096.985
  24375935.634    -1236894.23149   -958019.56145  24375935.490    24375941.688
  22307241.561   -13584068.58549 -10575956.18546  22307241.478    22307245.919
  24084507.094    -6743956.66549  -5023862.82945  24084506.423    24084513.837
 03  6 15  2  8 30.0000000  0  8G20G25G 1G16G 2G 4G13G27
  20616287.439   -22118205.45549 -17218521.21948  20616286.492    20616291.078
  24763742.336    -1364129.96949  -1052352.45945  24763741.998    24763748.766
  20786609.319   -21250139.82949 -16529066.51748  20786608.560    20786613.660
  21516563.258   -17218275.12249 -13402977.13247  21516562.534    21516566.664
  21332236.790   -18391726.32149 -14322236.77047  21332235.840    21332241.222
  24377236.525    -1230057.58449   -952692.34445  24377236.470    24377242.503
  22294395.107   -13651577.44249 -10628560.48246  22294395.001    22294399.343
  24070621.053    -6816927.52049  -5080723.14645  24070620.466    24070627.899
 03  6 15  2  9  0.0000000  0  8G20G25G 1G16G 2G 4G13G27
  20625002.662   -22072406.53249 -17182833.76247  20625001.699    20625006.341
  24779964.281    -1278883.26749   -985926.53945  24779964.018    24779970.832
  20781540.323   -21276777.58349 -16549823.20448  20781539.599    20781544.651
  21520034.346   -17200034.27049 -13388763.48647  21520033.641    21520037.811
  21330474.412   -18400987.68749 -14329453.40647  21330473.451    21330478.823
  24378630.542    -1222732.06849   -946984.16345  24378630.406    24378636.532
  22281565.540   -13718997.36949 -10681095.47046  22281565.443    22281569.724
  24056766.037    -6889735.74549  -5137456.73745  24056765.428    24056772.872
 03  6 15  2  9 30.0000000  0  8G20G25G 1G16G 2G 4G13G27
  20633820.795   -22026066.74849 -17146724.86347  20633819.844    20633824.560
  24796178.529    -1193677.00149   -919532.10145  24796178.363    24796185.049
  20776507.646   -21303224.65849 -16570431.31448  20776506.914    20776511.971
  21523615.502   -17181215.33549 -13374099.38847  21523614.752    21523618.935
  21328805.179   -18409759.42149 -14336288.51047  21328804.206    21328809.567
  24380117.195    -1214919.60949   -940896.56045  24380117.116    24380123.308
  22268752.901   -13786328.55349 -10733561.29746  22268752.743    22268757.028
  24042941.804    -6962382.02149  -5194064.14245  24042941.188    24042948.669
 03  6 15  2 10  0.0000000  0  8G20G25G 1G16G 2G 4G13G27
  20642741.760   -21979186.80749 -17110195.06448  20642740.818    20642745.582
  24812385.148    -1108511.28449   -853169.24245  24812384.783    24812391.649
  20771511.513   -21329479.50249 -16590889.63248  20771510.752    20771515.844
  21527306.548   -17161818.33949 -13358984.85247  21527305.826    21527310.067
  21327229.354   -18418040.69749 -14342741.44247  21327228.367    21327233.667
  24381696.463    -1206620.71049   -934429.90245  24381696.313    24381702.690
  22255957.318   -13853569.56349 -10785956.85646  22255957.172    22255961.480
  24029148.499    -7034865.51549  -5250544.69245  24029147.947    24029155.408
 03  6 15  2 10 30.0000000  0  8G20G25G 1G16G 2G 4G13G27
  20651765.441   -21931767.56449 -17073245.02748  20651764.461    20651769.171
  24828583.882    -1023386.38849   -786838.21445  24828583.540    24828590.394
  20766552.160   -21355540.90249 -16611197.21048  20766551.426    20766556.556
  21531107.606   -17141843.53149 -13343420.07447  21531106.885    21531111.154
  21325746.890   -18425831.11149 -14348811.88347  21325745.893    21325751.186
  24383368.077    -1197835.96849   -927584.67745  24383367.905    24383374.319
  22243179.176   -13920719.23649 -10838281.25346  22243179.018    22243183.304
  24015386.372    -7107185.79549  -5306898.06945  24015385.904    24015393.376
 03  6 15  2 11  0.0000000  0  8G20G25G 1G16G 2G 4G13G27
  20660891.279   -21883811.24649 -17035876.49148  20660890.293    20660894.944
  24844774.461     -938304.27449   -720540.48345  24844774.171    24844781.071
  20761629.563   -21381409.00649 -16631354.17248  20761628.853    20761633.990
  21535018.302   -17121292.73549 -13327406.47347  21535017.578    21535021.848
  21324357.554   -18433131.67449 -14354500.62347  21324356.595    21324361.905
  24385131.955    -1188567.34349   -920362.40245  24385131.784    24385138.209
  22230418.453   -13987777.68749 -10890534.55946  22230418.252    22230422.481
  24001655.161    -7179343.58449  -5363124.82645  24001654.700    24001662.145
 03  6 15  2 11 30.0000000  0  8G20G25G 1G16G 2G 4G13G27
  20670119.270   -21835317.90949 -16998089.50747  20670118.305    20670122.915
  24860957.022     -853264.49049   -654275.79045  24860956.587    24860963.631
  20756744.205   -21407081.73449 -16651358.89448  20756743.466    20756748.638
  21539038.625   -17100165.59949 -13310943.77947  21539037.904    21539042.153
  21323061.732   -18439941.15449 -14359806.70447  21323060.772    21323066.117
  24386987.738    -1178815.13049   -912763.29545  24386987.511    24386993.945
  22217675.429   -14054742.88349 -10942715.21246  22217675.204    22217679.361
  23987955.099    -7251337.53249  -5419223.90945  23987954.515    23987962.068
 03  6 15  2 12  0.0000000  0  8G20G25G 1G16G 2G 4G13G27
  20679449.050   -21786289.59949 -16959885.65747  20679448.086    20679452.700
  24877131.180     -768268.43949   -588045.17145  24877130.811    24877137.813
  20751896.062   -21432558.75149 -16671211.11548  20751895.362    20751900.541
  21543168.387   -17078463.54849 -13294033.09647  21543167.685    21543171.873
  21321859.313   -18446259.95949 -14364730.44147  21321858.355    21321863.689
  24388935.174    -1168580.94749   -904788.63445  24388934.961    24388941.443
  22204950.079   -14121614.68849 -10994823.08646  22204949.913    22204954.050
  23974286.063    -7323168.21349  -5475195.79145  23974285.398    23974292.954
 03  6 15  2 12 30.0000000  0  7G20G 1G16G 2G 4G13G27
  20688880.632   -21736726.55549 -16921265.12347  20688879.657    20688884.297
  20747085.595   -21457838.02849 -16690909.24948  20747084.872    20747090.075
  21547407.628   -17056186.23349 -13276674.16047  21547406.921    21547411.152
  21320750.394   -18452087.15449 -14369271.10547  21320749.422    21320754.783
  24390974.487    -1157864.80149   -896438.41745  24390974.300    24390980.528
  22192242.929   -14188390.87249 -11046856.44346  22192242.800    22192246.913
  23960648.304    -7394834.31149  -5531039.41145  23960647.580    23960655.209
 03  6 15  2 13  0.0000000  0  7G20G 1G16G 2G 4G13G27
  20698414.518   -21686625.48249 -16882225.35147  20698413.557    20698418.252
  20742313.853   -21482913.83449 -16710448.83948  20742313.115    20742318.273
  21551756.970   -17033330.06949 -13258864.17047  21551756.260    21551760.523
  21319735.903   -18457418.12849 -14373425.10347  21319734.925    21319740.331
  24393106.026    -1146663.56149   -887710.21545  24393105.854    24393112.002
  22179555.069   -14255066.05049 -11098811.09446  22179554.894    22179558.971
  23947042.833    -7466331.11449  -5586751.12745  23947042.058    23947049.694
 03  6 15  2 13 30.0000000  0  7G20G 1G16G 2G 4G13G27
  20708048.935   -21635996.27649 -16842774.04647  20708047.967    20708052.685
  20737579.311   -21507793.89849 -16729835.89848  20737578.573    20737583.715
  21556214.725   -17009904.40149 -13240610.41047  21556214.033    21556218.245
  21318814.207   -18462261.36149 -14377199.04847  21318813.243    21318818.721
  24395328.128    -1134986.76549   -878611.42045  24395327.856    24395334.078
  22166884.975   -14321648.14649 -11150693.22146  22166884.775    22166888.761
  23933468.047    -7537667.07549  -5642337.50345  23933467.205    23933474.864
 03  6 15  2 14  0.0000000  0  7G20G 1G16G 2G 4G13G27
  20717783.965   -21584838.32449 -16802910.74147  20717783.007    20717787.733
  20732882.550   -21532475.36449 -16749068.21048  20732881.835    20732886.973
  21560781.150   -16985908.06849 -13221911.98047  21560780.462    21560784.605
  21317985.728   -18466614.91449 -14380591.42447  21317984.796    21317990.289
  24397640.874    -1122833.58849   -869141.42845  24397640.556    24397646.654
  22154233.160   -14388134.03249 -11202500.38446  22154232.934    22154236.909
  23919924.132    -7608839.95449  -5697796.80645  23919923.342    23919930.979
 03  6 15  2 14 30.0000000  0  7G20G 1G16G 2G 4G13G27
  20727619.461   -21533152.61849 -16762636.20047  20727618.488    20727623.206
  20728223.921   -21556956.85849 -16768144.69948  20728223.200    20728228.305
  21565456.069   -16961341.38949 -13202769.12547  21565455.346    21565459.527
  21317250.544   -18470478.34649 -14383601.88747  21317249.585    21317255.109
  24400044.057    -1110204.82649   -859300.85445  24400043.712    24400049.864
  22141599.745   -14454522.60149 -11254231.70846  22141599.550    22141603.563
  23906411.418    -7679849.20649  -5753128.60645  23906410.686    23906418.318
 03  6 15  2 15  0.0000000  0  7G20G 1G16G 2G 4G13G27
  20737555.092   -21480940.44149 -16721951.41147  20737554.130    20737558.864
  20723603.559   -21581237.33049 -16787064.54348  20723602.808    20723607.897
  21570239.200   -16936205.55649 -13183182.77147  21570238.534    21570242.745
  21316608.575   -18473851.85749 -14386230.59347  21316607.630    21316613.099
  24402537.395    -1097101.91249   -849090.81745  24402537.215    24402543.283
  22128985.069   -14520812.76049 -11305886.35146  22128984.873    22128988.914
  23892929.877    -7750694.73449  -5808332.83145  23892929.150    23892936.779
 03  6 15  2 15 30.0000000  0  7G20G 1G16G 2G 4G13G27
  20747590.908   -21428202.02449 -16680856.56847  20747589.932    20747594.630
  20719021.771   -21605314.61849 -16805826.06848  20719021.030    20719026.135
  21575130.864   -16910499.92449 -13163152.42047  21575130.168    21575134.379
  21316060.083   -18476734.23349 -14388476.59447  21316059.109    21316064.584
  24405121.074    -1083524.80149   -838511.26845  24405120.837    24405127.129
  22116389.500   -14587002.59449 -11357462.82146  22116389.272    22116393.375
  23879479.726    -7821375.11649  -5863408.37445  23879479.030    23879486.620
 03  6 15  2 16  0.0000000  0  7G20G 1G16G 2G 4G13G27
  20757726.376   -21374940.14849 -16639353.84147  20757725.386    20757730.041
  20714478.530   -21629189.16649 -16824429.61348  20714477.796    20714482.960
  21580130.455   -16884227.01449 -13142680.03647  21580129.757    21580133.934
  21315604.704   -18479126.95949 -14390341.05447  21315603.755    21315609.262
  24407794.460    -1069476.06549   -827564.24345  24407794.185    24407800.522
  22103812.976   -14653092.30749 -11408961.26946  22103812.779    22103816.871
  23866060.784    -7891891.56749  -5918356.17345  23866060.140    23866067.747
 03  6 15  2 16 30.0000000  0  7G20G 1G16G 2G 4G13G27
  20767961.290   -21321155.43749 -16597443.70547  20767960.300    20767964.946
  20709974.342   -21652858.84849 -16842873.52148  20709973.624    20709978.792
  21585238.032   -16857386.87449 -13121765.65547  21585237.301    21585241.459
  21315242.751   -18481029.10549 -14391823.24347  21315241.835    21315247.332
  24410557.518    -1054956.21849   -816250.10445  24410557.462    24410563.656
  22091255.935   -14719079.75449 -11460380.04447  22091255.782    22091259.867
  23852673.242    -7962243.00449  -5973175.39145  23852672.608    23852680.186
 03  6 15  2 17  0.0000000  0  7G20G 1G16G 2G 4G13G27
  20778295.343   -21266849.69649 -16555127.57747  20778294.346    20778299.002
  20705509.294   -21676322.96849 -16861157.25048  20705508.565    20705513.740
  21590453.182   -16829980.75449 -13100410.25247  21590452.471    21590456.688
  21314974.056   -18482441.36149 -14392923.69947  21314973.091    21314978.584
  24413409.970    -1039966.88049   -804570.12845  24413409.848    24413416.118
  22078718.499   -14784964.44349 -11511718.73747  22078718.331    22078722.449
  23839317.226    -8032429.69749  -6027866.24545  23839316.545    23839323.956
 03  6 15  2 17 30.0000000  0  7G20G 1G16G 2G 4G13G27
  20788728.392   -21212023.81149 -16512406.13947  20788727.413    20788732.074
  20701083.728   -21699579.82849 -16879279.47448  20701082.968    20701088.112
  21595775.967   -16802009.22349 -13078614.26947  21595775.276    21595779.495
  21314798.568   -18483363.24449 -14393642.04347  21314797.623    21314803.114
  24416351.577    -1024508.72449   -792524.83845  24416351.411    24416357.633
  22066200.756   -14850745.26949 -11562976.50147  22066200.577    22066204.753
  23825992.582    -8102451.02349  -6082428.24145  23825991.929    23825999.361
 03  6 15  2 18  0.0000000  0  7G20G 1G16G 2G 4G13G27
  20799260.137   -21156679.30949 -16469280.58147  20799259.142    20799263.802
  20696697.704   -21722628.64549 -16897239.59348  20696696.945    20696702.084
  21601206.166   -16773473.11849 -13056378.35347  21601205.467    21601209.754
  21314716.391   -18483794.93449 -14393978.42047  21314715.480    21314720.965
  24419382.193    -1008583.26549   -780115.41345  24419382.023    24419388.128
  22053702.929   -14916421.01949 -11614152.38547  22053702.809    22053707.028
  23812699.277    -8172306.63849  -6136861.11245  23812698.692    23812706.227
 03  6 15  2 18 30.0000000  0  7G20G 1G16G 2G 4G13G27
  20809890.308   -21100817.39949 -16425751.85047  20809889.323    20809893.988
  20692351.525   -21745467.93649 -16915036.44848  20692350.764    20692355.889
  21606743.566   -16744373.27649 -13033703.17147  21606742.903    21606747.290
  21314727.588   -18483736.03549 -14393932.52247  21314726.662    21314732.174
  24422501.494     -992191.43449   -767342.58445  24422501.284    24422507.422
  22041225.535   -14981990.07649 -11665245.13647  22041225.427    22041229.609
  23799437.623    -8241996.17549  -6191164.58945  23799437.053    23799444.615
 03  6 15  2 19  0.0000000  0  7G20G 1G16G 2G 4G13G27
  20820618.584   -21044440.13249 -16381821.54447  20820617.596    20820622.271
  20688045.314   -21768097.31049 -16932669.72648  20688044.525    20688049.649
  21612388.051   -16714711.25749 -13010589.92347  21612387.396    21612391.792
  21314832.008   -18483187.40749 -14393505.01647  21314831.069    21314836.571
  24425709.021     -975335.02049   -754207.73345  24425708.905    24425715.256
  22028768.561   -15047452.16049 -11716254.53947  22028768.421    22028772.566
  23786207.613    -8311520.27049  -6245339.12845  23786206.952    23786214.589
 03  6 15  2 19 30.0000000  0  7G20G 1G16G 2G 4G13G27
  20831444.566   -20987549.48749 -16337491.20447  20831443.582    20831448.233
  20683779.163   -21790516.03349 -16950138.86448  20683778.398    20683783.489
  21618139.227   -16684488.69949 -12987039.89147  21618138.584    21618142.972
  21315029.496   -18482149.64749 -14392696.36947  21315028.543    21315034.036
  24429004.579     -958016.06849   -740712.46945  24429004.432    24429011.012
  22016332.061   -15112806.60249 -11767180.06847  22016331.921    22016336.044
  23773008.982    -8380878.94349  -6299384.77545  23773008.349    23773015.944
 03  6 15  2 20  0.0000000  0  7G20G 1G16G 2G 4G13G27
  20842368.063   -20930146.47049 -16292761.61447  20842367.069    20842371.714
  20679553.393   -21812722.51749 -16967442.61948  20679552.614    20679557.706
  21623996.976   -16653706.02749 -12963053.40847  21623996.319    21624000.737
  21315320.080   -18480622.49249 -14391506.37847  21315319.132    21315324.640
  24432388.251     -940235.29249   -726857.35445  24432388.059    24432394.517
  22003916.213   -15178051.96449 -11818020.58947  22003916.076    22003920.216
  23759841.835    -8450071.72749  -6353301.14945  23759841.274    23759848.909
 03  6 15  2 20 30.0000000  0  7G20G 1G16G 2G 4G13G27
  20853388.561   -20872233.21949 -16247634.43347  20853387.570    20853392.256
  20675368.034   -21834716.36449 -16984580.67448  20675367.271    20675372.400
  21629960.945   -16622365.07049 -12938631.89647  21629960.310    21629964.781
  21315703.615   -18478606.85249 -14389935.74747  21315702.686    21315708.209
  24435859.240     -921994.95149   -712644.13445  24435859.127    24435865.536
  21991521.288   -15243187.83049 -11868775.78747  21991521.097    21991525.274
  23746706.426    -8519098.87649  -6407088.46745  23746705.907    23746713.442
 03  6 15  2 21  0.0000000  0  7G20G 1G16G 2G 4G13G27
  20864505.852   -20813811.39649 -16202110.97047  20864504.884    20864509.569
  20671223.396   -21856496.42049 -17001552.15248  20671222.650    20671227.795
  21636030.992   -16590466.83549 -12913776.14447  21636030.368    21636034.832
  21316180.074   -18476102.86249 -14387984.58347  21316179.146    21316184.709
  24439417.528     -903296.12149   -698073.63645  24439417.404    24439423.810
  21979147.459   -15308212.87849 -11919444.65147  21979147.263    21979151.367
  23733602.622    -8587960.40449  -6460746.72746  23733602.049    23733609.437
 03  6 15  2 21 30.0000000  0  7G20G 1G16G 2G 4G13G27
  20875719.634   -20754882.84449 -16156192.64347  20875718.621    20875723.318
  20667119.617   -21878062.09449 -17018356.57148  20667118.831    20667123.986
  21642206.879   -16558012.69049 -12888487.21947  21642206.222    21642210.633
  21316749.426   -18473110.92349 -14385653.19947  21316748.512    21316754.102
  24443062.802     -884140.78849   -683147.42045  24443062.630    24443068.882
  21966794.853   -15373126.48849 -11970026.66147  21966794.605    21966798.677
  23720530.170    -8656656.52849  -6514276.08846  23720529.610    23720536.964
 03  6 15  2 22  0.0000000  0  7G20G 1G16G 2G 4G13G27
  20887029.431   -20695449.23949 -16109880.77547  20887028.431    20887033.173
  20663056.844   -21899412.02449 -17034992.87748  20663056.074    20663061.201
  21648488.283   -16525003.92349 -12862766.11647  21648487.584    21648491.950
  21317411.649   -18469631.26349 -14382941.77147  21317410.714    21317416.279
  24446794.705     -864530.20549   -667866.47145  24446794.467    24446800.590
  21954463.667   -15437927.26949 -12020520.76347  21954463.472    21954467.509
  23707489.209    -8725186.98249  -6567676.36346  23707488.617    23707496.002
 03  6 15  2 22 30.0000000  0  7G20G 1G16G 2G 4G13G27
  20898435.267   -20635511.24349 -16063175.87747  20898434.295    20898439.055
  20659035.543   -21920544.15649 -17051459.47348  20659034.788    20659039.873
  21654875.212   -16491440.52449 -12836612.84047  21654874.512    21654878.867
  21318166.726   -18465663.34949 -14379849.88947  21318165.761    21318171.334
  24450613.080     -844464.87149   -652231.15245  24450612.922    24450618.984
  21942154.214   -15502613.50649 -12070925.60747  21942154.033    21942158.096
  23694479.920    -8793550.66749  -6620946.70546  23694479.354    23694486.711
 03  6 15  2 23  0.0000000  0  7G20G 1G16G 2G 4G13G27
  20909936.632   -20575071.45249 -16016079.97647  20909935.633    20909940.397
  20655055.718   -21941458.35749 -17067756.25748  20655054.973    20655059.992
  21661367.199   -16457324.86649 -12810029.23247  21661366.518    21661370.900
  21319014.456   -18461208.46649 -14376378.54847  21319013.514    21319019.095
  24454517.582     -823947.34449   -636243.49245  24454517.350    24454523.274
  21929866.690   -15567184.95049 -12121240.99847  21929866.459    21929870.546
  23681502.246    -8861748.44049  -6674087.73746  23681501.658    23681509.045
 03  6 15  2 23 30.0000000  0  7G20G 1G16G 2G 4G13G27
  20921533.317   -20514130.71749 -15968593.72947  20921532.334    20921537.088
  20651117.727   -21962152.76049 -17083881.76148  20651116.959    20651121.997
  21667964.209   -16422657.41249 -12783015.64747  21667963.531    21667967.844
  21319954.841   -18456266.33349 -14372527.53447  21319953.903    21319959.495
  24458507.840     -802978.39749   -619904.07245  24458507.607    24458513.597
  21917601.316   -15631639.51749 -12171465.32347  21917601.120    21917605.203
  23668556.296    -8929779.67049  -6727099.02246  23668555.690    23668562.995
 03  6 15  2 24  0.0000000  0  7G20G 1G16G 2G 4G13G27
  20933224.942   -20452691.23249 -15920718.83447  20933223.950    20933228.676
  20647221.640   -21982626.85349 -17099835.59748  20647220.886    20647225.863
  21674665.867   -16387440.01549 -12755573.53547  21674665.201    21674669.473
  21320987.810   -18450837.84149 -14368297.53547  21320986.878    21320992.488
  24462583.521     -781560.39349   -603214.73745  24462583.296    24462589.371
  21905358.329   -15695976.88049 -12221598.32647  21905358.126    21905362.191
  23655642.016    -8997644.63649  -6779980.73446  23655641.370    23655648.619
 03  6 15  2 24 30.0000000  0  7G20G 1G16G 2G 4G13G27
  20945011.171   -20390754.41449 -15872456.40747  20945010.171    20945014.887
  20643367.801   -22002879.02049 -17115616.50848  20643367.044    20643371.985
  21681472.001   -16351673.27849 -12727703.36547  21681471.360    21681475.687
  21322113.464   -18444922.72549 -14363688.35247  21322112.499    21322118.103
  24466744.513     -759693.98149   -586176.01645  24466744.325    24466750.515
  21893138.005   -15760195.29449 -12271638.63247  21893137.796    21893141.831
  23642759.466    -9065342.89149  -6832732.53546  23642758.799    23642765.974
 03  6 15  2 25  0.0000000  0  7G20G 1G16G 2G 4G13G27
  20956891.574   -20328322.46149 -15823808.16547  20956890.596    20956895.321
  20639556.269   -22022908.57249 -17131223.94648  20639555.513    20639560.501
  21688382.368   -16315359.02549 -12699406.56347  21688381.726    21688386.072
  21323331.524   -18438521.90549 -14358700.70047  21323330.555    21323336.129
  24470990.618     -737381.40349   -568789.61345  24470990.376    24470996.481
  21880940.392   -15824294.20749 -12321585.82247  21880940.120    21880944.198
  23629908.511    -9132874.63849  -6885354.59946  23629907.925    23629914.979
 03  6 15  2 25 30.0000000  0  7G20G 1G16G 2G 4G13G27
  20968865.873   -20265397.46749 -15774775.73647  20968864.877    20968869.592
  20635787.279   -22042714.69649 -17146657.29348  20635786.552    20635791.528
  21695396.653   -16278499.03849 -12670684.52047  21695395.980    21695400.334
  21324641.792   -18431636.09349 -14353335.13147  21324640.848    21324646.430
  24475320.994     -714624.44249   -551056.94545  24475320.759    24475326.930
  21868765.589   -15888272.55149 -12371439.06747  21868765.399    21868769.498
  23617089.245    -9200240.16449  -6937847.14046  23617088.680    23617095.645
 03  6 15  2 26  0.0000000  0  7G20G 1G16G 2G 4G13G27
  20980933.655   -20201980.91649 -15725360.27047  20980932.643    20980937.366
  20632061.139   -22062296.00749 -17161915.45848  20632060.402    20632065.360
  21702514.559   -16241094.45649 -12641538.10847  21702513.912    21702518.225
  21326044.438   -18424265.42349 -14347591.75147  21326043.497    21326049.054
  24479735.654     -691424.55849   -532979.13945  24479735.442    24479741.829
  21856614.051   -15952129.30149 -12421197.55347  21856613.841    21856617.961
  23604301.651    -9267439.33149  -6990210.04846  23604301.083    23604307.916
 03  6 15  2 26 30.0000000  0  7G20G 1G16G 2G 4G13G27
  20993094.547   -20138074.88649 -15675563.39447  20993093.544    20993098.346
  20628377.828   -22081651.70549 -17176997.82348  20628377.102    20628382.105
  21709735.904   -16203146.52949 -12611968.31747  21709735.233    21709739.518
  21327539.174   -18416410.61649 -14341471.12547  21327538.203    21327543.783
  24484234.405     -667783.78149   -514557.77545  24484234.107    24484240.477
  21844485.915   -16015863.28749 -12470860.38747  21844485.677    21844489.786
  23591545.660    -9334472.17049  -7042443.35146  23591545.084    23591551.880
 03  6 15  2 27  0.0000000  0  7G20G 1G16G 2G 4G13G27
  21005348.292   -20073681.11749 -15625386.45947  21005347.291    21005352.095
  20624737.664   -22100780.71349 -17191903.53648  20624736.932    20624741.987
  21717060.226   -16164656.93549 -12581976.43947  21717059.513    21717063.832
  21329125.919   -18408072.15049 -14334973.61647  21329124.954    21329130.535
  24488816.619     -643703.69349   -495794.11745  24488816.375    24488822.734
  21832381.275   -16079473.43249 -12520426.71847  21832381.057    21832385.156
  23578821.332    -9401338.69049  -7094547.06846  23578820.672    23578827.511
 03  6 15  2 27 30.0000000  0  7G20G 1G16G 2G 4G13G27
  21017694.596   -20008800.93449 -15574830.50947  21017693.584    21017698.385
  20621141.033   -22119681.22849 -17206631.21648  20621140.282    20621145.329
  21724487.506   -16125626.51549 -12551563.14647  21724486.791    21724491.124
  21330804.782   -18399249.91349 -14328099.14547  21330803.812    21330809.367
  24493482.327     -619185.42849   -476689.00345  24493482.125    24493488.411
  21820300.542   -16142958.02449 -12569895.21347  21820300.310    21820304.391
  23566128.724    -9468038.33349  -7146520.74146  23566128.109    23566134.942
 03  6 15  2 28  0.0000000  0  7G20G 1G16G 2G 4G13G27
  21030133.008   -19943436.53149 -15523897.24347  21030132.013    21030136.787
  20617588.005   -22138352.54449 -17221180.29448  20617587.241    20617592.278
  21732017.311   -16086057.09849 -12520729.85047  21732016.588    21732020.913
  21332575.407   -18389944.99749 -14320848.56047  21332574.426    21332580.003
  24498231.175     -594230.90249   -457243.96945  24498230.947    24498237.214
  21808243.862   -16206316.40749 -12619265.36247  21808243.637    21808247.664
  23553467.815    -9534571.40649  -7198364.62746  23553467.214    23553474.080
 03  6 15  2 28 30.0000000  0  7G20G 1G16G 2G 4G13G27
  21042663.235   -19877589.99749 -15472588.29047  21042662.238    21042666.995
  20614078.759   -22156793.68449 -17235550.01748  20614078.001    20614083.032
  21739649.375   -16045950.23749 -12489477.76547  21739648.655    21739653.015
  21334437.800   -18380158.01349 -14313222.33947  21334436.857    21334442.399
  24503062.554     -568842.05349   -437460.47845  24503062.363    24503068.721
  21796211.440   -16269547.30849 -12668536.18347  21796211.177    21796215.186
  23540838.676    -9600938.03049  -7250078.80646  23540838.067    23540844.874
 03  6 15  2 29  0.0000000  0  7G20G 1G16G 2G 4G13G27
  21055284.848   -19811263.18949 -15420905.10347  21055283.840    21055288.599
  20610613.559   -22175003.38649 -17249739.39948  20610612.800    20610617.847
  21747383.483   -16005307.13749 -12457807.83147  21747382.790    21747387.167
  21336391.943   -18369889.25049 -14305220.70748  21336390.964    21336396.473
  24507976.152     -543020.64249   -417339.96045  24507976.001    24507982.368
  21784203.484   -16332649.53349 -12717706.73247  21784203.190    21784207.225
  23528241.216    -9667138.08149  -7301663.18246  23528240.598    23528247.302
 03  6 15  2 29 30.0000000  0  7G20G 1G16G 2G 4G13G27
  21067997.496   -19744457.80749 -15368848.99347  21067996.499    21068001.280
  20607192.647   -22192980.48149 -17263747.52748  20607191.858    20607196.906
  21755219.285   -15964129.43549 -12425721.32847  21755218.566    21755223.011
  21338437.628   -18359139.16249 -14296844.01648  21338436.638    21338442.157
  24512971.880     -516768.23449   -396883.58745  24512971.673    24512978.025
  21772220.271   -16395621.67549 -12766775.91447  21772219.986    21772224.012
  23515675.496    -9733171.39349  -7353117.62846  23515674.827    23515681.440
 03  6 15  2 30  0.0000000  0  7G20G 1G16G 2G 4G13G27
  21080800.774   -19677176.09949 -15316421.72647  21080799.806    21080804.580
  20603816.162   -22210723.90449 -17277573.57048  20603815.376    20603820.485
  21763156.579   -15922418.51849 -12393219.32947  21763155.881    21763160.363
  21340574.734   -18347908.51649 -14288092.86148  21340573.758    21340579.273
  24518049.067     -490086.64649   -376092.79545  24518048.838    24518055.499
  21760261.986   -16458462.74049 -12815742.95847  21760261.734    21760265.739
  23503141.421    -9799038.17049  -7404442.32046  23503140.744    23503147.345
 03  6 15  2 30 30.0000000  0  7G20G 1G16G 2G 4G13G27
  21093694.443   -19609419.61949 -15263624.50947  21093693.450    21093698.235
  20600484.362   -22228232.38649 -17291216.54248  20600483.582    20600488.714
  21771195.108   -15880175.76849 -12360302.91847  21771194.396    21771198.874
  21342803.214   -18336197.91449 -14278967.71748  21342802.265    21342807.727
  24523207.812     -462977.62749   -354968.94045  24523207.477    24523214.280
  21748328.941   -16521171.44649 -12864606.87447  21748328.656    21748332.611
  23490638.928    -9864738.26749  -7455637.13446  23490638.250    23490645.074
 03  6 15  2 31  0.0000000  0  7G20G 1G16G 2G 4G13G27
  21106677.995   -19541190.69049 -15210459.14847  21106677.001    21106681.785
  20597197.476   -22245505.22649 -17304675.89948  20597196.687    20597201.792
  21779334.421   -15837403.50849 -12326973.89847  21779333.701    21779338.149
  21345122.831   -18324008.35749 -14269469.36348  21345121.860    21345127.326
  24528447.369     -435443.41749   -333513.75545  24528447.029    24528453.796
  21736421.186   -16583746.91749 -12913366.96747  21736420.909    21736424.851
  23478168.144    -9930272.12449  -7506702.41446  23478167.533    23478174.354
 03  6 15  2 31 30.0000000  0  7G20G 1G16G 2G 4G13G27
  21119751.051   -19472491.54649 -15156927.38447  21119750.071    21119754.857
  20593955.584   -22262541.37249 -17317950.82048  20593954.782    20593959.885
  21787574.262   -15794103.12049 -12293233.34647  21787573.517    21787577.917
  21347533.432   -18311340.47949 -14259598.28748  21347532.461    21347537.930
  24533767.459     -407485.87949   -311728.69845  24533767.286    24533773.864
  21724538.960   -16646188.00349 -12962022.34947  21724538.725    21724542.655
  23465729.146    -9995639.62349  -7557638.07046  23465728.504    23465735.203
 03  6 15  2 32  0.0000000  0  7G20G 1G16G 2G 4G13G27
  21132913.240   -19403324.13049 -15103030.73547  21132912.239    21132917.024
  20590758.954   -22279339.58549 -17331040.33548  20590758.185    20590763.272
  21795914.255   -15750275.92449 -12259082.29747  21795913.553    21795917.934
  21350034.950   -18298194.93449 -14249355.00448  21350033.979    21350039.432
  24539167.872     -379106.56549   -289614.98545  24539167.728    24539174.321
  21712682.553   -16708493.46149 -13010572.03047  21712682.333    21712686.267
  23453321.819   -10060840.78449  -7608444.10146  23453321.113    23453327.738
 03  6 15  2 32 30.0000000  0  7G20G 1G16G 2G 4G13G27
  21146164.123   -19333690.45949 -15048770.77047  21146163.096    21146167.889
  20587607.844   -22295898.92249 -17343943.71948  20587607.086    20587612.149
  21804354.145   -15705923.91449 -12224522.30447  21804353.470    21804357.879
  21352627.185   -18284572.45249 -14238740.08648  21352626.215    21352631.694
  24544648.234     -350307.63549   -267174.31445  24544648.074    24544654.506
  21700852.210   -16770662.14249 -13059015.15047  21700851.993    21700855.960
  23440946.026   -10125875.87949  -7659120.73746  23440945.361    23440951.856
 03  6 15  2 33  0.0000000  0  7G20G 1G16G 2G 4G13G27
  21159503.264   -19263592.54749 -14994149.05447  21159502.271    21159507.074
  20584502.422   -22312218.12749 -17356659.98248  20584501.646    20584506.738
  21812893.719   -15661048.58949 -12189554.52747  21812893.018    21812897.387
  21355310.106   -18270473.59949 -14227753.96748  21355309.147    21355314.608
  24550208.067     -321090.91549   -244408.07345  24550207.835    24550214.166
  21689048.138   -16832692.66649 -13107350.59847  21689047.905    21689051.886
  23428601.924   -10190744.57049  -7709667.70346  23428601.247    23428607.680
 03  6 15  2 33 30.0000000  0  7G20G 1G16G 2G 4G13G27
  21172930.369   -19193032.72949 -14939167.42047  21172929.376    21172934.210
  20581442.814   -22328296.25149 -17369188.39348  20581442.054    20581447.208
  21821532.409   -15615651.92549 -12154180.51647  21821531.718    21821536.052
  21358083.492   -18255899.52549 -14216397.55148  21358082.517    21358087.929
  24555846.934     -291458.65749   -221318.05645  24555846.771    24555853.183
  21677270.534   -16894584.16649 -13155577.73247  21677270.328    21677274.302
  23416289.311   -10255447.51449  -7760085.54046  23416288.600    23416295.007
 03  6 15  2 34  0.0000000  0  7G20G 1G16G 2G 4G13G27
  21186445.009   -19122012.68249 -14883827.15447  21186444.030    21186448.915
  20578429.377   -22344131.88549 -17381527.84548  20578428.640    20578433.789
  21830270.057   -15569735.32849 -12118401.35547  21830269.379    21830273.723
  21360947.191   -18240850.55149 -14204671.07448  21360946.205    21360951.615
  24561564.650     -261412.36549   -197905.40745  24561564.373    24561570.884
  21665519.728   -16956334.90149 -13203695.16247  21665519.523    21665523.537
  23404008.277   -10319984.33949  -7810373.91546  23404007.553    23404014.034
 03  6 15  2 34 30.0000000  0  7G20G 1G16G 2G 4G13G27
  21200046.929   -19050534.19449 -14828129.66847  21200045.924    21200050.873
  20575462.406   -22359723.40949 -17393677.08948  20575461.684    20575466.808
  21839106.432   -15523299.77449 -12082217.81647  21839105.742    21839110.153
  21363901.268   -18225327.01149 -14192574.81448  21363900.260    21363905.681
  24567360.791     -230953.39949   -174171.18145  24567360.590    24567366.970
  21653796.030   -17017943.45949 -13251701.81747  21653795.809    21653799.811
  23391758.863   -10384354.61649  -7860532.50646  23391758.173    23391764.664
 03  6 15  2 35  0.0000000  0  7G20G 1G16G 2G 4G13G27
  21213735.643   -18978599.36849 -14772076.59847  21213734.687    21213739.633
  20572542.096   -22375069.93949 -17405635.42448  20572541.336    20572546.483
  21848041.221   -15476347.32949 -12045631.50747  21848040.506    21848044.947
  21366945.424   -18209329.75849 -14180109.41948  21366944.412    21366949.858
  24573235.096     -200083.90749   -150117.08545  24573234.923    24573241.227
  21642099.621   -17079408.67449 -13299596.78347  21642099.406    21642103.409
  23379541.170   -10448558.60149  -7910561.52746  23379540.521    23379546.958
 03  6 15  2 35 30.0000000  0  7G20G 1G16G 2G 4G13G27
  21227510.598   -18906211.85849 -14715670.78647  21227509.631    21227514.500
  20569668.283   -22390171.61249 -17417402.95848  20569667.546    20569672.691
  21857073.847   -15428880.97849 -12008644.74747  21857073.123    21857077.513
  21370079.336   -18192860.96949 -14167276.59848  21370078.323    21370083.754
  24579186.959     -168807.21849   -125745.70045  24579186.783    24579193.125
  21630430.515   -17140730.35349 -13347379.89747  21630430.285    21630434.272
  23367354.949   -10512597.52749  -7960461.92846  23367354.317    23367360.647
 03  6 15  2 36  0.0000000  0  7G20G 1G16G 2G 4G13G27
  21241371.540   -18833372.54449 -14658912.92647  21241370.545    21241375.357
  20566841.558   -22405026.03849 -17428977.83648  20566840.822    20566845.977
  21866204.034   -15380901.38449 -11971258.06347  21866203.332    21866207.731
  21373303.002   -18175920.47249 -14154076.20847  21373301.991    21373307.396
  24585216.103     -137124.24849   -101057.71945  24585215.859    24585222.319
  21618789.148   -17201906.27649 -13395049.43547  21618788.894    21618792.856
  23355200.279   -10576470.47749  -8010232.99346  23355199.652    23355206.013
 03  6 15  2 36 30.0000000  0  7G20G 1G16G 2G 4G13G27
  21255318.124   -18760083.08849 -14601804.29947  21255317.110    21255321.908
  20564062.226   -22419631.66049 -17440358.84148  20564061.486    20564066.663
  21875431.670   -15332409.84649 -11933472.45847  21875430.974    21875435.340
  21376616.377   -18158508.57649 -14140508.49647  21376615.327    21376620.774
  24591322.153     -105036.52449    -76054.34745  24591321.981    24591328.498
  21607175.752   -17262934.71449 -13442604.04447  21607175.544    21607179.513
  23343077.258   -10640177.14349  -8059874.50346  23343076.664    23343083.030
 03  6 15  2 37  0.0000000  0  7G20G 1G16G 2G 4G13G27
  21269349.773   -18686346.29049 -14544347.09447  21269348.766    21269353.602
  20561330.317   -22433988.00849 -17451545.60348  20561329.588    20561334.750
  21884756.224   -15283408.89849 -11895289.91047  21884755.549    21884759.944
  21380019.147   -18140626.67349 -14126574.54447  21380018.131    21380023.571
  24597504.717      -72546.97949    -50737.85945  24597504.592    24597511.019
  21595590.621   -17323815.06349 -13490043.25747  21595590.424    21595594.373
  23330985.804   -10703718.04949  -8109386.84246  23330985.215    23330991.597
 03  6 15  2 37 30.0000000  0  7G20G 1G16G 2G 4G13G27
  21283466.195   -18612164.19349 -14486542.90547  21283465.154    21283470.019
  20558646.131   -22448093.57449 -17462536.95648  20558645.366    20558650.511
  21894177.486   -15233899.89449 -11856711.47747  21894176.817    21894181.238
  21383511.276   -18122275.38449 -14112274.83947  21383510.254    21383515.683
  24603763.501      -39656.77449    -25109.17745  24603763.398    24603769.833
  21584033.941   -17384545.61549 -13537365.75347  21584033.754    21584037.701
  23318925.814   -10767093.22049  -8158770.03446  23318925.284    23318931.670
 03  6 15  2 38  0.0000000  0  7G20G 1G16G 2G 4G13G27
  21297666.866   -18537539.05749 -14428393.49147  21297665.853    21297670.773
  20556009.814   -22461947.44349 -17473332.17848  20556009.081    20556014.224
  21903695.044   -15183884.88049 -11817738.75047  21903694.378    21903698.809
  21387092.539   -18103455.85949 -14097610.27548  21387091.525    21387096.942
  24610098.033       -6368.46349       829.71545  24610098.034    24610104.415
  21572506.063   -17445125.23049 -13584570.63247  21572505.855    21572509.820
  23306897.354   -10830302.84349  -8208024.22746  23306896.851    23306903.256
 03  6 15  2 38 30.0000000  0  7G20G 1G16G 2G 4G13G27
  21311951.397   -18462473.33849 -14369900.76647  21311950.404    21311955.376
  20553421.655   -22475548.58649 -17483930.47248  20553420.883    20553426.039
  21913308.561   -15133365.64749 -11778373.12847  21913307.863    21913312.335
  21390762.698   -18084169.05649 -14082581.59748  21390761.694    21390767.073
  24616507.988       27315.80549     27077.15145  24616507.916    24616514.239
  21561007.081   -17505552.59849 -13631656.87647  21561006.876    21561010.845
  23294900.441   -10893346.96749  -8257149.45646  23294899.877    23294906.272
 03  6 15  2 39  0.0000000  0  7G20G 1G16G 2G 4G13G27
  21326319.336   -18386969.44749 -14311066.60547  21326318.337    21326323.355
  20550881.641   -22488896.14749 -17494331.16648  20550880.871    20550886.084
  21923017.493   -15082344.51849 -11738616.41647  21923016.811    21923021.356
  21394521.607   -18064415.92749 -14067189.54348  21394520.592    21394525.936
  24622992.886       61393.83449     53631.42745  24622992.776    24622999.229
  21549537.272   -17565826.81049 -13678623.78347  21549537.046    21549541.016
  23282934.834   -10956226.14249  -8306146.16346  23282934.271    23282940.732
 03  6 15  2 39 30.0000000  0  7G20G 1G16G 2G 4G13G27
  21340770.380   -18311028.82349 -14251892.13847  21340769.373    21340774.429
  20548390.316   -22501988.15149 -17504532.72748  20548389.576    20548394.762
  21932821.761   -15030822.44449 -11698469.35047  21932821.114    21932825.632
  21398369.207   -18044196.73549 -14051434.32547  21398368.178    21398373.535
  24629552.422       95864.12549     80491.37345  24629552.246    24629558.651
  21538096.963   -17625945.89249 -13725469.79947  21538096.736    21538100.701
  23271000.720   -11018939.59049  -8355013.72946  23271000.172    23271006.713
 03  6 15  2 40  0.0000000  0  7G20G 1G16G 2G 4G13G27
  21355303.947   -18234654.60249 -14192379.79547  21355302.961    21355308.034
  20545947.748   -22514824.23949 -17514534.87048  20545946.967    20545952.108
  21942720.957   -14978802.06749 -11657933.99847  21942720.311    21942724.785
  21402305.103   -18023513.26949 -14035317.33447  21402304.083    21402309.472
  24636185.945      130723.82449    107654.74645  24636185.813    24636192.312
  21526686.313   -17685909.34449 -13772194.55447  21526686.075    21526690.025
  23259097.968   -11081488.16949  -8403752.82046  23259097.482    23259104.074
 03  6 15  2 40 30.0000000  0  7G20G 1G16G 2G 4G13G27
  21369919.852   -18157848.23349 -14132530.72547  21369918.823    21369923.859
  20543554.130   -22527402.74049 -17524336.30048  20543553.344    20543558.502
  21952714.675   -14926284.84949 -11617011.50847  21952714.052    21952718.504
  21406329.323   -18002365.84049 -14018838.81747  21406328.317    21406333.725
  24642893.360      165971.58849    135120.48245  24642893.289    24642899.730
  21515305.626   -17745714.95049 -13818796.31947  21515305.424    21515309.347
  23247226.729   -11143871.52249  -8452363.16546  23247226.260    23247232.885
 03  6 15  2 41  0.0000000  0  7G20G 1G16G 2G 4G13G27
  21384617.344   -18080612.88149 -14072347.37147  21384616.288    21384621.308
  20541209.605   -22539723.26249 -17533936.70148  20541208.817    20541214.004
  21962802.456   -14873273.31249 -11575703.82947  21962801.849    21962806.261
  21410441.509   -17980756.17449 -14002000.11248  21410440.510    21410445.911
  24649674.035      201604.45849    162886.30745  24649674.105    24649680.401
  21503955.156   -17805362.22649 -13865274.69747  21503954.962    21503958.862
  23235386.912   -11206090.40249  -8500845.34446  23235386.397    23235392.978
 03  6 15  2 41 30.0000000  0  7G20G 1G16G 2G 4G13G27
  21399396.044   -18002950.57149 -14011831.32747  21399394.977    21399400.008
  20538914.426   -22551784.57149 -17543335.12548  20538913.636    20538918.790
  21972983.939   -14819769.14949 -11534012.28747  21972983.340    21972987.784
  21414641.545   -17958685.08549 -13984801.86048  21414640.533    21414645.886
  24656527.701      237620.39149    190950.62045  24656527.621    24656534.195
  21492635.043   -17864849.77349 -13911628.61747  21492634.839    21492638.746
  23223578.371   -11268144.82549  -8549199.37846  23223577.802    23223584.326
 03  6 15  2 42  0.0000000  0  7G20G 1G16G 2G 4G13G27
  21414255.419   -17924863.99849 -13950984.69147  21414254.390    21414259.408
  20536668.770   -22563585.47649 -17552530.63948  20536668.001    20536673.106
  21983258.734   -14765774.69549 -11491938.70247  21983258.067    21983262.604
  21418929.096   -17936153.94849 -13967245.12547  21418928.065    21418933.380
  24663453.813      274016.88149    219311.46845  24663453.428    24663460.310
  21481345.592   -17924176.31749 -13957857.08247  21481345.374    21481349.268
  23211800.944   -11330035.17449  -8597425.57546  23211800.425    23211806.904
 03  6 15  2 42 30.0000000  0  7G20G 1G16G 2G 4G13G27
  21429195.257   -17846354.86349 -13889808.78647  21429194.207    21429199.211
  20534472.957   -22575124.25749 -17561521.89648  20534472.201    20534477.347
  21993626.562   -14711291.29649 -11449484.12647  21993625.920    21993630.433
  21423304.064   -17913163.21349 -13949330.26847  21423303.026    21423308.364
  24670451.995      310792.60149    247967.82145  24670451.742    24670458.432
  21470087.154   -17983339.74249 -14003958.43847  21470086.948    21470090.800
  23200054.938   -11391760.97649  -8645523.54446  23200054.426    23200060.764
 03  6 15  2 43  0.0000000  0  7G20G 1G16G 2G 4G13G27
  21444215.012   -17767425.80449 -13828305.66047  21444213.969    21444218.930
  20532327.180   -22586400.14649 -17570308.29848  20532326.436    20532331.610
  22004087.126   -14656321.36549 -11406650.41847  22004086.428    22004090.847
  21427766.157   -17889714.30149 -13931058.37947  21427765.137    21427770.533
  24677521.874      347944.79749    276917.52245  24677521.577    24677528.419
  21458859.911   -18042339.33849 -14049932.13547  21458859.711    21458863.535
  23188340.193   -11453322.78349  -8693493.73346  23188339.587    23188345.901
 03  6 15  2 43 30.0000000  0  7G20G 1G16G 2G 4G13G27
  21459314.139   -17688079.30049 -13766477.25447  21459313.117    21459318.076
  20530231.672   -22597412.02649 -17578888.98348  20530230.917    20530236.119
  22014639.827   -14600866.60149 -11363438.93347  22014639.102    22014643.530
  21432315.304   -17865808.15049 -13912430.20747  21432314.288    21432319.698
  24684663.069      385471.44049    306158.99045  24684662.822    24684669.595
  21447664.140   -18101173.61449 -14095777.01347  21447663.911    21447667.693
  23176656.566   -11514720.51649  -8741336.06646  23176655.935    23176662.220
 03  6 15  2 44  0.0000000  0  7G20G 1G16G 2G 4G13G27
  21474492.355   -17608317.25049 -13704325.04847  21474491.329    21474496.354
  20528186.661   -22608158.47449 -17587262.83848  20528185.923    20528191.088
  22025284.380   -14544928.87749 -11319851.11247  22025283.663    22025288.160
  21436951.364   -17841445.47949 -13893446.30247  21436950.368    21436955.792
  24691875.318      423370.58449    335690.71345  24691875.019    24691881.846
  21436500.112   -18159840.95249 -14141491.80947  21436499.890    21436503.638
  23165004.088   -11575954.26249  -8789050.62846  23165003.492    23165009.744
 03  6 15  2 44 30.0000000  0  8G20G 1G16G 2G 3G 4G13G27
  21489749.118   -17528142.32949 -13641851.12547  21489748.117    21489753.203
  20526192.501   -22618638.18449 -17595428.84848  20526191.753    20526196.834
  22036020.497   -14488510.27349 -11275888.57747  22036019.781    22036024.211
  21441674.026   -17816627.55449 -13874107.65447  21441673.029    21441678.477
                   -592556.71349   -448539.76143
  24699157.691      461639.69749    365510.73145  24699157.309    24699164.190
  21425368.042   -18218340.11149 -14187075.55447  21425367.827    21425371.585
  23153382.907   -11637024.26149  -8836637.58446  23153382.297    23153388.498
 03  6 15  2 45  0.0000000  0  8G20G 1G16G 2G 3G 4G13G27
  21505084.071   -17447556.44749 -13579056.97247  21505083.081    21505088.196
  20524249.294   -22628849.88249 -17603386.01348  20524248.528    20524253.629
  22046847.742   -14431612.64349 -11231552.77747  22046847.026    22046851.466
  21446483.161   -17791355.29749 -13854414.98547  21446482.169    21446487.608
                   -665693.37149   -505529.49843
  24706510.092      500277.11149    395617.74345  24706509.799    24706516.505
  21414268.313   -18276669.39749 -14232526.93447  21414268.101    21414271.877
  23141792.855   -11697930.36749  -8884096.83646  23141792.211    23141798.356
 03  6 15  2 45 30.0000000  0  8G20G 1G16G 2G 3G 4G13G27
  21520496.799   -17366562.14549 -13515944.56947  21520495.841    21520500.886
  20522357.270   -22638792.39449 -17611133.42448  20522356.508    20522361.638
  22057765.812   -14374237.87049 -11186845.18347  22057765.087    22057769.563
  21451378.601   -17765629.83649 -13834369.17047  21451377.600    21451383.002
                   -738739.60749   -562448.61543
  24713932.242      539280.38049    426009.83145  24713931.911    24713938.742
  21403201.253   -18334826.98249 -14277844.51547  21403201.062    21403204.863
  23130233.807   -11758672.65149  -8931428.42846  23130233.223    23130239.427
 03  6 15  2 46  0.0000000  0  8G20G 1G16G 2G 3G 4G13G27
  21535986.760   -17285162.17849 -13452516.06947  21535985.767    21535990.809
  20520516.614   -22648465.09349 -17618670.59248  20520515.863    20520521.013
  22068774.135   -14316388.50549 -11141767.78647  22068773.446    22068777.954
  21456359.920   -17739452.80549 -13813971.48347  21456358.902    21456364.332
                   -811693.13849   -619295.35944                  24402759.263
  24721423.519      578646.67849    456684.81145  24721423.195    24721430.030
  21392167.005   -18392812.37649 -14323027.93247  21392166.791    21392170.577
  23118705.853   -11819251.85449  -8978632.96746  23118705.314    23118711.511
 03  6 15  2 46 30.0000000  0  8G20G 1G16G 2G 3G 4G13G27
  21551553.404   -17203359.14249 -13388773.47947  21551552.411    21551557.459
  20518727.496   -22657866.75449 -17625996.55648  20518726.751    20518731.916
  22079872.314   -14258066.95749 -11096322.43247  22079871.633    22079876.157
  21461426.924   -17712825.29749 -13793222.77047  21461425.944    21461431.392
  24388889.450     -884550.88649   -676067.59145  24388888.124    24388895.552
  24728983.433      618373.74149    487640.88145  24728983.061    24728989.813
  21381165.771   -18450624.23149 -14368076.11647  21381165.537    21381169.331
  23107209.045   -11879668.19449  -9025710.58546  23107208.423    23107214.588
 03  6 15  2 47  0.0000000  0  8G20G 1G16G 2G 3G 4G13G27
  21567196.326   -17121155.26749 -13324718.56247  21567195.311    21567200.385
  20516990.250   -22666996.01949 -17633110.26848  20516989.524    20516994.664
  22091060.108   -14199274.93049 -11050510.49047  22091059.408    22091063.911
  21466579.605   -17685748.24549 -13772123.76747  21466578.587    21466583.984
  24375043.720     -957309.68649   -732762.64745  24375043.158    24375048.908
  24736611.568      658459.65749    518876.59345  24736611.011    24736617.951
  21370197.873   -18508260.74849 -14412987.67647  21370197.650    21370201.451
  23095743.155   -11939921.72149  -9072661.34446  23095742.540    23095748.655
 03  6 15  2 47 30.0000000  0  8G20G 1G16G 2G 3G 4G13G27
  21582915.122   -17038552.62649 -13260352.91347  21582914.119    21582919.218
  20515305.156   -22675851.51849 -17640010.65648  20515304.410    20515309.522
  22102337.064   -14140014.16649 -11004333.29747  22102336.391    22102340.903
  21471817.567   -17658222.58249 -13750675.19547  21471816.541    21471821.916
  24361217.655    -1029966.33049   -789378.11645  24361216.351    24361223.105
  24744307.496      698902.37349    550390.32145  24744306.983    24744313.976
  21359263.596   -18565720.20649 -14457761.27147  21359263.390    21359267.223
  23084308.274   -12000011.96049  -9119484.84546  23084307.696    23084313.849
 03  6 15  2 48  0.0000000  0  8G20G 1G16G 2G 3G 4G13G27
  21598709.336   -16955553.32849 -13195678.17947  21598708.345    21598713.470
  20513672.374   -22684431.69949 -17646696.50948  20513671.631    20513676.748
  22113702.886   -14080286.40449 -10957792.20647  22113702.242    22113706.698
  21477140.727   -17630249.07449 -13728877.65647  21477139.725    21477145.094
  24347411.558    -1102517.15449   -845911.13245  24347410.499    24347417.424
  24752071.088      739699.69149    582180.39545  24752070.867    24752077.390
  21348363.474   -18623000.57049 -14502395.31447  21348363.286    21348367.097
  23072904.581   -12059938.97849  -9166181.17646  23072903.971    23072910.054
 03  6 15  2 48 30.0000000  0  8G20G 1G16G 2G 3G 4G13G27
  21614578.407   -16872160.81649 -13130697.03847  21614577.419    21614582.556
  20512092.019   -22692736.27749 -17653167.60548  20512091.275    20512096.408
  22125157.094   -14020094.51649 -10910889.45747  22125156.393    22125160.850
  21482548.755   -17601829.80749 -13706732.76947  21482547.702    21482553.121
  24333625.929    -1174960.06149   -902360.04245  24333624.852    24333632.023
  24759901.506      780848.73349    614244.52445  24759901.167    24759907.634
  21337497.521   -18680101.62149 -14546889.63147  21337497.298    21337501.110
  23061531.665   -12119703.80149  -9212751.12746  23061531.015    23061537.147
 03  6 15  2 49  0.0000000  0  8G20G 1G16G 2G 3G 4G13G27
  21630521.993   -16788377.02549 -13065411.01247  21630521.002    21630526.136
  20510564.473   -22700763.69549 -17659422.72848  20510563.732    20510568.846
  22136699.183   -13959440.34649 -10863626.49146  22136698.512    22136702.987
  21488041.311   -17572965.67949 -13684241.23847  21488040.299    21488045.778
  24319861.543    -1247291.68249   -958722.27845  24319860.542    24319867.759
  24767798.418      822347.37549    646581.04745  24767798.040    24767804.620
  21326666.034   -18737021.36449 -14591242.66747  21326665.826    21326669.591
  23050189.551   -12179306.08149  -9259194.43046  23050188.947    23050195.147
 03  6 15  2 49 30.0000000  0  8G20G 1G16G 2G 3G 4G13G27
  21646539.420   -16704205.06349 -12999822.51047  21646538.413    21646543.532
  20509089.818   -22708513.22149 -17665461.31348  20509089.063    20509094.196
  22148328.807   -13898326.50649 -10816005.33646  22148328.101    22148332.592
  21493618.301   -17543658.24049 -13661404.27047  21493617.308    21493622.766
  24306118.715    -1319509.60149  -1014995.86145  24306117.955    24306124.852
  24775761.326      864192.81149    679187.83545  24775761.077    24775767.781
  21315869.314   -18793758.72149 -14635453.58447  21315869.081    21315872.903
  23038878.431   -12238746.61149  -9305511.69146  23038877.767    23038883.988
 03  6 15  2 50  0.0000000  0  8G20G 1G16G 2G 3G 4G13G27
  21662630.401   -16619646.35149 -12933932.64947  21662629.404    21662634.575
  20507668.387   -22715983.06449 -17671281.97048  20507667.607    20507672.739
  22160045.656   -13836754.47149 -10768027.16446  22160044.910    22160049.404
  21499279.570   -17513907.98349 -13638222.25747  21499278.559    21499284.070
  24292398.297    -1391609.99749  -1071177.88645  24292397.423    24292404.499
  24783790.044      906383.59949    712063.72845  24783789.859    24783796.639
  21305107.626   -18850311.56949 -14679520.73047  21305107.411    21305111.297
  23027598.205   -12298024.83649  -9351702.48246  23027597.466    23027603.685
 03  6 15  2 50 30.0000000  0  8G20G 1G16G 2G 3G 4G13G27
  21678794.237   -16534704.97149 -12867744.60047  21678793.244    21678798.421
  20506300.094   -22723173.36149 -17676884.79248  20506299.314    20506304.429
  22171849.016   -13774727.70949 -10719694.63946  22171848.249    22171852.676
  21505024.527   -17483717.70249 -13614697.36047  21505023.542    21505029.085
  24278700.597    -1463591.30949  -1127267.12845  24278699.646    24278706.629
  24791883.697      948915.70149    745205.54845  24791883.517    24791890.181
  21294381.090   -18906679.92749 -14723444.11847  21294380.847    21294384.716
  23016348.396   -12357142.22149  -9397767.94746  23016347.724    23016353.872
 03  6 15  2 51  0.0000000  0  8G20G 1G16G 2G 3G 4G13G27
  21695030.713   -16449382.13949 -12801259.31947  21695029.703    21695034.890
  20504985.499   -22730081.53549 -17682267.77948  20504984.715    20504989.824
  22183738.732   -13712246.90649 -10671008.33046  22183737.948    22183742.395
  21510853.351   -17453087.05749 -13590829.32547  21510852.377    21510857.856
  24265026.322    -1535448.88849  -1183259.95445  24265025.592    24265032.516
  24800042.168      991788.46349    778612.82045  24800042.138    24800048.369
  21283690.194   -18962860.90349 -14767221.49047  21283689.948    21283693.788
  23005129.472   -12416097.76349  -9443707.29746  23005128.811    23005134.920
 03  6 15  2 51 30.0000000  0  8G20G 1G16G 2G 3G 4G13G27
  21711339.164   -16363680.86349 -12734479.14847  21711338.183    21711343.392
  20503724.657   -22736706.95249 -17687430.43948  20503723.897    20503729.041
  22195714.200   -13649314.99749 -10621970.50646  22195713.477    22195717.937
  21516765.661   -17422017.87149 -13566619.57447  21516764.664    21516770.096
  24251376.185    -1607180.24849  -1239154.41945  24251375.392    24251382.226
  24808264.833     1034998.66449    812283.03845  24808264.756    24808271.142
  21273035.159   -19018853.45649 -14810852.05047  21273034.914    21273038.733
  22993941.299   -12474892.05249  -9489520.98746  22993940.616    22993946.704
 03  6 15  2 52  0.0000000  0  8G20G 1G16G 2G 3G 4G13G27
  21727719.158   -16277603.76149 -12667406.12947  21727718.114    21727723.362
  20502517.900   -22743048.52249 -17692371.91948  20502517.153    20502522.260
  22207775.190   -13585934.26049 -10572582.94746  22207774.458    22207778.917
  21522761.101   -17390511.69149 -13542069.30247  21522760.123    21522765.508
  24237750.687    -1678782.62349  -1294948.40945  24237749.966    24237756.632
  24816551.118     1078544.07649    846214.46244  24816551.009    24816557.700
  21262416.213   -19074656.09949 -14854334.61747  21262415.996    21262419.856
  22982783.704   -12533525.36749  -9535209.24446  22982783.060    22982789.199
 03  6 15  2 52 30.0000000  0  8G20G 1G16G 2G 3G 4G13G27
  21744170.106   -16191153.58549 -12600042.39947  21744169.065    21744174.347
  20501365.350   -22749105.31749 -17697091.49448  20501364.581    20501369.663
  22219921.137   -13522106.90449 -10522847.37546  22219920.449    22219924.884
  21528839.436   -17358569.95349 -13517179.63847  21528838.435    21528843.853
  24224150.260    -1750252.80949  -1350639.41045  24224149.480    24224156.308
  24824900.839     1122421.90749    880404.91444  24824900.907    24824907.324
  21251833.700   -19130267.49949 -14897668.17247  21251833.492    21251837.344
  22971656.743   -12591998.02049  -9580772.29746  22971656.053    22971662.224
 03  6 15  2 53  0.0000000  0  8G20G 1G16G 2G 3G 4G13G27
  21760691.460   -16104333.09649 -12532390.10947  21760690.467    21760695.747
  20500267.159   -22754876.39049 -17701588.43148  20500266.371    20500271.462
  22232151.669   -13457835.47249 -10472765.76246  22232150.942    22232155.351
  21535000.307   -17326194.20949 -13491951.78347  21534999.290    21535004.773
  24210575.336    -1821588.49549  -1406225.56045  24210574.698    24210581.676
  24833313.307     1166629.53849    914852.35744  24833313.165    24833319.489
  21241287.910   -19185686.39349 -14940851.72147  21241287.682    21241291.482
  22960560.229   -12650310.72949  -9626210.73346  22960559.546    22960565.662
 03  6 15  2 53 30.0000000  0  8G20G 1G16G 2G 3G 4G13G27
  21777283.046   -16017144.00849 -12464450.60647  21777282.061    21777287.316
  20499223.728   -22760359.72549 -17705861.15148  20499222.953    20499228.067
  22244466.448   -13393121.29749 -10422339.16746  22244465.727    22244470.103
  21541243.621   -17293384.98349 -13466386.15247  21541242.638    21541248.205
  24197026.833    -1892785.92149  -1461703.99245  24197026.168    24197033.437
  24841788.059     1211165.35149    949555.52144  24841787.779    24841794.717
  21230779.077   -19240910.72649 -14983883.66047  21230778.838    21230782.582
  22949494.218   -12708462.69049  -9671523.91346  22949493.567    22949499.661
 03  6 15  2 54  0.0000000  0  8G20G 1G16G 2G 3G 4G13G27
  21793944.295   -15929589.18249 -12396226.11047  21793943.267    21793948.452
  20498235.260   -22765554.25449 -17709908.83548  20498234.487    20498239.601
  22256864.921   -13327967.04949 -10371569.65346  22256864.173    22256868.549
  21547569.164   -17260143.91349 -13440484.02247  21547568.189    21547573.753
  24183505.209    -1963841.95949  -1517072.24845  24183504.569    24183511.922
  24850324.937     1256026.86049    984512.46344  24850324.699    24850331.662
  21220307.529   -19295939.03549 -15026762.85947  21220307.277    21220311.026
  22938458.701   -12766454.36649  -9716712.19746  22938458.076    22938464.184
 03  6 15  2 54 30.0000000  0  7G20G 1G16G 2G 3G13G27
  21810675.600   -15841665.84049 -12327714.47047  21810674.564    21810679.772
  20497302.975   -22770453.58549 -17713726.49448  20497302.193    20497307.277
  22269347.692   -13262369.62149 -10320454.81046  22269346.952    22269351.326
  21553977.692   -17226467.04649 -13414242.31247  21553976.702    21553982.242
  24170012.053    -2034748.17849  -1572323.75745  24170011.369    24170018.991
  21209874.540   -19350764.54649 -15069484.03347  21209874.310    21209878.082
  22927454.667   -12824280.65349  -9761771.60846  22927454.074    22927460.129
 03  6 15  2 55  0.0000000  0  7G20G 1G16G 2G 3G13G27
  21827475.208   -15753383.29649 -12258922.91647  21827474.194    21827479.430
  20496425.770   -22775063.34349 -17717318.51048  20496424.970    20496430.067
  22281913.126   -13196337.82549 -10269001.50046  22281912.373    22281916.776
  21560467.597   -17192362.42449 -13387667.28147  21560466.609    21560472.139
  24156546.856    -2105508.23049  -1627461.39445  24156546.291    24156553.667
  21199479.287   -19405392.14849 -15112050.99147  21199479.056    21199482.853
  22916480.859   -12881948.52349  -9806707.58946  22916480.241    22916486.238
 03  6 15  2 55 30.0000000  0  7G20G 1G16G 2G 3G13G27
  21844342.550   -15664744.93949 -12189854.11047  21844341.547    21844346.830
  20495603.692   -22779383.17249 -17720684.60748  20495602.919    20495608.034
  22294560.603   -13129874.98549 -10217212.30446  22294559.807    22294564.260
  21567038.455   -17157832.40749 -13360760.77547  21567037.461    21567042.996
  24143109.844    -2176120.18549  -1682483.63545  24143109.172    24143116.485
  21189121.762   -19459821.12449 -15154463.17347  21189121.536    21189125.371
  22905536.894   -12939459.09749  -9851520.98146  22905536.307    22905542.287
 03  6 15  2 56  0.0000000  0  7G20G 1G16G 2G 3G13G27
  21861277.225   -15575752.90349 -12120509.71147  21861276.183    21861281.517
  20494837.188   -22783411.08549 -17723823.24148  20494836.430    20494841.553
  22307289.850   -13062982.48549 -10165088.31646  22307289.095    22307293.501
  21573690.132   -17122877.49949 -13333523.18547  21573689.136    21573694.658
  24129701.563    -2246580.20449  -1737387.45945  24129701.006    24129708.397
  21178802.381   -19514049.57449 -15196719.10047  21178802.160    21178806.037
  22894623.056   -12996811.74249  -9896211.31246  22894622.462    22894628.408
 03  6 15  2 56 30.0000000  0  7G20G 1G16G 2G 3G13G27
  21878278.875   -15486408.66549 -12050890.87547  21878277.833    21878283.227
  20494126.657   -22787145.09749 -17726732.86448  20494125.882    20494130.955
  22320100.556   -12995661.64249 -10112630.54746  22320099.806    22320104.214
  21580422.611   -17087498.13749 -13305954.85947  21580421.595    21580427.100
  24116322.952    -2316884.37349  -1792169.85545  24116322.328    24116329.810
  21168521.736   -19568074.89749 -15238816.75047  21168521.478    21168525.364
  22883739.398   -13054005.83149  -9940778.08846  22883738.728    22883744.686
 03  6 15  2 57  0.0000000  0  7G20G 1G16G 2G 3G13G27
  21895347.032   -15396714.74349 -11980999.55147  21895346.007    21895351.488
  20493472.303   -22790583.88349 -17729412.43848  20493471.505    20493476.553
  22332992.353   -12927914.70549 -10059840.74846  22332991.612    22332996.057
  21587235.658   -17051695.63549 -13278056.80747  21587234.638    21587240.090
  24102974.827    -2387029.46649  -1846828.31345  24102974.188    24102981.624
  21158280.096   -19621895.22249 -15280754.66347  21158279.838    21158283.691
  22872885.793   -13111041.29049  -9985221.26346  22872885.161    22872891.195
 03  6 15  2 57 30.0000000  0  7G20G 1G16G 2G 3G13G27
  21912481.277   -15306673.88949 -11910837.89447  21912480.275    21912485.744
  20492874.194   -22793726.60249 -17731861.30948  20492873.409    20492878.515
  22345964.784   -12859744.18549 -10006720.89046  22345964.051    22345968.486
  21594128.885   -17015471.67049 -13249830.34547  21594127.846    21594133.244
  24089657.590    -2457012.39449  -1901360.39145  24089656.948    24089664.250
  21148077.702   -19675509.23949 -15322531.81447  21148077.451    21148081.280
  22862062.323   -13167918.71949 -10029541.30846  22862061.674    22862067.723
 03  6 15  2 58  0.0000000  0  7G20G 1G16G 2G 3G13G27
  21929681.033   -15216289.02549 -11840408.18347  21929679.998    21929685.430
  20492332.622   -22796572.25849 -17734078.71048  20492331.874    20492336.992
  22359017.330   -12791152.61049  -9953272.94446  22359016.595    22359021.037
  21601101.942   -16978827.90449 -13221276.76947  21601100.899    21601106.267
  24076371.500    -2526830.49349  -1955764.04245  24076370.905    24076378.298
  21137914.763   -19728915.71049 -15364147.24147  21137914.496    21137918.362
  22851268.846   -13224638.60049 -10073738.59046  22851268.196    22851274.270
 03  6 15  2 58 30.0000000  0  7G20G 1G16G 2G 3G13G27
  21946945.794   -15125562.13749 -11769711.94947  21946944.756    21946950.168
  20491848.074   -22799118.73449 -17736062.98048  20491847.319    20491852.408
  22372149.691   -12722141.67449  -9899498.22546  22372148.954    22372153.429
  21608154.817   -16941764.75449 -13192396.39747  21608153.786    21608159.181
  24063117.687    -2596480.05649  -2010036.36845  24063117.021    24063124.369
  21127791.768   -19782112.16849 -15405599.02147  21127791.544    21127795.392
  22840505.398   -13281200.28549 -10117812.59946  22840504.748    22840510.880
 03  6 15  2 59  0.0000000  0  7G20G 1G16G 2G 3G13G27
  21964275.160   -15034495.90849 -11698751.30447  21964274.139    21964279.505
  20491420.631   -22801365.16749 -17737813.45048  20491419.885    20491424.914
  22385361.369   -12652713.73649  -9845398.56346  22385360.657    22385365.168
  21615287.142   -16904283.99949 -13163190.61947  21615286.119    21615291.538
  24049896.445    -2665958.43549  -2064175.30245  24049895.654    24049903.090
  21117709.033   -19835097.44249 -15446886.24347  21117708.794    21117712.622
  22829771.984   -13337604.28349 -10161763.72046  22829771.388    22829777.497
 03  6 15  2 59 30.0000000  0  7G20G 1G16G 2G 3G13G27
  21981668.503   -14943093.17249 -11627528.44247  21981667.478    21981672.859
  20491050.436   -22803310.54049 -17739329.32948  20491049.672    20491054.683
  22398651.900   -12582871.31649  -9790975.93246  22398651.226    22398655.750
  21622498.642   -16866387.29249 -13133660.72647  21622497.606    21622503.006
  24036708.265    -2735262.53449  -2118178.44245  24036707.494    24036715.030
  21107666.807   -19887869.69549 -15488007.47947  21107666.557    21107670.373
  22819068.704   -13393850.81349 -10205592.14846  22819068.048    22819074.145
 03  6 15  3  0  0.0000000  0  7G20G 1G16G 2G 3G13G27
  21999125.395   -14851356.55749 -11556045.41247  21999124.403    21999129.757
  20490737.776   -22804953.59749 -17740609.64048  20490736.998    20490742.036
  22412020.968   -12512616.60749  -9736232.03246  22412020.281    22412024.834
  21629789.037   -16828076.02749 -13103807.79847  21629788.019    21629793.424
  24023553.852    -2804389.09449  -2172043.23945  24023553.111    24023560.549
  21097665.403   -19940427.41049 -15528961.53647  21097665.160    21097668.969
  22808395.265   -13449940.07049 -10249298.02946  22808394.577    22808400.712
 03  6 15  3  0 30.0000000  0  7G20G 1G16G 2G 3G13G27
  22016645.390   -14759288.32749 -11484303.98347  22016644.424    22016649.774
  20490482.864   -22806293.15049 -17741653.44948  20490482.084    20490487.131
  22425468.097   -12441951.82249  -9681168.60546  22425467.412    22425471.969
  21637158.030   -16789351.64849 -13073632.96047  21637157.038    21637162.427
  24010433.766    -2873335.00749  -2225767.25445  24010433.153    24010440.434
  21087705.157   -19992768.76649 -15569747.00047  21087704.946    21087708.719
  22797751.643   -13505872.29049 -10292881.54746  22797751.005    22797757.136
 03  6 15  3  1  0.0000000  0  7G20G 1G16G 2G 3G13G27
  22034227.917   -14666891.86149 -11412306.78647  22034226.952    22034232.286
  20490285.888   -22807328.47649 -17742460.20248  20490285.091    20490290.110
  22438992.698   -12370879.77849  -9625787.82146  22438991.949    22438996.610
  21644605.319   -16750216.00849 -13043137.66347  21644604.312    21644609.673
  23997348.601    -2942097.38749  -2279348.28445  23997347.913    23997355.303
  21077786.344   -20044892.68149 -15610363.03047  21077786.102    21077789.839
  22787137.904   -13561648.00349 -10336343.10046  22787137.223    22787143.288
 03  6 15  3  1 30.0000000  0  8G20G 1G16G 2G 3G13G27G 8
  22051871.063   -14574176.76349 -11340061.30547  22051870.068    22051875.401
  20490145.688   -22808065.22649 -17743034.30048  20490144.888    20490149.878
  22452593.060   -12299409.74549  -9570096.91946  22452592.304    22452596.951
  21652129.272   -16710677.63149 -13012328.54547  21652128.273    21652133.627
  23984297.558    -3010680.17749  -2332789.36645  23984296.956    23984304.255
  21067907.853   -20096804.40049 -15650813.71147  21067907.611    21067911.351
  22776552.537   -13617274.41149 -10379688.31646  22776551.891    22776557.910
  24732844.270    -1851179.22749  -1429509.57945  24732842.979    24732852.346
 03  6 15  3  2  0.0000000  0  8G20G 1G16G 2G 3G13G27G 8
  22069576.034   -14481136.72449 -11267562.62247  22069575.001    22069580.413
  20490064.219   -22808493.35349 -17743367.90848  20490063.434    20490068.446
  22466270.344   -12227535.15149  -9514090.77546  22466269.626    22466274.285
  21659731.229   -16670729.08649 -12981199.81347  21659730.241    21659735.610
  23971283.030    -3079071.48649  -2386081.21645  23971282.447    23971289.711
  21058071.730   -20148493.48149 -15691090.90447  21058071.481    21058075.266
  22765997.205   -13672742.79749 -10422910.40746  22765996.549    22766002.600
  24716709.908    -1935965.08949  -1495576.31045  24716708.768    24716717.887
 03  6 15  3  2 30.0000000  0  8G20G 1G16G 2G 3G13G27G 8
  22087342.272   -14387774.18849 -11194812.64547  22087341.332    22087346.777
  20490041.687   -22808611.62349 -17743460.07648  20490040.900    20490045.963
  22480024.127   -12155258.17449  -9457771.09046  22480023.434    22480028.144
  21667410.983   -16630371.65149 -12949752.46947  21667410.014    21667415.352
  23958305.501    -3147268.12049  -2439221.41545  23958304.901    23958312.253
  21048278.317   -20199957.96649 -15731193.09447  21048278.100    21048281.896
  22755471.953   -13728053.18449 -10466009.38446  22755471.295    22755477.352
  24700596.459    -2020641.58149  -1561557.78945  24700595.503    24700604.289
 03  6 15  3  3  0.0000000  0  8G20G 1G16G 2G 3G13G27G 8
  22105169.354   -14294092.69049 -11121814.12647  22105168.390    22105173.837
  20490078.239   -22808419.51049 -17743310.38248  20490077.445    20490082.523
  22493853.994   -12082581.96349  -9401140.31446  22493853.329    22493858.020
  21675168.190   -16589607.47749 -12917988.18547  21675167.184    21675172.496
  23945365.449    -3215267.82349  -2492208.16245  23945364.769    23945372.143
  21038527.856   -20251197.18749 -15771119.75047  21038527.610    21038531.446
  22744976.576   -13783206.61749 -10508986.06746  22744975.881    22744981.890
  24684503.741    -2105208.97649  -1627454.27945  24684502.685    24684511.596
 03  6 15  3  3 30.0000000  0  8G20G 1G16G 2G 3G13G27G 8
  22123056.420   -14200095.87749 -11048569.91047  22123055.437    22123060.881
  20490173.847   -22807916.88249 -17742918.73048  20490173.059    20490178.146
  22507759.259   -12009509.92749  -9344201.09946  22507758.553    22507763.220
  21683002.247   -16548439.17749 -12885908.99947  21683001.261    21683006.559
  23932463.363    -3283068.43749  -2545039.75045  23932462.681    23932470.036
  21028820.353   -20302210.24249 -15810870.16947  21028820.121    21028823.966
  22734510.854   -13838204.28049 -10551841.35346  22734510.166    22734516.108
  24668431.496    -2189667.94649  -1693266.30745  24668430.501    24668439.537
 03  6 15  3  4  0.0000000  0  8G20G 1G16G 2G 3G13G27G 8
  22141002.966   -14105786.60349 -10975082.21347  22141001.963    22141007.384
  20490328.742   -22807102.81849 -17742284.39948  20490327.991    20490333.044
  22521739.351   -11936044.43849  -9286955.30146  22521738.635    22521743.307
  21690912.908   -16506868.50349 -12853516.27447  21690911.904    21690917.201
  23919599.681    -3350667.03949  -2597713.92545  23919599.027    23919606.446
  21019156.276   -20352995.53049 -15850443.10947  21019156.021    21019159.849
  22724074.622   -13893046.67149 -10594575.64246  22724073.971    22724079.916
  24652380.055    -2274018.03049  -1758993.48945  24652379.103    24652388.148
 03  6 15  3  4 30.0000000  0  8G20G 1G16G 2G 3G13G27G 8
  22159008.454   -14011167.55749 -10901353.13246  22159007.418    22159012.851
  20490543.170   -22805976.04449 -17741406.40248  20490542.403    20490547.450
  22535793.748   -11862187.96849  -9229404.84246  22535793.075    22535797.731
  21698899.779   -16464896.99049 -12820811.21147  21698898.785    21698904.116
  23906774.889    -3418060.80549  -2650228.50545  23906774.294    23906781.732
  21009535.721   -20403551.56949 -15889837.41947  21009535.481    21009539.312
  22713668.060   -13947733.83549 -10637188.99846  22713667.405    22713673.237
  24636349.393    -2358259.15949  -1824635.76245  24636348.361    24636357.233
 03  6 15  3  5  0.0000000  0  8G20G 1G16G 2G 3G13G27G 8
  22177072.141   -13916242.09549 -10827385.29646  22177071.163    22177076.566
  20490817.208   -22804536.09649 -17740284.36948  20490816.433    20490821.501
  22549921.991   -11787943.59449  -9171552.12146  22549921.314    22549925.945
  21706962.536   -16422526.82049 -12787795.50247  21706961.543    21706966.908
  23893989.750    -3485247.00949  -2702581.32245  23893989.186    23893996.586
  20999959.008   -20453877.19849 -15929052.18647  20999958.781    20999962.671
  22703290.769   -14002266.89649 -10679682.28046  22703290.069    22703295.874
  24620339.308    -2442391.39249  -1890193.20545  24620338.535    24620347.124
 03  6 15  3  5 30.0000000  0  8G20G 1G16G 2G 3G13G27G 8
  22195193.676   -13821012.81649 -10753180.71646  22195192.678    22195198.136
  20491151.004   -22802781.87849 -17738917.45248  20491150.232    20491155.295
  22564123.582   -11713313.87649  -9113399.13346  22564122.903    22564127.563
  21715100.842   -16379759.57649 -12754470.38647  21715099.839    21715105.261
  23881244.697    -3552222.56149  -2754770.01245  23881244.159    23881251.438
  20990426.471   -20503970.90149 -15968086.23147  20990426.240    20990430.157
  22692942.776   -14056645.74449 -10722055.37846  22692942.073    22692947.906
  24604350.233    -2526414.35249  -1955665.49145  24604349.403    24604357.848
 03  6 15  3  6  0.0000000  0  8G20G 1G16G 2G 3G13G27G 8
  22213372.608   -13725482.08149 -10678741.23546  22213371.603    22213377.094
  20491544.909   -22800711.83549 -17737304.43748  20491544.149    20491549.181
  22578398.149   -11638300.65449  -9054947.31046  22578397.441    22578402.135
  21723314.451   -16336596.43049 -12720836.77447  21723313.483    21723318.969
  23868540.291    -3618984.16449  -2806791.98245  23868539.914    23868547.117
  20980938.499   -20553830.40049 -16006937.77747  20980938.289    20980942.186
  22682624.169   -14110870.35549 -10764308.28346  22682623.477    22682629.312
  24588382.181    -2610327.33249  -2021052.08045  24588381.158    24588389.563
 03  6 15  3  6 30.0000000  0  8G20G 1G16G 2G 3G13G27G 8
  22231608.141   -13629653.72149 -10604069.84246  22231607.138    22231612.664
  20491998.999   -22798325.91449 -17735445.28248  20491998.225    20492003.223
  22592745.010   -11562907.30949  -8996199.28546  22592744.349    22592749.070
  21731602.921   -16293040.14449 -12686896.81947  21731601.955    21731607.450
  23855877.041    -3685529.94749  -2858645.78345  23855876.710    23855883.753
  20971495.287   -20603455.14649 -16045606.40047  20971495.016    20971498.891
  22672334.632   -14164942.14049 -10806442.11246  22672333.940    22672339.814
  24572434.740    -2694131.09049  -2086353.55345  24572433.748    24572442.192
 03  6 15  3  7  0.0000000  0  8G20G 1G16G 2G 3G13G27G 8
  22249899.879   -13533530.08649 -10529168.36046  22249898.905    22249904.450
  20492513.473   -22795622.45649 -17733338.69748  20492512.709    20492517.739
  22607163.908   -11487135.75649  -8937156.54946  22607163.216    22607167.943
  21739966.058   -16249091.84949 -12652651.40047  21739965.075    21739970.552
  23843255.754    -3751856.19549  -2910328.53445  23843255.287    23843262.193
  20962097.030   -20652843.26549 -16084090.63847  20962096.753    20962100.605
  22662074.182   -14218860.98549 -10848456.76846  22662073.493    22662079.371
  24556508.231    -2777824.94049  -2151569.41245  24556507.244    24556515.704
 03  6 15  3  7 30.0000000  0  8G20G 1G16G 2G 3G13G27G 8
  22268247.433   -13437113.05149 -10454038.25646  22268246.504    22268252.041
  20493088.725   -22792599.45249 -17730983.11148  20493087.950    20493093.028
  22621654.405   -11410987.71749  -8877820.44946  22621653.705    22621658.458
  21748403.665   -16204751.91249 -12618100.80947  21748402.684    21748408.165
  23830676.836    -3817958.73549  -2961836.95245  23830676.385    23830683.301
  20952744.286   -20701991.89749 -16122388.26947  20952744.067    20952747.905
  22651842.975   -14272625.92849 -10890351.50946  22651842.306    22651848.198
  24540602.945    -2861407.47449  -2216698.52545  24540601.875    24540610.253
 03  6 15  3  8  0.0000000  0  8G20G 1G16G 2G 3G13G27G 8
  22286650.141   -13340406.74949 -10378682.75346  22286649.164    22286654.742
  20493724.704   -22789257.15249 -17728378.72348  20493723.940    20493729.024
  22636215.717   -11334467.31149  -8818194.21246  22636215.005    22636219.863
  21756915.208   -16160023.65149 -12583247.63147  21756914.222    21756919.728
  23818140.757    -3883836.40349  -3013170.16745  23818140.284    23818147.090
  20943437.205   -20750900.92149 -16160499.18947  20943436.970    20943440.793
  22641640.622   -14326238.95749 -10932127.86746  22641639.989    22641645.927
  24524718.515    -2944879.90649  -2281741.82945  24524717.611    24524725.960
 03  6 15  3  8 30.0000000  0  8G20G 1G16G 2G 3G13G27G 8
  22305107.559   -13243413.08649 -10303103.33646  22305106.516    22305112.058
  20494421.815   -22785593.72849 -17725524.10648  20494421.028    20494426.125
  22650847.609   -11257575.67549  -8758278.69046  22650846.975    22650851.855
  21765500.460   -16114907.80849 -12548092.43947  21765499.448    21765504.997
  23805648.419    -3949485.22649  -3064325.05845  23805647.773    23805654.528
  20934176.203   -20799567.64249 -16198421.30347  20934176.002    20934179.827
  22631467.395   -14379699.29749 -10973785.23846  22631466.791    22631472.729
  24508855.250    -3028240.89549  -2346698.30945  24508854.384    24508862.865
 03  6 15  3  9  0.0000000  0  8G20G 1G16G 2G 3G13G27G 8
  22323618.910   -13146135.25549 -10227302.49346  22323617.881    22323623.505
  20495180.117   -22781608.42749 -17722418.67348  20495179.353    20495184.500
  22665549.643   -11180315.78149  -8698076.21346  22665549.017    22665553.938
  21774158.990   -16069406.48549 -12512636.86847  21774157.994    21774163.604
  23793199.996    -4014902.60449  -3115299.57745  23793199.320    23793205.869
  20924961.550   -20847990.83549 -16236153.65447  20924961.341    20924965.177
  22621323.232   -14433007.65749 -11015324.18246  22621322.534    22621328.452
  24493013.238    -3111490.60249  -2411568.08645  24493012.430    24493020.820
 03  6 15  3  9 30.0000000  0  9G20G31G 1G16G 2G 3G13G27G 8
  22342183.672   -13048576.34449 -10151282.62246  22342182.729    22342188.414
                   -620233.60149   -451173.35843
  20495999.821   -22777300.59249 -17719061.91948  20495999.075    20496004.277
  22680321.218   -11102690.75449  -8637589.20346  22680320.600    22680325.497
  21782890.503   -16023521.72549 -12476882.52147  21782889.539    21782895.192
  23780796.083    -4080085.95949  -3166091.74145  23780795.369    23780801.720
  20915793.485   -20896169.39449 -16273695.38347  20915793.248    20915797.066
  22611207.689   -14486164.86249 -11056745.36146  22611207.007    22611212.964
  24477192.538    -3194629.21149  -2476351.29145  24477191.643    24477199.809
 03  6 15  3 10  0.0000000  0  9G20G31G 1G16G 2G 3G13G27G 8
  22360801.533   -12950738.66149 -10075045.53546  22360800.600    22360806.322
                   -709828.48649   -520987.71343
  20496881.239   -22772668.65549 -17715452.62348  20496880.495    20496885.708
  22695162.019   -11024702.47149  -8576819.13546  22695161.317    22695166.183
  21791694.824   -15977254.75849 -12440830.34947  21791693.854    21791699.517
  23768437.485    -4145031.63449  -3216698.70245  23768436.763    23768442.950
  20906672.418   -20944100.97949 -16311044.66047  20906672.192    20906675.997
  22601120.884   -14539170.62349 -11098048.51646  22601120.300    22601126.300
  24461393.009    -3277655.95949  -2541047.34745  24461392.001    24461400.235
 03  6 15  3 10 30.0000000  0  9G20G31G 1G16G 2G 3G13G27G 8
  22379471.985   -12852625.13849  -9998593.50746  22379471.064    22379476.745
                   -799451.12349   -590823.24844                  24428096.019
  20497824.616   -22767711.53249 -17711589.93248  20497823.852    20497829.015
  22710071.452   -10946353.30149  -8515767.86846  22710070.735    22710075.525
  21800571.521   -15930607.45649 -12404481.80747  21800570.549    21800576.191
  23756124.675    -4209736.57149  -3267118.08045  23756123.887    23756129.928
  20897598.634   -20991783.90549 -16348200.18047  20897598.414    20897602.223
  22591063.038   -14592025.19149 -11139233.87946  22591062.403    22591068.359
  24445614.736    -3360570.26249  -2605655.79245  24445613.894    24445622.002
 03  6 15  3 11  0.0000000  0  9G20G31G 1G16G 2G 3G13G27G 8
  22398194.524   -12754238.29249  -9921928.49746  22398193.553    22398199.140
  24411029.148     -889098.39449   -660678.16145  24411028.906    24411036.003
  20498830.038   -22762428.05049 -17707472.93348  20498829.266    20498834.409
  22725048.980   -10867645.76349  -8454437.35046  22725048.276    22725053.069
  21809520.353   -15883581.14649 -12367837.93547  21809519.384    21809525.022
  23743858.160    -4274197.75149  -3317347.50645  23743857.349    23743863.348
  20888572.583   -21039216.23749 -16385160.43047  20888572.362    20888576.151
  22581033.888   -14644728.64849 -11180301.48346  22581033.236    22581039.142
  24429858.013    -3443371.88549  -2670176.41545  24429857.103    24429865.253
 03  6 15  3 11 30.0000000  0  9G20G31G 1G16G 2G 3G13G27G 8
  22416968.433   -12655581.18849  -9845052.88846  22416967.436    22416972.966
  24393965.816     -978767.60549   -730550.15845  24393964.799    24393972.393
  20499897.671   -22756817.49149 -17703101.06748  20499896.897    20499902.043
  22740094.209   -10788582.31349  -8392829.49046  22740093.531    22740098.338
  21818540.899   -15836177.85649 -12330900.31647  21818539.919    21818545.560
  23731638.421    -4338412.57449  -3367384.97645  23731637.618    23731643.595
  20879594.355   -21086396.87949 -16421924.55547  20879594.148    20879597.908
  22571033.399   -14697281.63049 -11221251.82646  22571032.739    22571038.587
  24414122.721    -3526060.73749  -2734609.16645  24414121.815    24414129.957
 03  6 15  3 12  0.0000000  0  9G20G31G 1G16G 2G 3G13G27G 8
  22435793.219   -12556656.52049  -9767968.78846  22435792.244    22435797.765
  24376898.790    -1068455.55549   -800436.75845  24376897.705    24376905.702
  20501027.752   -22750878.56749 -17698473.33748  20501027.004    20501032.188
  22755206.695   -10709165.42649  -8330946.22646  22755206.049    22755210.832
  21827632.948   -15788399.03749 -12293670.07547  21827631.955    21827637.574
  23719466.150    -4402377.80749  -3417227.96245  23719465.316    23719471.351
  20870664.525   -21133323.50049 -16458490.74447  20870664.300    20870668.055
  22561061.561   -14749684.11049 -11262084.89046  22561060.883    22561066.669
  24398409.066    -3608636.29749  -2798953.63645  24398408.034    24398416.218
 03  6 15  3 12 30.0000000  0  9G20G31G 1G16G 2G 3G13G27G 8
  22454668.386   -12457466.75149  -9690678.12246  22454667.447    22454673.004
  24359828.693    -1158158.83449   -870335.29245  24359827.532    24359835.508
  20502220.652   -22744609.87649 -17693588.64048  20502219.918    20502225.073
  22770386.003   -10629397.47449  -8268789.40846  22770385.360    22770390.151
  21836796.131   -15740246.17449 -12256148.36847  21836795.161    21836800.743
  23707341.754    -4466089.93349  -3466873.71145  23707341.150    23707347.300
  20861783.342   -21179994.35849 -16494857.63447  20861783.128    20861786.867
  22551118.232   -14801936.21049 -11302800.79446  22551117.616    22551123.404
  24382717.085    -3691098.02649  -2863209.42045  24382716.137    24382724.100
 03  6 15  3 13  0.0000000  0  9G20G31G 1G16G 2G 3G13G27G 8
  22473593.257   -12358015.90749  -9613184.02346  22473592.296    22473597.938
  24342756.132    -1247875.70349   -940244.43445  24342755.081    24342762.813
  20503476.296   -22738011.53049 -17688447.07148  20503475.549    20503480.727
  22785631.498   -10549281.90749  -8206361.72946  22785630.886    22785635.690
  21846029.953   -15691722.16249 -12218337.46047  21846028.969    21846034.509
  23695265.937    -4529547.03249  -3516320.74545  23695265.420    23695271.724
  20852950.977   -21226408.90649 -16531024.80647  20852950.762    20852954.528
  22541203.370   -14854039.31749 -11343400.60046  22541202.730    22541208.543
  24367046.639    -3773446.96949  -2927377.30445  24367045.595    24367053.424
 03  6 15  3 13 30.0000000  0  9G20G31G 1G16G 2G 3G13G27G 8
  22492567.414   -12258306.19449  -9535488.20446  22492566.450    22492572.218
  24325681.593    -1337602.69449  -1010161.44845  24325680.542    24325688.223
  20504794.980   -22731081.96149 -17683047.40948  20504794.216    20504799.366
  22800942.898   -10468820.87249  -8143664.85946  22800942.225    22800946.959
  21855334.220   -15642828.18449 -12180238.26747  21855333.238    21855338.743
  23683239.641    -4592745.98449  -3565566.62145  23683239.064    23683245.105
  20844167.816   -21272564.89149 -16566990.49747  20844167.603    20844171.345
  22531316.910   -14905993.27249 -11383884.16946  22531316.175    22531322.028
  24351397.706    -3855682.34649  -2991456.70545  24351396.619    24351404.506
 03  6 15  3 14  0.0000000  0  9G20G31G 1G16G 2G 3G13G27G 8
  22511590.237   -12158340.81849  -9457593.16946  22511589.241    22511595.056
  24308605.685    -1427336.91249  -1080084.10245  24308604.703    24308612.193
  20506176.829   -22723820.30749 -17677388.97548  20506176.050    20506181.171
  22816319.532   -10388017.06949  -8080700.89146  22816318.811    22816323.514
  21864708.465   -15593566.31449 -12141852.39847  21864707.488    21864712.999
  23671263.044    -4655683.85649  -3614609.06445  23671262.456    23671268.322
  20835434.153   -21318460.82849 -16602753.55847  20835433.929    20835437.615
  22521458.653   -14957798.60749 -11424251.94346  22521457.949    22521463.787
  24335770.297    -3937803.91149  -3055447.41545  24335769.268    24335777.212
 03  6 15  3 14 30.0000000  0  9G20G31G 1G16G 2G 3G13G27G 8
  22530661.174   -12058122.76549  -9379501.24746  22530660.148    22530665.973
  24291528.945    -1517075.57449  -1150010.22845  24291528.086    24291535.491
  20507622.046   -22716225.75849 -17671471.14548  20507621.239    20507626.364
  22831760.776   -10306873.25049  -8017471.97546  22831760.041    22831764.755
  21874152.317   -15543938.72049 -12103181.55247  21874151.290    21874156.841
  23659336.619    -4718358.09149  -3663446.07945  23659335.833    23659341.785
  20826750.231   -21364095.33049 -16638312.89947  20826749.961    20826753.635
  22511628.555   -15009455.89449 -11464504.35247  22511627.884    22511633.705
  24320164.570    -4019811.69649  -3119349.47745  24320163.611    24320171.607
 03  6 15  3 15  0.0000000  0  9G20G31G 1G16G 2G 3G13G27G 8
  22549779.810   -11957653.81049  -9301213.80946  22549778.773    22549784.569
  24274452.103    -1606814.57549  -1219936.62145  24274451.317    24274458.626
  20509130.962   -22708296.27849 -17665292.32748  20509130.175    20509135.302
  22847266.350   -10225390.84949  -7953979.24146  22847265.617    22847270.403
  21883665.602   -15493945.84949 -12064226.07347  21883664.584    21883670.155
  23647460.878    -4780764.55449  -3712074.43245  23647460.135    23647466.148
  20818116.551   -21409465.26849 -16673666.08247  20818116.308    20818120.017
  22501826.853   -15060964.29049 -11504640.73847  22501826.170    22501831.937
  24304580.923    -4101704.32149  -3183161.80745  24304579.880    24304587.881
 03  6 15  3 15 30.0000000  0  9G20G31G 1G16G 2G 3G13G27G 8
  22568945.506   -11856937.33349  -9222733.50146  22568944.565    22568950.280
  24257375.594    -1696551.49749  -1289861.39745  24257374.979    24257382.195
  20510703.711   -22700031.52549 -17658852.26048  20510702.916    20510708.019
  22862835.730   -10143573.10649  -7890225.20446  22862835.009    22862839.929
  21893247.899   -15443590.26449 -12024987.96347  21893246.901    21893252.506
  23635636.607    -4842900.98849  -3760492.39045  23635635.860    23635641.881
  20809533.375   -21454570.08949 -16708812.68047  20809533.150    20809536.869
  22492053.290   -15112324.73449 -11544661.83747  22492052.546    22492058.329
  24289019.032    -4183482.24649  -3246884.76045  24289017.913    24289025.946
 03  6 15  3 16  0.0000000  0  9G20G31G 1G16G 2G 3G13G27G 8
  22588157.858   -11755976.37349  -9144062.69246  22588156.844    22588162.507
  24240300.119    -1786283.29849  -1359782.19245  24240299.600    24240306.675
  20512340.451   -22691430.38349 -17652150.07148  20512339.663    20512344.788
  22878468.424   -10061422.53049  -7826211.79946  22878467.737    22878472.698
  21902898.911   -15392873.59949 -11985468.49047  21902897.929    21902903.574
  23623864.349    -4904764.46749  -3808697.63545  23623863.520    23623869.557
  20801000.980   -21499408.17049 -16743751.43248  20801000.727    20801004.468
  22482307.722   -15163537.51949 -11584567.87347  22482307.052    22482312.812
  24273478.921    -4265145.25149  -3310518.17445  24273477.901    24273485.828
 03  6 15  3 16 30.0000000  0  9G20G31G 1G16G 2G 3G13G27G 8
  22607416.100   -11654774.10149  -9065203.83146  22607415.082    22607420.684
  24223226.183    -1876007.19449  -1429696.81045  24223225.460    24223232.526
  20514041.311   -22682492.12649 -17645185.18948  20514040.535    20514045.694
  22894163.966    -9978942.00049  -7761941.30046  22894163.261    22894168.312
  21912618.197   -15341798.12849 -11945669.42447  21912617.251    21912622.867
  23612144.430    -4966352.37049  -3856688.15945  23612143.633    23612149.903
  20792519.667   -21543977.51049 -16778480.76748  20792519.418    20792523.152
  22472590.260   -15214603.26449 -11624359.33446  22472589.570    22472595.335
  24257960.700    -4346693.32049  -3374062.03545  24257959.674    24257967.643
 03  6 15  3 17  0.0000000  0  9G20G31G 1G16G 2G 3G13G27G 8
  22626719.774   -11553332.36349  -8986158.38946  22626718.808    22626724.427
  24206154.425    -1965719.26149  -1499602.21045  24206153.719    24206160.700
  20515806.612   -22673214.90449 -17637956.18948  20515805.873    20515811.050
  22909921.909    -9896133.23049  -7697415.02446  22909921.201    22909926.308
  21922405.722   -15290364.63349 -11905591.38947  21922404.745    21922410.308
  23600477.767    -5027660.87649  -3904460.97145  23600477.060    23600483.290
  20784089.978   -21588275.74749 -16812998.86348  20784089.714    20784093.445
  22462900.796   -15265521.44649 -11664035.81947  22462900.108    22462905.855
  24242464.589    -4428125.45949  -3437515.55745  24242463.642    24242471.456
 03  6 15  3 17 30.0000000  0  9G20G31G 1G16G 2G 3G13G27G 8
  22646068.350   -11451654.79649  -8906929.17646  22646067.434    22646073.158
  24189085.402    -2055417.25349  -1569496.68445  24189084.546    24189091.691
  20517636.518   -22663598.68249 -17630463.02848  20517635.796    20517640.953
  22925741.806    -9812999.44349  -7632635.49546  22925741.070    22925746.199
  21932260.829   -15238575.82849 -11865236.48847  21932259.842    21932265.409
  23588864.750    -5088687.83649  -3952014.38245  23588864.039    23588870.250
  20775712.002   -21632302.19649 -16847305.17048  20775711.754    20775715.495
  22453239.209   -15316293.21749 -11703598.22047  22453238.546    22453244.229
  24226990.433    -4509442.34049  -3500879.25745  24226989.505    24226997.314
 03  6 15  3 18  0.0000000  0  9G20G31G 1G16G 2G 3G13G27G 8
  22665461.396   -11349744.12349  -8827518.32546  22665460.448    22665466.232
  24172019.606    -2145097.98449  -1639377.67945  24172018.750    24172026.112
  20519531.178   -22653642.27149 -17622704.78948  20519530.445    20519535.608
  22941623.127    -9729543.02449  -7567604.56646  22941622.385    22941627.465
  21942183.219   -15186433.35949 -11824606.00847  21942182.243    21942187.788
  23577305.819    -5149430.16749  -3999346.01245  23577305.081    23577311.369
  20767386.109   -21676054.80749 -16881398.10148  20767385.858    20767389.618
  22443605.514   -15366918.74849 -11743046.66647  22443604.836    22443610.472
  24211538.221    -4590643.35849  -3564152.66445  24211537.272    24211545.203
 03  6 15  3 18 30.0000000  0  9G20G31G 1G16G 2G 3G13G27G 8
  22684898.273   -11247602.97049  -8747927.88046  22684897.282    22684903.144
  24154957.769    -2234757.86949  -1709242.43245  24154956.802    24154964.352
  20521490.822   -22643344.26649 -17614680.36748  20521490.068    20521495.263
  22957565.383    -9645766.28849  -7502324.03546  22957564.678    22957569.702
  21952172.721   -15133938.53149 -11783700.95647  21952171.738    21952177.218
  23565801.466    -5209884.69649  -4046453.39345  23565800.905    23565807.264
  20759112.679   -21719531.46249 -16915275.99748  20759112.456    20759116.224
  22433999.628   -15417397.81849 -11782380.98247  22433998.966    22434004.640
  24196108.226    -4671727.77949  -3627335.25745  24196107.204    24196115.244
 03  6 15  3 19  0.0000000  0  9G20G31G 1G16G 2G 3G13G27G 8
  22704378.204   -11145235.15749  -8668160.81446  22704377.256    22704383.223
  24137900.195    -2324394.97349  -1779089.42145  24137899.380    24137906.743
  20523515.401   -22632704.85249 -17606389.91148  20523514.657    20523519.880
  22973567.929    -9561672.79149  -7436796.67146  22973567.181    22973572.225
  21962228.734   -15081094.31449 -11742523.64947  21962227.716    21962233.163
  23554352.453    -5270049.49749  -4093335.00445  23554351.872    23554358.215
  20750891.947   -21762731.61749 -16948938.44048  20750891.717    20750895.496
  22424421.304   -15467731.98249 -11821602.37247  22424420.676    22424426.405
  24180700.169    -4752696.85349  -3690427.94045  24180699.160    24180707.297
 03  6 15  3 19 30.0000000  0  9G20G31G 1G16G 2G 3G13G27G 8
  22723900.905   -11042642.48149  -8588218.53046  22723899.992    22723906.049
  24120847.896    -2414005.19249  -1848915.49445  24120847.006    24120854.270
  20525605.383   -22621721.92049 -17597831.78448  20525604.650    20525609.871
  22989630.431    -9477264.13849  -7371023.74246  22989629.670    22989634.715
  21972350.972   -15027901.58449 -11701074.78447  21972349.949    21972355.401
  23542959.396    -5329920.72949  -4139987.87045  23542958.798    23542964.998
  20742724.368   -21805652.55349 -16982383.31348  20742724.151    20742727.898
  22414870.807   -15517920.46849 -11860710.27347  22414870.128    22414875.840
  24165314.469    -4833549.24749  -3753429.72245  24165313.492    24165321.509
 03  6 15  3 20  0.0000000  0  9G20G31G 1G16G 2G 3G13G27G 8
  22743465.873   -10939827.98449  -8508103.39346  22743464.967    22743471.082
  24103801.290    -2503585.42549  -1918718.19945  24103800.356    24103807.691
  20527761.007   -22610394.41649 -17589005.16148  20527760.237    20527765.408
  23005752.333    -9392542.98849  -7305007.30946  23005751.599    23005756.648
  21982539.170   -14974362.13949 -11659355.75147  21982538.166    21982543.659
  23531622.650    -5389495.44249  -4186409.66945  23531622.057    23531628.197
  20734610.283   -21848292.24249 -17015609.03248  20734610.058    20734613.790
  22405347.887   -15567963.76349 -11899705.03247  22405347.221    22405352.938
  24149950.967    -4914284.67749  -3816340.35745  24149949.938    24149957.975
 03  6 15  3 20 30.0000000  0  9G20G31G 1G16G 2G 3G13G27G 8
  22763072.460   -10836794.83849  -8427817.88146  22763071.574    22763077.708
  24086760.957    -2593132.88949  -1988495.33845  24086760.013    24086767.329
  20529982.269   -22598721.86549 -17579909.66848  20529981.490    20529986.625
  23021933.188    -9307512.07349  -7238749.49046  23021932.478    23021937.514
  21992792.879   -14920478.32849 -11617368.38147  21992791.867    21992797.413
  23520342.723    -5448771.10449  -4232598.43545  23520342.176    23520348.511
  20726549.857   -21890649.87949 -17048614.97048  20726549.668    20726553.373
  22395852.434   -15617862.34549 -11938587.02747  22395851.804    22395857.545
  24134609.714    -4994903.33749  -3879160.01545  24134608.718    24134616.649
 03  6 15  3 21  0.0000000  0  9G20G31G 1G16G 2G 3G13G27G 8
  22782720.233   -10733545.47849  -8347363.89646  22782719.272    22782725.404
  24069727.480    -2682643.96349  -2058244.14445  24069726.635    24069733.934
  20532269.408   -22586702.92449 -17570544.26048  20532268.616    20532273.763
  23038172.548    -9222173.57049  -7172251.99446  23038171.866    23038176.952
  22003111.970   -14866251.39349 -11575113.64047  22003110.933    22003116.443
  23509120.324    -5507744.42849  -4278551.61745  23509119.795    23509126.340
  20718543.631   -21932722.89949 -17081399.12048  20718543.441    20718547.156
  22386384.600   -15667616.05949 -11977356.13447  22386383.929    22386389.686
  24119290.898    -5075404.43049  -3941888.04845  24119289.873    24119297.738
 03  6 15  3 21 30.0000000  0  9G20G31G 1G16G 2G 3G13G27G 8
  22802408.414   -10630083.38749  -8266744.14746  22802407.472    22802413.526
  24052701.322    -2772116.15349  -2127962.63645  24052700.682    24052707.885
  20534622.539   -22574337.27049 -17560908.68748  20534621.747    20534626.854
  23054469.905    -9136530.71949  -7105517.35146  23054469.173    23054474.301
  22013495.775   -14811683.76649 -11532593.41847  22013494.775    22013500.285
  23497955.962    -5566413.23149  -4324267.51345  23497955.473    23497961.974
  20710591.781   -21974510.32049 -17113960.73148  20710591.566    20710595.235
  22376944.083   -15717225.92049 -12016013.14447  22376943.425    22376949.189
  24103994.232    -5155788.47849  -4004524.87645  24103993.203    24104000.960
 03  6 15  3 22  0.0000000  0  9G20G31G 1G16G 2G 3G13G27G 8
  22822136.557   -10526411.16549  -8185960.65746  22822135.614    22822141.674
  24035683.447    -2861546.03049  -2197648.15345  24035682.673    24035689.861
  20537041.827   -22561623.77549 -17551002.06948  20537041.022    20537046.123
  23070824.687    -9050585.71049  -7038547.24646  23070823.940    23070829.149
  22023944.112   -14756777.12849 -11489809.04147  22023943.122    22023948.665
  23486850.290    -5624774.29149  -4369743.60446  23486849.792    23486856.182
  20702694.632   -22016010.14049 -17146298.23648  20702694.413    20702698.051
  22367530.936   -15766691.97749 -12054558.10847  22367530.301    22367536.087
  24088719.895    -5236054.94849  -4067070.09845  24088718.947    24088726.559
 03  6 15  3 22 30.0000000  0  9G20G31G 1G16G 2G 3G13G27G 8
  22841904.173   -10422531.62649  -8105015.63646  22841903.289    22841909.328
  24018674.085    -2950930.65949  -2267298.40245  24018673.239    24018680.545
  20539527.423   -22548561.65949 -17540823.80248  20539526.642    20539531.726
  23087236.396    -8964341.51349  -6971344.01946  23087235.669    23087240.960
  22034456.591   -14701533.60349 -11446762.15347  22034455.604    22034461.156
  23475803.739    -5682824.80949  -4414977.73446  23475803.220    23475809.611
  20694852.529   -22057220.70249 -17178410.35048  20694852.312    20694855.926
  22358145.107   -15816014.64649 -12092991.34247  22358144.459    22358150.292
  24073468.020    -5316203.79349  -4129523.66145  24073467.066    24073474.622
 03  6 15  3 23  0.0000000  0  9G20G31G 1G16G 2G 3G13G27G 8
  22861710.764   -10318447.61449  -8023911.27546  22861709.868    22861715.932
  24001673.928    -3040266.57949  -2336910.71645  24001673.077    24001680.265
  20542079.603   -22535149.64949 -17530372.88448  20542078.825    20542084.008
  23103704.606    -8877799.94149  -6903909.07846  23103703.939    23103709.327
  22045032.911   -14645954.77149 -11403453.98247  22045031.932    22045037.478
  23464816.746    -5740561.83649  -4459967.57346  23464816.186    23464822.671
  20687065.899   -22098139.91249 -17210295.43348  20687065.642    20687069.268
  22348786.569   -15865193.84949 -12131312.76447  22348785.918    22348791.797
  24058238.682    -5396234.61849  -4191885.25145  24058237.659    24058245.187
 03  6 15  3 23 30.0000000  0  9G20G31G 1G16G 2G 3G13G27G 8
  22881555.716   -10214162.55449  -7942650.25746  22881554.759    22881560.796
  23984683.383    -3129551.31249  -2406483.14345  23984682.601    23984689.848
  20544698.430   -22521387.29749 -17519648.97348  20544697.672    20544702.938
  23120228.788    -8790964.54449  -6836245.18246  23120228.200    23120233.582
  22055672.627   -14590043.10949 -11359886.47147  22055671.626    22055677.124
  23453889.780    -5797982.94149  -4504711.25046  23453889.280    23453895.722
  20679334.846   -22138766.79349 -17241952.73048  20679334.595    20679338.234
  22339455.088   -15914230.75549 -12169523.31947  22339454.457    22339460.297
  24043031.621    -5476147.69849  -4254155.11145  24043030.596    24043038.163
 03  6 15  3 24  0.0000000  0  9G20G31G 1G16G 2G 3G13G27G 8
  22901438.421   -10109679.23149  -7861234.75646  22901437.405    22901443.378
  23967703.288    -3218781.55649  -2476013.11345  23967702.455    23967709.704
  20547384.165   -22507273.70149 -17508651.36648  20547383.402    20547388.678
  23136808.602    -8703837.57649  -6768354.08446  23136807.991    23136813.270
  22066375.275   -14533800.51749 -11316061.09547  22066374.247    22066379.765
  23443023.525    -5855085.30949  -4549206.56246  23443023.043    23443029.433
  20671659.717   -22179099.58749 -17273380.86648  20671659.468    20671663.141
  22330150.719   -15963125.58249 -12207623.17647  22330150.119    22330155.881
  24027846.916    -5555942.92049  -4316333.13945  24027845.969    24027853.483
 03  6 15  3 24 30.0000000  0  9G20G31G 1G16G 2G 3G13G27G 8
  22921358.602   -10004998.95449  -7779665.77346  22921357.534    22921363.447
  23950734.319    -3307952.53049  -2545496.87645  23950733.552    23950741.002
  20550137.264   -22492806.53149 -17497378.25648  20550136.486    20550141.690
  23153443.731    -8616420.16649  -6700236.65046  23153443.035    23153448.274
  22077140.806   -14477227.29849 -11271978.08947  22077139.784    22077145.287
  23432218.725    -5911864.53149  -4593450.07446  23432218.272    23432224.656
  20664041.163   -22219135.03149 -17304577.30648  20664040.912    20664044.618
  22320873.771   -16011876.96849 -12245611.24947  22320873.101    22320878.793
  24012685.144    -5635618.47849  -4378417.92345  24012684.214    24012691.612
 03  6 15  3 25  0.0000000  0  9G20G31G 1G16G 2G 3G13G27G 8
  22941315.066    -9900127.66449  -7697947.94846  22941313.968    22941319.805
  23933776.749    -3397064.17849  -2614934.41945  23933776.002    23933783.499
  20552957.206   -22477987.86049 -17485831.23548  20552956.394    20552961.584
  23170133.055    -8528717.91649  -6631897.28446  23170132.271    23170137.480
  22087968.353   -14420328.12849 -11227641.08747  22087967.358    22087972.872
  23421475.361    -5968320.74149  -4637441.86745  23421474.911    23421481.361
  20656479.020   -22258874.26249 -17335542.93048  20656478.777    20656482.443
  22311623.376   -16060488.37149 -12283490.24447  22311622.675    22311628.333
  23997545.640    -5715177.11349  -4440411.58245  23997544.666    23997552.002
 03  6 15  3 25 30.0000000  0  9G20G31G 1G16G 2G 3G13G27G 8
  22961307.663    -9795066.16049  -7616081.91646  22961306.648    22961312.388
  23916831.719    -3486111.31649  -2684321.70445  23916830.953    23916838.371
  20555844.503   -22462814.81449 -17474008.08548  20555843.725    20555848.906
  23186876.444    -8440731.64949  -6563336.60746  23186875.630    23186880.797
  22098857.928   -14363103.10949 -11183050.18447  22098856.900    22098862.437
  23410794.311    -6024449.24149  -4681178.32045  23410793.905    23410800.326
  20648973.988   -22298313.37449 -17366274.69448  20648973.753    20648977.379
  22302399.967   -16108957.78549 -12321258.59147  22302399.230    22302404.893
  23982428.680    -5794616.90649  -4502312.64745  23982427.661    23982435.028
 03  6 15  3 26  0.0000000  0  9G20G31G 1G16G 2G 3G13G27G 8
  22981335.939    -9689816.96549  -7534069.61646  22981334.963    22981340.679
  23899899.613    -3575090.12749  -2753655.75445  23899898.784    23899906.147
  20558799.546   -22447285.98949 -17461907.70448  20558798.770    20558803.923
  23203673.349    -8352463.10849  -6494555.97946  23203672.572    23203677.757
  22109809.198   -14305553.62649 -11138206.44847  22109808.208    22109813.753
  23400176.343    -6080246.78749  -4724656.89145  23400175.955    23400182.352
  20641526.476   -22337450.47549 -17396771.12648  20641526.239    20641529.852
  22293203.508   -16157285.31349 -12358916.39847  22293202.827    22293208.482
  23967334.463    -5873936.86749  -4564120.32845  23967333.531    23967340.906
 03  6 15  3 26 30.0000000  0  9G20G31G 1G16G 2G 3G13G27G 8
  23001399.130    -9584384.35249  -7451914.40046  23001398.153    23001403.924
  23882980.932    -3663998.90749  -2822935.24045  23882980.047    23882987.292
  20561822.153   -22431401.94749 -17449530.53448  20561821.397    20561826.521
  23220523.209    -8263916.34249  -6425558.52946  23220522.457    23220527.691
  22120821.664   -14247682.72649 -11093112.25547  22120820.685    22120826.267
  23389621.696    -6135711.79449  -4767876.33645  23389621.352    23389627.673
  20634136.456   -22376285.26149 -17427031.98748  20634136.215    20634139.824
  22284033.745   -16205472.52649 -12396464.83347  22284033.045    22284038.727
  23952262.805    -5953138.33749  -4625835.69045  23952261.875    23952269.204
 03  6 15  3 27  0.0000000  0  9G20G31G 1G16G 2G 3G13G27G 8
  23021496.762    -9478770.61449  -7369618.04846  23021495.800    23021501.615
  23866076.113    -3752834.15449  -2892157.42245  23866075.240    23866082.318
  20564912.574   -22415161.53449 -17436875.66448  20564911.828    20564916.963
  23237425.626    -8175093.47849  -6356345.95846  23237424.866    23237430.089
  22131894.959   -14189492.11649 -11047768.93447  22131893.989    22131899.613
  23379130.941    -6190841.40649  -4810834.43045  23379130.505    23379136.816
  20626804.447   -22414815.22449 -17457055.32548  20626804.211    20626807.808
  22274890.709   -16253519.31249 -12433903.83347  22274890.024    22274895.706
  23937213.975    -6032220.93449  -4687458.41845  23937213.062    23937220.190
 03  6 15  3 27 30.0000000  0  9G20G31G 1G16G 2G 3G13G27G 8
  23041628.447    -9372977.82249  -7287182.16146  23041627.484    23041633.405
  23849186.207    -3841591.41949  -2961318.84445  23849185.302    23849192.215
  20568071.238   -22398562.66149 -17423941.48648  20568070.481    20568075.589
  23254380.234    -8085995.98949  -6286919.39846  23254379.488    23254384.807
  22143028.932   -14130982.53349 -11002177.06847  22143027.951    22143033.654
  23368704.792    -6245631.57249  -4853528.01445  23368704.273    23368710.521
  20619530.907   -22453037.67449 -17486839.04848  20619530.666    20619534.276
  22265774.518   -16301425.15449 -12471233.06447  22265773.816    22265779.498
  23922188.051    -6111183.20549  -4748987.39645  23922187.035    23922194.130
 03  6 15  3 28  0.0000000  0  9G20G31G 1G16G 2G 3G13G27G 8
  23061793.395    -9267010.24449  -7204610.09246  23061792.403    23061798.395
  23832311.437    -3930269.13749  -3030418.27645  23832310.515    23832317.434
  20571298.028   -22381606.00949 -17410728.51348  20571297.257    20571302.351
  23271386.407    -7996628.05249  -6217282.09446  23271385.625    23271390.948
  22154222.944   -14072157.56849 -10956339.44047  22154221.971    22154227.721
  23358343.354    -6300081.06449  -4895956.14645  23358342.746    23358349.119
  20612315.881   -22490952.69349 -17516383.20848  20612315.671    20612319.267
  22256684.782   -16349191.68849 -12508453.69847  22256684.078    22256689.791
  23907184.487    -6190026.52149  -4810423.68445  23907183.532    23907190.589
 03  6 15  3 28 30.0000000  0  9G20G31G 1G16G 2G 3G13G27G 8
  23081991.227    -9160870.39249  -7121903.76946  23081990.181    23081996.212
  23815452.360    -4018863.66149  -3099452.86945  23815451.516    23815458.413
  20574593.093   -22364290.40749 -17397235.84448  20574592.296    20574597.385
  23288443.497    -7906991.90449  -6147435.78246  23288442.866    23288448.114
  22165476.722   -14013018.77349 -10910257.27747  22165475.740    22165481.524
  23348047.365    -6354186.67949  -4938116.31445  23348046.714    23348053.100
  20605159.843   -22528558.05049 -17545686.07348  20605159.635    20605163.211
  22247621.637   -16396819.03049 -12545565.89247  22247620.952    22247626.547
  23892203.555    -6268750.37349  -4871766.86345  23892202.683    23892209.858
 03  6 15  3 29  0.0000000  0  9G20G31G 1G16G 2G 3G13G27G 8
  23102221.464    -9054559.98549  -7039064.55946  23102220.396    23102226.349
  23798610.099    -4107370.76449  -3168419.35545  23798609.265    23798615.973
  20577956.796   -22346613.82349 -17383461.88448  20577956.038    20577961.144
  23305551.502    -7817088.93349  -6077381.55946  23305550.853    23305556.081
  22176790.126   -13953566.91649 -10863931.17247  22176789.098    22176794.891
  23337817.529    -6407944.72449  -4980005.64845  23337816.896    23337823.168
  20598063.337   -22565850.73149 -17574745.29548  20598063.088    20598066.676
  22238585.096   -16444306.37549 -12582569.00247  22238584.388    22238589.907
  23877245.825    -6347353.47349  -4933015.97045  23877244.888    23877252.123
 03  6 15  3 29 30.0000000  0  9G20G31G 1G16G 2G 3G13G27G 8
  23122483.196    -8948084.21149  -6956096.49246  23122482.139    23122488.024
  23781784.758    -4195789.34949  -3237316.85545  23781783.814    23781790.432
  20581388.933   -22328577.72749 -17369407.78648  20581388.181    20581393.291
  23322709.317    -7726923.94349  -6007123.17646  23322708.685    23322713.936
  22188162.292   -13893806.00049 -10817364.23347  22188161.256    22188167.062
  23327653.940    -6461354.65349  -5021623.70845  23327653.281    23327659.538
  20591026.145   -22602831.32749 -17603561.33248  20591025.889    20591029.456
  22229574.746   -16491656.01249 -12619464.80447  22229574.026    22229579.555
  23862310.711    -6425837.93449  -4994172.60445  23862309.777    23862317.038
 03  6 15  3 30  0.0000000  0  9G20G31G 1G16G 2G 3G13G27G 8
  23142776.181    -8841443.87549  -6873000.19246  23142775.170    23142781.029
  23764977.052    -4284114.15649  -3306141.28045  23764976.110    23764982.690
  20584890.032   -22310179.27849 -17355071.33848  20584889.288    20584894.371
  23339917.009    -7636497.45449  -5936661.03146  23339916.332    23339921.542
  22199593.210   -13833736.09549 -10770556.52047  22199592.202    22199597.941
  23317557.456    -6514411.63149  -5062966.77245  23317556.861    23317563.051
  20584049.106   -22639495.80649 -17632131.04248  20584048.860    20584052.440
  22220590.803   -16538866.41549 -12656252.10347  22220590.136    22220595.688
  23847398.517    -6504201.50449  -5055235.07045  23847397.670    23847404.856
 03  6 15  3 30 30.0000000  0  9G20G31G 1G16G 2G 3G13G27G 8
  23163099.888    -8734642.64049  -6789778.50946  23163098.910    23163104.681
  23748187.418    -4372342.76449  -3374890.75045  23748186.592    23748193.341
  20588460.062   -22291418.57249 -17340452.60848  20588459.296    20588464.421
  23357173.852    -7545812.76849  -5865997.69746  23357173.145    23357178.350
  22211082.442   -13773359.93249 -10723510.16447  22211081.428    22211087.091
  23307528.587    -6567113.60849  -5104033.20445  23307527.984    23307534.112
  20577132.314   -22675843.57249 -17660453.96548  20577132.068    20577135.654
  22211633.243   -16585938.59949 -12692931.69647  22211632.577    22211638.090
  23832509.224    -6582444.71949  -5116203.72645  23832508.348    23832515.451
 03  6 15  3 31  0.0000000  0  9G20G31G 1G16G 2G 3G13G27G 8
  23183453.637    -8627683.69049  -6706433.93746  23183452.629    23183458.400
  23731416.779    -4460472.17349  -3443562.94845  23731415.983    23731422.782
  20592099.166   -22272294.98949 -17325551.11748  20592098.417    20592103.580
  23374479.279    -7454872.83249  -5795135.46446  23374478.585    23374483.741
  22222629.553   -13712679.47849 -10676226.70447  22222628.544    22222634.207
  23297567.637    -6619458.27249  -5144821.19545  23297567.020    23297573.220
  20570276.132   -22711873.15749 -17688528.95448  20570275.874    20570279.446
  22202701.855   -16632873.15949 -12729504.06347  22202701.160    22202706.694
  23817642.894    -6660567.85549  -5177078.82345  23817641.980    23817649.032
 03  6 15  3 31 30.0000000  0  9G20G31G 1G16G 2G 3G13G27G 8
  23203836.838    -8520569.71849  -6622968.56946  23203835.849    23203841.653
  23714665.665    -4548499.03549  -3512155.21745  23714664.869    23714671.671
  20595807.508   -22252807.53149 -17310366.08448  20595806.750    20595811.902
  23391832.735    -7363680.10849  -5724076.24146  23391832.071    23391837.106
  22234234.163   -13651696.70549 -10628707.66847  22234233.161    22234238.841
  23287675.032    -6671442.83249  -5185328.58045  23287674.509    23287680.858
  20563480.795   -22747582.84549 -17716354.66748  20563480.519    20563484.130
  22193796.612   -16679670.15749 -12765969.20447  22193795.965    22193801.521
  23802799.329    -6738570.60149  -5237860.12045  23802798.435    23802805.578
 03  6 15  3 32  0.0000000  0  9G20G31G 1G16G 2G 3G13G27G 8
  23224249.117    -8413303.15949  -6539384.31346  23224248.088    23224253.959
  23697934.673    -4636419.66949  -3580664.72345  23697934.011    23697940.759
  20599585.328   -22232955.00349 -17294896.58848  20599584.574    20599589.678
  23409234.000    -7272236.41849  -5652821.46546  23409233.335    23409238.279
  22245896.073   -13590413.03049 -10580954.16647  22245895.077    22245900.794
  23277851.802    -6723064.04349  -5225552.85345  23277851.279    23277857.642
  20556746.787   -22782969.87449 -17743928.96348  20556746.551    20556750.189
  22184917.599   -16726329.62449 -12802327.21747  22184916.961    22184922.526
  23787978.833    -6816452.35749  -5298547.12745  23787977.916    23787985.275
 03  6 15  3 32 30.0000000  0  9G20G31G 1G16G 2G 3G13G27G 8
  23244689.854    -8305886.88949  -6455683.38846  23244688.806    23244694.755
  23681224.569    -4724230.75249  -3649088.85745  23681223.921    23681230.804
  20603432.773   -22212736.65749 -17279142.03348  20603432.011    20603437.083
  23426682.471    -7180544.59349  -5581373.36046  23426681.765    23426686.672
  22257614.788   -13528830.57249 -10532967.84447  22257613.795    22257619.551
  23268098.271    -6774319.12349  -5265491.81545  23268097.661    23268104.153
  20550074.489   -22818032.89449 -17771250.78148  20550074.240    20550077.884
  22176064.746   -16772851.75349 -12838578.20547  22176064.100    22176069.677
  23773181.399    -6894213.09649  -5359139.85545  23773180.540    23773187.844
 03  6 15  3 33  0.0000000  0  9G20G31G 1G16G 2G 3G13G27G 8
  23265158.353    -8198325.19449  -6371869.14446  23265157.236    23265163.271
  23664535.644    -4811930.39849  -3717426.16445  23664535.033    23664542.015
  20607349.703   -22192152.99849 -17263102.82248  20607348.919    20607354.025
  23444177.378    -7088608.47749  -5509734.92446  23444176.684    23444181.529
  22269389.736   -13466952.54349 -10484751.20247  22269388.773    22269394.567
  23258414.653    -6825206.75549  -5305144.44345  23258414.045    23258420.534
  20543464.014   -22852771.31149 -17798319.66448  20543463.756    20543467.408
  22167237.719   -16819238.16849 -12874723.43047  22167237.061    22167242.630
  23758406.786    -6971853.75449  -5419638.99145  23758405.948    23758413.214
 03  6 15  3 33 30.0000000  0  9G20G31G 1G16G 2G 3G13G27G 8
  23285654.076    -8090619.88949  -6287943.00546  23285652.918    23285659.049
  23647868.988    -4899514.24849  -3785673.22245  23647868.381    23647875.226
  20611336.484   -22171202.26749 -17246777.57748  20611335.699    20611340.869
  23461718.552    -6996429.38449  -5437907.11246  23461717.811    23461722.739
  22281220.796   -13404779.76249 -10436304.88547  22281219.823    22281225.655
  23248801.603    -6875723.55449  -5344508.13146  23248800.980    23248807.410
  20536915.777   -22887182.45749 -17825133.52648  20536915.519    20536919.151
  22158436.581   -16865488.17349 -12910762.37047  22158435.924    22158441.514
  23743655.278    -7049373.16849  -5480043.65945  23743654.390    23743661.624
 03  6 15  3 34  0.0000000  0  9G20G31G 1G16G 2G 3G13G27G 8
  23306176.682    -7982772.90449  -6203906.46746  23306175.610    23306181.762
  23631225.105    -4986978.29449  -3853826.94945  23631224.364    23631231.147
  20615393.422   -22149882.86249 -17230165.05048  20615392.631    20615397.836
  23479305.531    -6904009.32049  -5365891.50846  23479304.796    23479309.753
  22293107.759   -13342313.54149 -10387629.91447  22293106.773    22293112.584
  23239259.910    -6925865.80649  -5383579.95146  23239259.275    23239265.639
  20530430.263   -22921264.06649 -17851690.61148  20530430.019    20530433.663
  22149661.538   -16911601.13349 -12946694.51547  22149660.839    22149666.479
  23728927.037    -7126770.58749  -5540353.27245  23728926.216    23728933.253
 03  6 15  3 34 30.0000000  0  9G20G31G 1G16G 2G 3G13G27G 8
  23326725.151    -7874789.43149  -6119763.57446  23326724.155    23326730.352
  23614604.043    -5074321.33849  -3921886.37245  23614603.420    23614610.113
  20619520.192   -22128196.17549 -17213266.33448  20619519.444    20619524.632
  23496937.459    -6811352.70549  -5293691.59846  23496936.739    23496941.805
  22305049.814   -13279557.80249 -10338729.34947  22305048.826    22305054.615
  23229789.521    -6975633.02649  -5422359.55046  23229788.892    23229795.128
  20524007.402   -22955016.20349 -17877990.96148  20524007.146    20524010.816
  22140912.085   -16957579.54349 -12982521.81347  22140911.416    22140917.030
  23714221.719    -7204047.90949  -5600569.30745  23714220.827    23714227.840
 03  6 15  3 35  0.0000000  0  9G20G31G 1G16G 2G 3G13G27G 8
  23347299.463    -7766670.43149  -6035515.08346  23347298.442    23347304.748
  23598007.256    -5161538.31949  -3989847.57445  23598006.590    23598013.040
  20623717.366   -22106139.80449 -17196079.55648  20623716.618    20623721.785
  23514614.214    -6718460.34649  -5221307.97445  23514613.562    23514618.715
  22317046.872   -13216512.74949 -10289603.34347  22317045.871    22317051.622
  23220391.266    -7025020.91349  -5460843.55746  23220390.658    23220396.829
  20517647.970   -22988435.30849 -17904031.80548  20517647.708    20517651.360
  22132188.548   -17003421.96049 -13018243.15447  22132187.895    22132193.435
  23699539.558    -7281202.89149  -5660690.01345  23699538.641    23699545.702
 03  6 15  3 35 30.0000000  0  9G20G31G 1G16G 2G 3G13G27G 8
  23367898.920    -7658419.54849  -5951163.82146  23367897.991    23367904.236
  23581434.891    -5248626.92049  -4057708.74845  23581434.164    23581440.624
  20627984.906   -22083713.86349 -17178604.79348  20627984.144    20627989.319
  23532335.236    -6625335.74249  -5148743.40445  23532334.563    23532339.811
  22329098.399   -13153181.26649 -10240254.14047  22329097.428    22329103.170
  23211065.599    -7074027.66949  -5499030.56246  23211065.024    23211071.090
  20511352.030   -23021520.49849 -17929812.45848  20511351.787    20511355.395
  22123490.679   -17049129.57949 -13053859.44847  22123490.016    22123495.471
  23684880.393    -7358236.76449  -5720716.34045  23684879.439    23684886.621
 03  6 15  3 36  0.0000000  0  9G20G31G 1G16G 2G 3G13G27G 8
  23388523.061    -7550039.44049  -5866711.85646  23388522.084    23388528.360
  23564887.569    -5335583.54449  -4125467.08145  23564886.829    23564893.368
  20632322.962   -22060917.39649 -17160841.31248  20632322.220    20632327.348
  23550100.027    -6531981.19049  -5075999.63645  23550099.395    23550104.577
  22341204.134   -13089565.07349 -10190683.09247  22341203.167    22341208.888
  23201813.001    -7122650.64249  -5536918.54346  23201812.380    23201818.443
  20505119.965   -23054270.13949 -17955331.64848  20505119.711    20505123.305
  22114818.494   -17094702.38149 -13089370.69847  22114817.790    22114823.208
  23670244.451    -7435148.99749  -5780647.87945  23670243.481    23670250.635
 03  6 15  3 36 30.0000000  0  9G20G31G 1G16G 2G 3G13G27G 8
  23409171.249    -7441532.89549  -5782161.38446  23409170.249    23409176.553
  23548365.977    -5422404.83949  -4193119.95945  23548365.226    23548371.850
  20636731.649   -22037749.72849 -17142788.58248  20636730.888    20636735.989
  23567908.242    -6438399.17149  -5003078.61045  23567907.537    23567912.642
  22353363.774   -13025666.14449 -10140891.72547  22353362.789    22353368.433
  23192633.842    -7170886.80049  -5574505.09546  23192633.225    23192639.364
  20498952.067   -23086682.45649 -17980587.98248  20498951.831    20498955.419
  22106171.872   -17140140.53849 -13124777.01847  22106171.176    22106176.614
  23655631.720    -7511939.32449  -5840484.43045  23655630.748    23655637.790
 03  6 15  3 37  0.0000000  0  9G20G31G 1G16G 2G 3G13G27G 8
  23429842.761    -7332904.03549  -5697515.59346  23429841.688    23429848.092
  23531870.608    -5509088.55549  -4260665.64845  23531869.795    23531876.337
  20641210.929   -22014211.08149 -17124446.77848  20641210.177    20641215.256
  23585759.092    -6344593.14149  -4929983.06245  23585758.389    23585763.383
  22365576.627   -12961487.46249 -10090882.37947  22365575.614    22365581.199
  23183528.526    -7218734.98949  -5611789.34046  23183527.917    23183534.006
  20492848.572   -23118756.56249 -18005580.77748  20492848.316    20492851.931
  22097550.560   -17185445.58449 -13160079.62547  22097549.874    22097555.322
  23641041.879    -7588608.58649  -5900226.65545  23641041.008    23641047.961
 03  6 15  3 37 30.0000000  0  9G20G31G 1G16G 2G 3G13G27G 8
  23450537.269    -7224153.85749  -5612775.26146  23450536.142    23450542.670
  23515402.413    -5595629.62049  -4328100.17045  23515401.596    23515408.126
  20645761.259   -21990298.88949 -17105813.89448  20645760.507    20645765.559
  23603652.403    -6250563.92949  -4856713.59345  23603651.672    23603656.518
  22377842.688   -12897029.15649 -10040655.13447  22377841.662    22377847.213
  23174497.805    -7266190.74549  -5648767.79746  23174497.279    23174503.394
  20486810.054   -23150488.96549 -18030307.30748  20486809.817    20486813.433
  22088954.862   -17230615.81249 -13195277.17847  22088954.195    22088959.660
  23626475.580    -7665155.24149  -5959873.33945  23626474.612    23626481.532
 03  6 15  3 38  0.0000000  0  9G20G31G 1G16G 2G 3G13G27G 8
  23471253.931    -7115287.14349  -5527944.11946  23471252.790    23471259.405
  23498961.597    -5682026.64149  -4395422.45145  23498960.669    23498967.291
  20650382.429   -21966014.54849 -17086891.02548  20650381.658    20650386.716
  23621587.308    -6156315.96549  -4783273.66845  23621586.506    23621591.323
  22390161.220   -12832295.04849  -9990212.98347  22390160.155    22390165.688
  23165541.990    -7313253.48249  -5685440.00346  23165541.490    23165547.550
  20480836.576   -23181879.76649 -18054767.65648  20480836.352    20480839.931
  22080384.464   -17275653.59849 -13230371.51847  22080383.808    22080389.274
  23611932.296    -7741580.83349  -6019425.69645  23611931.290    23611938.138
 03  6 15  3 38 30.0000000  0  9G20G31G 1G16G 2G 3G13G27G 8
  23491992.514    -7006305.10149  -5443023.12646  23491991.432    23491998.029
  23482549.021    -5768274.88449  -4462628.80945  23482548.180    23482554.619
  20655074.826   -21941355.68449 -17067676.32748  20655074.050    20655079.142
  23639563.500    -6061850.29549  -4709664.10245  23639562.691    23639567.678
  22402532.065   -12767285.69449  -9939556.35147  22402531.031    22402536.569
  23156661.829    -7359919.09249  -5721802.76746  23156661.227    23156667.315
  20474928.680   -23212925.98549 -18078959.50248  20474928.432    20474931.977
  22071839.534   -17320557.63149 -13265361.65347  22071838.844    22071844.287
  23597412.352    -7817883.52049  -6078882.26945  23597411.322    23597418.237
 03  6 15  3 39  0.0000000  0  9G20G31G 1G16G 2G 3G13G27G 8
  23512752.459    -6897211.19549  -5358014.96945  23512751.341    23512757.937
  23466165.357    -5854371.47449  -4529716.98545  23466164.503    23466170.927
  20659838.500   -21916322.34449 -17048169.82448  20659837.702    20659842.855
  23657580.460    -5967169.98749  -4635887.28345  23657579.788    23657584.811
  22414954.788   -12702003.45249  -9888687.07247  22414953.781    22414959.341
  23147857.530    -7406185.16649  -5757854.21046  23147856.963    23147863.068
  20469086.588   -23243626.35049 -18102881.85548  20469086.336    20469089.868
  22063319.874   -17365328.63449 -13300248.12547  22063319.192    22063324.653
  23582915.710    -7894063.97249  -6138243.60446  23582914.638    23582921.510
 03  6 15  3 39 30.0000000  0  9G20G31G 1G16G 2G 3G13G27G 8
  23533533.369    -6788007.16149  -5272920.98445  23533532.294    23533538.768
  23449811.288    -5940311.93749  -4596683.50645  23449810.385    23449817.023
  20664673.732   -21890912.80449 -17028370.18048  20664672.935    20664678.124
  23675637.998    -5872276.54849  -4561944.39145  23675637.338    23675642.488
  22427429.255   -12636449.28549  -9837605.91247  22427428.255    22427433.911
  23139129.924    -7452048.39249  -5793591.72046  23139129.354    23139135.488
  20463310.870   -23273977.87349 -18126532.37848  20463310.635    20463314.146
  22054825.652   -17409965.90649 -13335030.38247  22054824.982    22054830.431
  23568442.475    -7970120.85549  -6197508.61946  23568441.428    23568448.380
 03  6 15  3 40  0.0000000  0  9G20G31G 1G16G 2G 3G13G27G 8
  23554334.128    -6678698.47849  -5187745.45845  23554333.044    23554339.519
  23433486.994    -6026095.78049  -4663527.98645  23433486.155    23433492.905
  20669580.232   -21865128.96849 -17008278.87548  20669579.448    20669584.598
  23693735.161    -5777174.77949  -4487839.15045  23693734.489    23693739.797
  22439954.577   -12570627.69249  -9786316.37647  22439953.604    22439959.369
  23130478.994    -7497509.07949  -5829015.55546  23130478.433    23130484.529
  20457601.346   -23303981.61749 -18149911.90648  20457601.137    20457604.595
  22046356.345   -17454472.22349 -13369710.59947  22046355.686    22046361.176
  23553992.241    -8046056.79149  -6256679.40546  23553991.141    23553998.126
 03  6 15  3 40 30.0000000  0  9G20G31G 1G16G 2G 3G13G27G 8
  23575154.816    -6569285.12849  -5102488.37745  23575153.771    23575160.217
  23417193.840    -6111716.78449  -4730245.57945  23417192.985    23417199.793
  20674558.631   -21838967.46049 -16987893.29148  20674557.841    20674562.979
  23711872.009    -5681864.64549  -4413571.52745  23711871.373    23711876.846
  22452530.960   -12504537.91049  -9734817.85347  22452530.027    22452535.877
  23121905.619    -7542561.74849  -5864121.48946  23121905.068    23121911.225
  20451958.812   -23333633.18249 -18173017.00948  20451958.594    20451962.067
  22037912.436   -17498845.11749 -13404286.85447  22037911.761    22037917.287
  23539565.571    -8121868.82749  -6315753.64546  23539564.519    23539571.494
 03  6 15  3 41  0.0000000  0  9G20G31G 1G16G 2G 3G13G27G 8
  23595994.362    -6459772.24649  -5017153.73745  23595993.384    23595999.924
  23400931.663    -6197173.78549  -4796835.36645  23400930.873    23400937.862
  20679608.539   -21812429.76149 -16967214.56248  20679607.756    20679612.964
  23730047.658    -5586350.93449  -4339145.28845  23730047.149    23730052.606
  22465157.640   -12438183.98449  -9683113.50447  22465156.716    22465162.646
  23113410.092    -7587206.26949  -5898909.38546  23113409.529    23113415.651
  20446383.236   -23362933.06649 -18195848.07148  20446383.004    20446386.461
  22029493.479   -17543087.01649 -13438761.04147  22029492.789    22029498.256
  23525162.102    -8197559.06849  -6374732.98246  23525161.090    23525168.033
 03  6 15  3 41 30.0000000  0  9G20G31G 1G16G 2G 3G13G27G 8
  23616852.568    -6350161.59449  -4931742.91345  23616851.535    23616858.204
  23384701.656    -6282462.43949  -4863293.97045  23384700.729    23384707.900
  20684730.346   -21785514.23449 -16946241.42648  20684729.610    20684734.866
  23748261.882    -5490634.90349  -4264561.40345  23748261.330    23748266.850
  22477834.474   -12371566.95749  -9631204.12947  22477833.560    22477839.469
  23104992.989    -7631439.07949  -5933376.47346  23104992.357    23104998.414
  20440875.157   -23391878.38349 -18218402.85248  20440874.927    20440878.318
  22021099.520   -17587197.25149 -13473132.62247  22021098.811    22021104.295
  23510782.085    -8273126.23849  -6433616.42146  23510781.076    23510788.081
 03  6 15  3 42  0.0000000  0  9G20G31G 1G16G 2G 3G13G27G 8
  23637728.559    -6240457.47849  -4846259.26045  23637727.582    23637734.333
  23368504.104    -6367580.79449  -4929619.87445  23368503.211    23368510.248
  20689923.959   -21758221.66449 -16924974.48748  20689923.214    20689928.425
  23766513.914    -5394720.44149  -4189822.90245  23766513.256    23766518.814
  22490560.749   -12304690.12949  -9579092.32047  22490559.789    22490565.672
  23096654.227    -7675259.10549  -5967521.88546  23096653.640    23096659.710
  20435434.582   -23420468.83549 -18240681.11248  20435434.343    20435437.742
  22012730.272   -17631177.39349 -13507402.82747  22012729.595    22012735.134
  23496425.211    -8348571.62749  -6492404.97746  23496424.204    23496431.314
 03  6 15  3 42 30.0000000  0  9G20G31G 1G16G 2G 3G13G27G 8
  23658622.268    -6130660.20249  -4760703.03245  23658621.258    23658628.021
  23352339.990    -6452523.33649  -4995808.78545  23352339.142    23352346.025
  20695189.942   -21730549.32149 -16903411.63248  20695189.168    20695194.285
  23784803.572    -5298607.70949  -4114929.90245  23784802.983    23784808.619
  22503336.509   -12237553.33149  -9526777.93747  22503335.575    22503341.457
  23088394.962    -7718661.49749  -6001341.86946  23088394.417    23088400.512
  20430062.231   -23448700.61249 -18262679.88648  20430061.992    20430065.394
  22004386.238   -17675025.49949 -13541570.15547  22004385.581    22004391.089
  23482091.927    -8423893.02549  -6551096.88746  23482090.996    23482098.215
 03  6 15  3 43  0.0000000  0  9G20G31G 1G16G 2G 3G13G27G 8
  23679532.895    -6020774.05849  -4675077.53045  23679531.931    23679538.721
  23336209.765    -6537288.06149  -5061859.13545  23336208.989    23336215.657
  20700527.958   -21702497.85249 -16881553.35148  20700527.163    20700532.282
  23803130.226    -5202300.71549  -4039885.53845  23803129.566    23803135.335
  22516161.162   -12170159.78549  -9474263.50047  22516160.177    22516166.038
  23080215.319    -7761645.35549  -6034835.73546  23080214.760    23080220.960
  20424758.182   -23476573.31149 -18284398.86048  20424757.964    20424761.363
  21996067.097   -17718743.25649 -13575635.92047  21996066.380    21996071.835
  23467782.155    -8499091.41549  -6609692.95746  23467781.203    23467788.325
 03  6 15  3 43 30.0000000  0  9G20G31G 1G16G 2G 3G13G27G 8
  23700459.662    -5910802.90449  -4589385.81245  23700458.714    23700465.568
  23320113.855    -6621872.50549  -5127769.01745  23320113.042    23320119.741
  20705937.956   -21674067.56849 -16859399.87648  20705937.198    20705942.353
  23821493.238    -5105802.95849  -3964692.52145  23821492.464    23821498.230
  22529034.153   -12102512.29049  -9421551.17747  22529033.135    22529038.907
  23072115.557    -7804209.14349  -6068002.26846  23072115.037    23072121.247
  20419522.663   -23504086.23449 -18305837.48948  20419522.419    20419525.825
  21987772.453   -17762331.59849 -13609600.82547  21987771.742    21987777.208
  23453495.567    -8574167.81349  -6668193.95946  23453494.594    23453501.640
 03  6 15  3 44  0.0000000  0  9G20G31G 1G16G 2G 3G13G27G 8
  23721402.306    -5800748.56749  -4503629.24945  23721401.396    23721408.261
  23304053.100    -6706272.39649  -5193535.07445  23304052.300    23304058.931
  20711420.416   -21645256.99749 -16836950.08748  20711419.672    20711424.807
  23839892.257    -5009115.79649  -3889351.91245  23839891.417    23839897.121
  22541955.113   -12034612.10549  -9368641.94147  22541954.130    22541959.848
  23064096.477    -7846349.54049  -6100838.89846  23064095.959    23064102.221
  20414356.037   -23531236.77049 -18326993.73348  20414355.806    20414359.240
  21979502.589   -17805789.93849 -13643464.44147  21979501.878    21979507.318
  23439232.354    -8649121.07449  -6726599.02146  23439231.418    23439238.424
 03  6 15  3 44 30.0000000  0  9G20G31G 1G16G 2G 3G13G27G 8
  23742360.437    -5690613.14149  -4417809.51345  23742359.606    23742366.384
  23288028.352    -6790483.65649  -5259154.15145  23288027.494    23288034.025
  20716975.508   -21616064.85049 -16814202.96048  20716974.757    20716979.872
  23858326.968    -4912240.75949  -3813864.91445  23858326.134    23858331.757
  22554924.068   -11966460.27949  -9315536.63347  22554923.072    22554928.713
  23056158.545    -7888063.33749  -6133343.10046  23056158.054    23056164.334
  20409259.012   -23558021.85849 -18347865.21748  20409258.764    20409262.222
  21971257.587   -17849117.73849 -13677226.35147  21971256.846    21971262.283
  23424992.714    -8723950.35349  -6784907.48646  23424991.815    23424998.875
 03  6 15  3 45  0.0000000  0  9G20G31G 1G16G 2G 3G13G27G 8
  23763333.174    -5580401.15149  -4331930.11045  23763332.377    23763339.143
  23272039.658    -6874504.75649  -5324625.06545  23272038.813    23272045.190
  20722603.002   -21586492.38749 -16791159.47948  20722602.221    20722607.332
  23876796.708    -4815182.15649  -3738234.85745  23876795.868    23876801.313
  22567940.137   -11898060.60049  -9262238.19447  22567939.091    22567944.731
  23048301.936    -7929350.02149  -6165514.48746  23048301.482    23048307.643
  20404231.361   -23584442.30049 -18368452.55648  20404231.115    20404234.577
  21963036.936   -17892317.09649 -13710888.14747  21963036.226    21963041.682
  23410776.387    -8798657.33649  -6843120.64546  23410775.448    23410782.550
 03  6 15  3 45 30.0000000  0  9G20G31G 1G16G 2G 3G13G27G 8
  23784320.362    -5470113.41149  -4245991.69945  23784319.518    23784326.314
  23256088.096    -6958330.45949  -5389943.71145  23256087.236    23256093.538
  20728303.310   -21556537.25649 -16767817.82048  20728302.525    20728307.626
  23895301.258    -4717940.74749  -3662462.35545  23895300.417    23895305.731
  22581003.365   -11829413.04149  -9208746.59147  22581002.317    22581007.899
  23040527.470    -7970205.19649  -6197349.63046  23040526.905    23040533.036
  20399273.855   -23610494.31549 -18388752.81848  20399273.597    20399277.038
  21954841.083   -17935386.35449 -13744448.58947  21954840.370    21954845.858
  23396583.740    -8873239.99349  -6901236.93446  23396582.813    23396589.812
 03  6 15  3 46  0.0000000  0  9G20G31G 1G16G 2G 3G13G27G 8
  23805321.177    -5359754.13549  -4159997.53945  23805320.309    23805327.043
  23240174.177    -7041958.75249  -5455108.53945  23240173.233    23240179.493
  20734076.206   -21526200.30349 -16744178.63848  20734075.428    20734080.550
  23913839.900    -4620520.22549  -3586550.28645  23913838.994    23913844.166
  22594113.105   -11760520.88349  -9155064.39847  22594112.052    22594117.628
  23032835.282    -8010627.88249  -6228847.77246  23032834.731    23032840.875
  20394386.458   -23636177.60849 -18408765.76148  20394386.200    20394389.641
  21946669.714   -17978327.03649 -13777908.83647  21946669.047    21946674.502
  23382414.578    -8947699.59549  -6959257.33646  23382413.632    23382420.571
 03  6 15  3 46 30.0000000  0  9G20G31G 1G16G 2G 3G13G27G 8
  23826334.930    -5249326.89949  -4073950.43145  23826333.983    23826340.793
  23224298.276    -7125386.82949  -5520117.34745  23224297.354    23224303.553
  20739921.806   -21495481.49649 -16720241.90848  20739921.031    20739926.152
  23932411.971    -4522923.67249  -3510501.08845  23932411.086    23932416.223
  22607268.844   -11691386.80649  -9101193.69547  22607267.804    22607273.385
  23025225.648    -8050616.39049  -6260007.58546  23025225.039    23025231.270
  20389569.401   -23661491.19149 -18428490.61548  20389569.165    20389572.622
  21938522.738   -18021139.87049 -13811269.47447  21938522.027    21938527.423
  23368268.791    -9022036.57649  -7017182.19246  23368267.795    23368274.627
 03  6 15  3 47  0.0000000  0  9G20G31G 1G16G 2G 3G13G27G 8
  23847361.325    -5138832.76849  -3987851.18045  23847360.396    23847367.215
  23208461.299    -7208609.91149  -5584966.40945  23208460.407    23208466.568
  20745840.436   -21464379.04449 -16696006.23248  20745839.664    20745844.740
  23951017.313    -4425151.88649  -3434315.30145  23951016.486    23951021.679
  22620470.522   -11622011.33949  -9047134.89347  22620469.485    22620475.074
  23017699.489    -8090167.08949  -6290826.25146  23017698.819    23017704.963
  20384823.343   -23686431.82949 -18447924.86348  20384823.131    20384826.567
  21930400.273   -18063823.81149 -13844529.64647  21930399.550    21930404.900
  23354146.528    -9096249.27549  -7075010.19846  23354145.562    23354152.390
 03  6 15  3 47 30.0000000  0  9G20G31G 1G16G 2G 3G13G27G 8
  23868399.639    -5028275.41449  -3901702.68745  23868398.662    23868405.687
  23192663.837    -7291625.52849  -5649653.81745  23192662.954    23192669.147
  20751832.081   -21432893.12849 -16671471.75548  20751831.276    20751836.317
  23969655.345    -4327208.43049  -3357995.76345  23969654.503    23969659.753
  22633717.593   -11552397.16149  -8992890.09247  22633716.564    22633722.239
  23010256.948    -8129278.40949  -6321302.55146  23010256.251    23010262.244
  20380148.394   -23710998.65549 -18467067.82748  20380148.197    20380151.595
  21922302.093   -18106379.81049 -13877690.13347  21922301.367    21922306.737
  23340047.744    -9170338.38249  -7132741.90446  23340046.832    23340053.608
 03  6 15  3 48  0.0000000  0  9G20G31G 1G16G 2G 3G13G27G 8
  23889449.758    -4917656.48449  -3815506.19745  23889448.769    23889455.910
  23176906.721    -7374429.18949  -5714176.06846  23176905.882    23176912.142
  20757896.960   -21401022.16349 -16646637.23648  20757896.148    20757901.174
  23988325.804    -4229094.51549  -3281543.41445  23988324.958    23988330.352
  22647009.954   -11482545.16049  -8938459.97447  22647008.972    22647014.678
  23002898.524    -8167947.00949  -6351433.86646  23002897.865    23002903.758
  20375545.140   -23735188.89449 -18485917.35148  20375544.934    20375548.316
  21914228.422   -18148806.98449 -13910750.23747  21914227.716    21914233.104
  23325972.683    -9244302.99949  -7190376.58646  23325971.716    23325978.516
 03  6 15  3 48 30.0000000  0  9G20G31G 1G16G 2G 3G13G27G 8
  23910510.754    -4806980.54149  -3729265.29245  23910509.818    23910516.937
  23161190.270    -7457019.29049  -5778531.90546  23161189.462    23161195.709
  20764034.781   -21368767.35749 -16621503.62148  20764033.978    20764039.038
  24007027.865    -4130814.19949  -3204961.38545  24007027.081    24007032.489
  22660346.892   -11412459.10749  -8883847.46947  22660345.899    22660351.673
  22995624.347    -8206172.29449  -6381219.75346  22995623.761    22995629.689
  20371013.483   -23759002.79949 -18504473.62248  20371013.291    20371016.689
  21906178.916   -18191107.34449 -13943711.53747  21906178.218    21906183.582
  23311920.965    -9318144.50749  -7247915.36946  23311920.044    23311926.811
 03  6 15  3 49  0.0000000  0  9G20G31G 1G16G 2G 3G13G27G 8
  23931582.441    -4696249.01649  -3642981.09945  23931581.451    23931588.652
  23145515.462    -7539391.02549  -5842717.59146  23145514.633    23145520.797
  20770246.036   -21336126.69949 -16596069.34348  20770245.288    20770250.357
  24025761.378    -4032368.51149  -3128250.49245  24025760.633    24025766.219
  22673728.247   -11342139.54749  -8829053.01747  22673727.255    22673733.042
  22988435.359    -8243950.66649  -6410657.39746  22988434.738    22988440.664
  20366554.026   -23782437.35049 -18522734.29648  20366553.818    20366557.220
  21898153.761   -18233279.62149 -13976573.02947  21898153.064    21898158.448
  23297893.093    -9391861.35049  -7305356.99046  23297892.125    23297898.837
 03  6 15  3 49 30.0000000  0  9G20G31G 1G16G 2G 3G13G27G 8
  23952663.758    -4585466.35449  -3556657.03545  23952662.777    23952670.039
  23129882.454    -7621542.80749  -5906731.88346  23129881.636    23129887.671
  20776530.525   -21303101.54949 -16570335.46448  20776529.758    20776534.806
  24044525.580    -3933761.63049  -3051414.00945  24044524.862    24044530.476
  22687153.386   -11271590.05549  -8774079.39847  22687152.371    22687158.212
  22981331.467    -8281281.51849  -6439746.31446  22981330.866    22981336.783
  20362166.856   -23805492.25249 -18540699.14148  20362166.655    20362170.029
  21890152.626   -18275325.78449 -14009336.26147  21890151.923    21890157.318
  23283888.513    -9465455.35049  -7362702.90046  23283887.570    23283894.343
 03  6 15  3 50  0.0000000  0  9G20G31G 1G16G 2G 3G13G27G 8
  23973754.742    -4474633.51449  -3470293.87145  23973753.815    23973760.842
  23114292.278    -7703469.32449  -5970570.63746  23114291.470    23114297.509
  20782888.617   -21269689.80649 -16544300.34248  20782887.826    20782892.832
  24063320.441    -3834993.90649  -2974452.17145  24063319.850    24063325.360
  22700622.268   -11200810.70249  -8718926.66047  22700621.277    22700627.124
  22974313.514    -8318160.83049  -6468483.41046  22974312.884    22974318.844
  20357852.552   -23828164.23449 -18558365.60848  20357852.312    20357855.685
  21882175.771   -18317244.23049 -14041999.96347  21882175.086    21882180.464
  23269907.636    -9538924.29149  -7419951.36246  23269906.789    23269913.581
 03  6 15  3 50 30.0000000  0  9G20G31G 1G16G 2G 3G13G27G 8
  23994854.305    -4363755.35249  -3383895.38645  23994853.308    23994860.274
  23098745.131    -7785169.51849  -6034233.05046  23098744.302    23098750.473
  20789319.899   -21235893.15749 -16517965.29548  20789319.094    20789324.110
  24082145.045    -3736070.13949  -2897368.74345  24082144.409    24082149.863
  22714134.116   -11129805.65849  -8663598.06447  22714133.083    22714138.927
  22967381.498    -8354588.68649  -6496868.67946  22967380.843    22967386.794
  20353610.929   -23850453.89649 -18575734.16248  20353610.708    20353614.062
  21874222.811   -18359037.22849 -14074565.91647  21874222.151    21874227.504
  23255950.330    -9612270.27849  -7477104.01046  23255949.471    23255956.144
 03  6 15  3 51  0.0000000  0  9G20G31G 1G16G 2G 3G13G27G 8
  24015962.258    -4252832.55949  -3297462.12345  24015961.316    24015968.232
  23083242.042    -7866638.06549  -6097714.96546  23083241.255    23083247.441
  20795824.804   -21201709.09149 -16491328.35848  20795824.041    20795829.080
  24100999.203    -3636990.71249  -2820164.02745  24100998.506    24101004.111
  22727688.883   -11058574.95949  -8608093.63947  22727687.830    22727693.682
  22960536.120    -8390560.79649  -6524898.85646  22960535.492    22960541.480
  20349442.748   -23872357.76449 -18592802.09648  20349442.514    20349445.851
  21866294.049   -18400703.12849 -14107032.82547  21866293.380    21866298.729
  23242016.787    -9685491.42849  -7534159.38446  23242015.867    23242022.453
 03  6 15  3 51 30.0000000  0  9G20G31G 1G16G 2G 3G13G27G 8
  24037077.931    -4141869.03649  -3210997.12445  24037076.968    24037083.862
  23067783.504    -7947872.54849  -6161014.48246  23067782.797    23067788.992
  20802403.503   -21167138.19449 -16464390.00748  20802402.736    20802407.738
  24119882.327    -3537758.88949  -2742840.54745  24119881.613    24119887.447
  22741285.986   -10987121.38049  -8552415.53847  22741284.956    22741290.832
  22953777.738    -8426075.89549  -6552572.93046  22953777.151    22953783.108
  20345348.126   -23893875.06749 -18609568.81548  20345347.919    20345351.199
  21858389.250   -18442243.09649 -14139401.61547  21858388.572    21858393.961
  23228106.834    -9758588.44649  -7591118.03846  23228105.867    23228112.424
